Darstellungsparameter: Aktuell verwendete Einstellungen:
Skalierung der Graphiken ... ?
xyx+y,   Skalierungsfaktor:      Skalierung: Modus: x, Faktor: 1
Darstellungszeitraum ... ?
Vom - - bis: - -   Zeitraum: 23.02.2003 - 24.04.2010
Min/Max/Avg-Anzeige ... ?
Zeige MMA aktuell
Zeige MMA Monat
Zeige MMA alles
Zeige --A aktuell
Zeige --A Monat
Zeige --A alles
Keine MMA-Anzeige
MMA:
Keine MMA-Graphiken
MMA-Basis: 23.02.2003 - 24.04.2010
Quicknavigation für Darstellung... ?
Tage:      1T, 2T, 3T, 5T -1T -2T -3T -5T +1T +2T +3T +5T
Wochen: 1W, 2W, 3W -1W -2W -3W +1W +2W +3W
Monate: 1M, 3M, 6M -1M -3M -6M +1M +3M +6M
Jahre:    1J, 3J, 5J, 10J -1J -3J -5J -10J +1J +3J +5J +10J
Nutze für die Darstellung ... ?
Originaldaten oder ...
Mittelwerte Minima Maxima auf...
Stundenbasis Tagesbasis Wochenbasis
Monatsbasis Jahresbasis      Datenbasis: Mittelwerte auf Tagesbasis
Darstellen als:
Statistik (Auto) Statistik J:M      Darstellung:

Der gewünschte Datumsbereich war nicht gültig/verfügbar und wurde korrigiert....
Das angegebene Startdatum (25.04.2000 00:00:00) liegt vor dem ersten Datenbankeintrag.


Zur Graphik,    zurück zur Übersicht aller Sensoren.
 
Tabellarische Datenbersicht: ?
 
Sensor: Nr:Datum:Temp:Feuchte:Taupunkt:
Aussen-T/F 1 23-02-2003 00:00:00 -0.25 C 73.6667 % -4.37 C
2 24-02-2003 00:00:00 3.08396 C 62.1497 % -3.44 C
3 25-02-2003 00:00:00 1.22845 C 61.2510 % -5.39 C
4 26-02-2003 00:00:00 2.00653 C 60.7864 % -4.75 C
5 27-02-2003 00:00:00 6.02453 C 60.0440 % -1.13 C
6 28-02-2003 00:00:00 7.01339 C 69.3096 % 1.79 C
7 01-03-2003 00:00:00 7.99123 C 80.4363 % 4.84 C
8 02-03-2003 00:00:00 8.58947 C 81.9378 % 5.69 C
9 03-03-2003 00:00:00 5.41134 C 82.2899 % 2.64 C
10 04-03-2003 00:00:00 6.55188 C 70.4728 % 1.58 C
11 05-03-2003 00:00:00 10.06765 C 68.2563 % 4.49 C
12 06-03-2003 00:00:00 8.17302 C 71.7302 % 3.38 C
13 07-03-2003 00:00:00 5.52766 C 73.3688 % 1.15 C
14 08-03-2003 00:00:00 7.57368 C 59.3759 % 0.18 C
15 09-03-2003 00:00:00 9.86698 C 56.9906 % 1.76 C
16 10-03-2003 00:00:00 10.51917 C 61.8917 % 3.53 C
17 11-03-2003 00:00:00 12.31167 C 63.8833 % 5.68 C
18 12-03-2003 00:00:00 9.19725 C 66.3761 % 3.27 C
19 13-03-2003 00:00:00 7.42917 C 54.1167 % -1.23 C
20 14-03-2003 00:00:00 4.74417 C 52.0833 % -4.24 C
21 15-03-2003 00:00:00 5.11261 C 55.3866 % -3.07 C
22 16-03-2003 00:00:00 5.46583 C 57.2583 % -2.3 C
23 17-03-2003 00:00:00 6.59389 C 56.3778 % -1.45 C
24 18-03-2003 00:00:00 4.7979 C 65.0629 % -1.2 C
25 19-03-2003 00:00:00 6.72437 C 60.6387 % -0.33 C
Sensor: Nr:Datum:Temp:Feuchte:Taupunkt:
Aussen-T/F 26 20-03-2003 00:00:00 5.83083 C 65.2583 % -0.17 C
27 21-03-2003 00:00:00 5.31271 C 58.9407 % -2.05 C
28 22-03-2003 00:00:00 6.51 C 41.2000 % -5.71 C
29 23-03-2003 00:00:00 7.7916 C 37.5462 % -5.77 C
30 24-03-2003 00:00:00 9.90917 C 44.5250 % -1.6 C
31 25-03-2003 00:00:00 12.45126 C 58.1681 % 4.47 C
32 26-03-2003 00:00:00 12.51833 C 69.5417 % 7.11 C
33 27-03-2003 00:00:00 12.4042 C 66.2017 % 6.28 C
34 28-03-2003 00:00:00 13.62333 C 58.6083 % 5.67 C
35 29-03-2003 00:00:00 15.55652 C 61.8522 % 8.28 C
36 30-03-2003 00:00:00 13.94188 C 67.0342 % 7.93 C
37 31-03-2003 00:00:00 10.48833 C 53.6750 % 1.5 C
38 01-04-2003 00:00:00 9.86224 C 56.5105 % 1.64 C
39 02-04-2003 00:00:00 5.81958 C 81.8708 % 2.97 C
40 03-04-2003 00:00:00 5.28292 C 68.8667 % 0.04 C
41 04-04-2003 00:00:00 6.50335 C 58.7847 % -0.97 C
42 05-04-2003 00:00:00 8.93776 C 58.2378 % 1.19 C
43 06-04-2003 00:00:00 8.6063 C 41.3386 % -3.77 C
44 25-04-2003 00:00:00 26.39362 C 26.6809 % 5.73 C
45 26-04-2003 00:00:00 15.08169 C 74.5423 % 10.6 C
46 27-04-2003 00:00:00 12.72168 C 73.9441 % 8.2 C
47 28-04-2003 00:00:00 17.06276 C 60.1241 % 9.28 C
48 29-04-2003 00:00:00 17.9 C 57.5816 % 9.42 C
49 30-04-2003 00:00:00 14.06319 C 82.6389 % 11.16 C
50 01-05-2003 00:00:00 13.28944 C 63.6901 % 6.56 C
Sensor: Nr:Datum:Temp:Feuchte:Taupunkt:
Aussen-T/F 51 02-05-2003 00:00:00 14.91042 C 59.3125 % 7.05 C
52 03-05-2003 00:00:00 14.75944 C 47.3357 % 3.67 C
53 04-05-2003 00:00:00 17.16901 C 49.5704 % 6.54 C
54 05-05-2003 00:00:00 19.43681 C 53.5069 % 9.76 C
55 06-05-2003 00:00:00 15.45874 C 71.7692 % 10.39 C
56 07-05-2003 00:00:00 17.27569 C 60.5208 % 9.57 C
57 08-05-2003 00:00:00 18.80278 C 60.7847 % 11.08 C
58 09-05-2003 00:00:00 15.69375 C 76.2431 % 11.53 C
59 10-05-2003 00:00:00 16.18112 C 59.7203 % 8.35 C
60 11-05-2003 00:00:00 15.48322 C 52.6923 % 5.87 C
61 12-05-2003 00:00:00 16.44028 C 54.5694 % 7.27 C
62 13-05-2003 00:00:00 11.88042 C 65.1399 % 5.55 C
63 14-05-2003 00:00:00 9.76224 C 67.7972 % 4.11 C
64 15-05-2003 00:00:00 12.75944 C 55.0490 % 3.97 C
65 16-05-2003 00:00:00 13.02917 C 54.5694 % 4.1 C
66 17-05-2003 00:00:00 14.35594 C 61.5944 % 7.08 C
67 18-05-2003 00:00:00 16.15714 C 69.7823 % 10.64 C
68 19-05-2003 00:00:00 13.69172 C 88.0552 % 11.75 C
69 20-05-2003 00:00:00 12.97431 C 63.2847 % 6.17 C
70 21-05-2003 00:00:00 11.90559 C 75.7203 % 7.76 C
71 22-05-2003 00:00:00 13.89792 C 84.2569 % 11.29 C
72 23-05-2003 00:00:00 18.97762 C 56.1748 % 10.06 C
73 24-05-2003 00:00:00 19.54577 C 59.3099 % 11.4 C
74 25-05-2003 00:00:00 16.0137 C 65.2740 % 9.51 C
75 26-05-2003 00:00:00 17.77413 C 55.2308 % 8.68 C
Sensor: Nr:Datum:Temp:Feuchte:Taupunkt:
Aussen-T/F 76 27-05-2003 00:00:00 19.34444 C 57.4375 % 10.73 C
77 28-05-2003 00:00:00 20.5951 C 55.7133 % 11.44 C
78 29-05-2003 00:00:00 22.73056 C 49.4931 % 11.62 C
79 30-05-2003 00:00:00 23.71367 C 54.0863 % 13.88 C
80 31-05-2003 00:00:00 21.47902 C 71.0420 % 16.01 C
81 01-06-2003 00:00:00 23.35175 C 63.1538 % 15.95 C
82 02-06-2003 00:00:00 23.57394 C 58.9085 % 15.07 C
83 03-06-2003 00:00:00 23.12153 C 66.6111 % 16.57 C
84 04-06-2003 00:00:00 25.04755 C 60.1049 % 16.77 C
85 05-06-2003 00:00:00 22.86621 C 62.8828 % 15.42 C
86 06-06-2003 00:00:00 22.71608 C 60.7692 % 14.75 C
87 07-06-2003 00:00:00 24.90694 C 57.7083 % 16 C
88 08-06-2003 00:00:00 22.7993 C 68.7902 % 16.77 C
89 09-06-2003 00:00:00 19.85139 C 49.4514 % 8.97 C
90 10-06-2003 00:00:00 21.51389 C 65.1806 % 14.7 C
91 11-06-2003 00:00:00 23.96899 C 60.2089 % 15.78 C
92 12-06-2003 00:00:00 22.99412 C 66.6891 % 16.46 C
93 13-06-2003 00:00:00 22.87647 C 57.4328 % 14.03 C
94 14-06-2003 00:00:00 19.34812 C 68.9833 % 13.52 C
95 15-06-2003 00:00:00 22.11274 C 57.9151 % 13.44 C
96 16-06-2003 00:00:00 22.74242 C 45.5000 % 10.37 C
97 17-06-2003 00:00:00 22.74154 C 52.5385 % 12.54 C
98 18-06-2003 00:00:00 20.45909 C 68.3485 % 14.43 C
99 19-06-2003 00:00:00 20.73846 C 61.8769 % 13.17 C
100 20-06-2003 00:00:00 20.76769 C 49.6000 % 9.85 C
Sensor: Nr:Datum:Temp:Feuchte:Taupunkt:
Aussen-T/F 101 21-06-2003 00:00:00 18.57692 C 47.8615 % 7.32 C
102 22-06-2003 00:00:00 22.50152 C 47.7576 % 10.87 C
103 23-06-2003 00:00:00 23.88438 C 51.8750 % 13.4 C
104 24-06-2003 00:00:00 22.05758 C 51.4545 % 11.59 C
105 25-06-2003 00:00:00 21.8 C 47.4154 % 10.13 C
106 26-06-2003 00:00:00 23.58 C 44.0308 % 10.63 C
107 27-06-2003 00:00:00 22.64923 C 49.3846 % 11.51 C
108 28-06-2003 00:00:00 22.94308 C 58.8154 % 14.46 C
109 29-06-2003 00:00:00 25.77699 C 43.2478 % 12.34 C
110 30-06-2003 00:00:00 22.11883 C 62.6527 % 14.66 C
111 01-07-2003 00:00:00 19.41218 C 64.0672 % 12.45 C
112 02-07-2003 00:00:00 17.99791 C 63.5774 % 10.99 C
113 03-07-2003 00:00:00 17.02667 C 71.4083 % 11.82 C
114 04-07-2003 00:00:00 17.05607 C 70.8243 % 11.72 C
115 05-07-2003 00:00:00 16.84059 C 74.2510 % 12.23 C
116 06-07-2003 00:00:00 20.31743 C 54.4450 % 10.83 C
117 07-07-2003 00:00:00 21.54861 C 51.0486 % 11 C
118 08-07-2003 00:00:00 21.54825 C 50.4476 % 10.82 C
119 09-07-2003 00:00:00 20.83077 C 57.8392 % 12.23 C
120 10-07-2003 00:00:00 21.87972 C 52.3916 % 11.7 C
121 11-07-2003 00:00:00 22.96875 C 51.7083 % 12.5 C
122 12-07-2003 00:00:00 21.7951 C 44.3427 % 9.13 C
123 13-07-2003 00:00:00 22.62708 C 44.8472 % 10.05 C
124 14-07-2003 00:00:00 24.49648 C 36.6479 % 8.72 C
125 15-07-2003 00:00:00 25.82168 C 36.1189 % 9.67 C
Sensor: Nr:Datum:Temp:Feuchte:Taupunkt:
Aussen-T/F 126 16-07-2003 00:00:00 26.9125 C 37.1736 % 11.07 C
127 17-07-2003 00:00:00 21.73147 C 52.1538 % 11.49 C
128 18-07-2003 00:00:00 23.17361 C 44.5347 % 10.44 C
129 19-07-2003 00:00:00 25.16783 C 40.8252 % 10.93 C
130 20-07-2003 00:00:00 25.17292 C 45.1389 % 12.45 C
131 21-07-2003 00:00:00 24.85804 C 58.8462 % 16.26 C
132 22-07-2003 00:00:00 23.93147 C 61.8741 % 16.17 C
133 23-07-2003 00:00:00 23.35208 C 52.8889 % 13.2 C
134 24-07-2003 00:00:00 21.31549 C 63.0352 % 14 C
135 25-07-2003 00:00:00 21.11064 C 63.1560 % 13.83 C
136 26-07-2003 00:00:00 21.33333 C 66.7847 % 14.91 C
137 27-07-2003 00:00:00 20.99861 C 77.9028 % 17 C
138 28-07-2003 00:00:00 20.96667 C 53.4792 % 11.17 C
139 29-07-2003 00:00:00 21.55556 C 46.8264 % 9.72 C
140 30-07-2003 00:00:00 19.87292 C 65.4514 % 13.21 C
141 31-07-2003 00:00:00 22.51319 C 66.7986 % 16.03 C
142 01-08-2003 00:00:00 24.69658 C 52.2123 % 14.25 C
143 02-08-2003 00:00:00 26.31181 C 47.9931 % 14.42 C
144 03-08-2003 00:00:00 26.94236 C 49.3611 % 15.44 C
145 04-08-2003 00:00:00 27.77133 C 46.9371 % 15.41 C
146 05-08-2003 00:00:00 27.84375 C 42.7917 % 14.04 C
147 06-08-2003 00:00:00 27.87292 C 43.5556 % 14.34 C
148 07-08-2003 00:00:00 28.54167 C 38.8472 % 13.18 C
149 08-08-2003 00:00:00 28.9625 C 39.1319 % 13.66 C
150 09-08-2003 00:00:00 28.56528 C 44.3542 % 15.25 C
Sensor: Nr:Datum:Temp:Feuchte:Taupunkt:
Aussen-T/F 151 10-08-2003 00:00:00 27.40347 C 38.8056 % 12.15 C
152 11-08-2003 00:00:00 26.68333 C 38.7500 % 11.49 C
153 12-08-2003 00:00:00 28.33655 C 37.8276 % 12.59 C
154 13-08-2003 00:00:00 27.60694 C 40.9583 % 13.16 C
155 14-08-2003 00:00:00 24.19301 C 47.1049 % 12.21 C
156 15-08-2003 00:00:00 21.19583 C 43.4375 % 8.28 C
157 16-08-2003 00:00:00 20.93819 C 43.9861 % 8.23 C
158 17-08-2003 00:00:00 21.95417 C 45.0139 % 9.49 C
159 18-08-2003 00:00:00 19.58194 C 82.9028 % 16.6 C
160 19-08-2003 00:00:00 21.01528 C 69.0625 % 15.13 C
161 20-08-2003 00:00:00 20.52164 C 55.3731 % 11.28 C
162 21-08-2003 00:00:00 20.59583 C 53.3000 % 10.77 C
163 22-08-2003 00:00:00 20.25 C 54.7667 % 10.86 C
164 23-08-2003 00:00:00 21.61417 C 58.0667 % 13.02 C
165 24-08-2003 00:00:00 20.755 C 54.0333 % 11.13 C
166 25-08-2003 00:00:00 20.085 C 51.4833 % 9.78 C
167 26-08-2003 00:00:00 20.6475 C 50.7167 % 10.08 C
168 27-08-2003 00:00:00 18.16083 C 58.7250 % 9.96 C
169 28-08-2003 00:00:00 18.705 C 63.4250 % 11.62 C
170 29-08-2003 00:00:00 17.34333 C 84.3083 % 14.67 C
171 30-08-2003 00:00:00 14.92583 C 81.8833 % 11.86 C
172 31-08-2003 00:00:00 14.155 C 71.3917 % 9.06 C
173 01-09-2003 00:00:00 13.11417 C 71.3000 % 8.04 C
174 02-09-2003 00:00:00 14.14167 C 66.8583 % 8.08 C
175 03-09-2003 00:00:00 14.39 C 59.7500 % 6.67 C
Sensor: Nr:Datum:Temp:Feuchte:Taupunkt:
Aussen-T/F 176 04-09-2003 00:00:00 16.6175 C 58.2750 % 8.4 C
177 05-09-2003 00:00:00 17.74833 C 55.5667 % 8.75 C
178 06-09-2003 00:00:00 19.795 C 62.3167 % 12.39 C
179 07-09-2003 00:00:00 18.97417 C 67.1000 % 12.74 C
180 08-09-2003 00:00:00 16.28824 C 75.0336 % 11.86 C
181 09-09-2003 00:00:00 15.21417 C 70.1833 % 9.82 C
182 10-09-2003 00:00:00 14.80667 C 77.9583 % 11 C
183 11-09-2003 00:00:00 14.8625 C 66.0667 % 8.59 C
184 12-09-2003 00:00:00 16.89667 C 62.4667 % 9.69 C
185 13-09-2003 00:00:00 17.87 C 57.7833 % 9.44 C
186 14-09-2003 00:00:00 15.66083 C 63.5500 % 8.77 C
187 15-09-2003 00:00:00 16.91818 C 65.4793 % 10.41 C
188 16-09-2003 00:00:00 16.72397 C 67.3058 % 10.64 C
189 17-09-2003 00:00:00 17.685 C 65.4000 % 11.12 C
190 18-09-2003 00:00:00 18.04583 C 58.8333 % 9.88 C
191 19-09-2003 00:00:00 19.47083 C 57.8417 % 10.96 C
192 20-09-2003 00:00:00 20.25882 C 60.2185 % 12.3 C
193 21-09-2003 00:00:00 20.695 C 53.1500 % 10.82 C
194 22-09-2003 00:00:00 18.3225 C 69.5000 % 12.65 C
195 23-09-2003 00:00:00 13.95333 C 70.6750 % 8.72 C
196 24-09-2003 00:00:00 10.7375 C 70.4583 % 5.59 C
197 25-09-2003 00:00:00 11.6925 C 64.3750 % 5.2 C
198 26-09-2003 00:00:00 12.8025 C 63.1500 % 5.98 C
199 27-09-2003 00:00:00 13.93417 C 67.8500 % 8.1 C
200 28-09-2003 00:00:00 14.33554 C 77.3967 % 10.44 C
Sensor: Nr:Datum:Temp:Feuchte:Taupunkt:
Aussen-T/F 201 29-09-2003 00:00:00 13.1625 C 65.3583 % 6.82 C
202 30-09-2003 00:00:00 12.02083 C 69.6500 % 6.65 C
203 01-10-2003 00:00:00 10.64793 C 81.5289 % 7.62 C
204 02-10-2003 00:00:00 16.3025 C 80.8000 % 13 C
205 03-10-2003 00:00:00 16.015 C 77.1583 % 12.02 C
206 04-10-2003 00:00:00 12.51583 C 79.8000 % 9.13 C
207 05-10-2003 00:00:00 9.27917 C 74.4000 % 4.97 C
208 06-10-2003 00:00:00 7.6025 C 76.5333 % 3.75 C
209 07-10-2003 00:00:00 8.125 C 79.9833 % 4.89 C
210 08-10-2003 00:00:00 9.46694 C 76.2479 % 5.5 C
211 09-10-2003 00:00:00 12.52833 C 76.0750 % 8.43 C
212 10-10-2003 00:00:00 13.88667 C 73.4417 % 9.22 C
213 11-10-2003 00:00:00 13.46833 C 76.5250 % 9.43 C
214 12-10-2003 00:00:00 10.71157 C 70.5620 % 5.59 C
215 13-10-2003 00:00:00 8.84417 C 70.8333 % 3.85 C
216 14-10-2003 00:00:00 8.61774 C 64.7984 % 2.38 C
217 15-10-2003 00:00:00 6.7392 C 67.5920 % 1.18 C
218 16-10-2003 00:00:00 7.11532 C 68.5726 % 1.74 C
219 17-10-2003 00:00:00 6.33417 C 65.2583 % 0.3 C
220 18-10-2003 00:00:00 4.57667 C 72.5000 % 0.07 C
221 19-10-2003 00:00:00 4.02333 C 78.4000 % 0.61 C
222 20-10-2003 00:00:00 6.06833 C 73.9417 % 1.78 C
223 21-10-2003 00:00:00 5.19853 C 78.9044 % 1.85 C
224 22-10-2003 00:00:00 3.7873 C 87.5000 % 1.91 C
225 23-10-2003 00:00:00 3.55476 C 64.1190 % -2.58 C
Sensor: Nr:Datum:Temp:Feuchte:Taupunkt:
Aussen-T/F 226 24-10-2003 00:00:00 0.92869 C 65.7787 % -4.73 C
227 25-10-2003 00:00:00 4.80331 C 66.9917 % -0.79 C
228 26-10-2003 00:00:00 6.392 C 69.9840 % 1.33 C
229 27-10-2003 00:00:00 6.27667 C 74.4000 % 2.07 C
230 28-10-2003 00:00:00 4.52667 C 74.7833 % 0.45 C
231 29-10-2003 00:00:00 5.675 C 85.5726 % 3.45 C
232 30-10-2003 00:00:00 5.9688 C 83.1200 % 3.33 C
233 31-10-2003 00:00:00 7.1 C 87.1774 % 5.12 C
234 01-11-2003 00:00:00 9.5144 C 76.7600 % 5.64 C
235 02-11-2003 00:00:00 9.956 C 67.9440 % 4.32 C
236 03-11-2003 00:00:00 12.28333 C 66.8833 % 6.32 C
237 04-11-2003 00:00:00 9.815 C 73.6417 % 5.34 C
238 05-11-2003 00:00:00 6.345 C 80.5333 % 3.25 C
239 06-11-2003 00:00:00 4.63388 C 80.1322 % 1.51 C
240 07-11-2003 00:00:00 5.57323 C 70.3701 % 0.62 C
241 08-11-2003 00:00:00 6.66748 C 66.3740 % 0.86 C
242 09-11-2003 00:00:00 5.94409 C 72.6378 % 1.41 C
243 10-11-2003 00:00:00 6.52937 C 76.1190 % 2.63 C
244 11-11-2003 00:00:00 5.2064 C 69.3200 % 0.06 C
245 12-11-2003 00:00:00 5.06859 C 71.5455 % 0.36 C
246 13-11-2003 00:00:00 7.195 C 76.3250 % 3.32 C
247 14-11-2003 00:00:00 5.67167 C 79.2833 % 2.37 C
248 15-11-2003 00:00:00 6.93719 C 77.5372 % 3.29 C
249 16-11-2003 00:00:00 4.36532 C 87.4355 % 2.47 C
250 17-11-2003 00:00:00 6.63361 C 75.4918 % 2.62 C
Sensor: Nr:Datum:Temp:Feuchte:Taupunkt:
Aussen-T/F 251 18-11-2003 00:00:00 8.51967 C 81.8852 % 5.61 C
252 19-11-2003 00:00:00 11.89837 C 74.1951 % 7.46 C
253 20-11-2003 00:00:00 10.56167 C 72.6167 % 5.86 C
254 21-11-2003 00:00:00 9.79083 C 71.8667 % 4.97 C
255 22-11-2003 00:00:00 9.85167 C 75.1167 % 5.66 C
256 23-11-2003 00:00:00 13.305 C 59.1083 % 5.5 C
257 24-11-2003 00:00:00 13.64667 C 61.8500 % 6.47 C
258 25-11-2003 00:00:00 11.82683 C 69.7236 % 6.48 C
259 26-11-2003 00:00:00 9.87317 C 68.3008 % 4.32 C
260 27-11-2003 00:00:00 7.63871 C 86.8548 % 5.59 C
261 28-11-2003 00:00:00 5.24797 C 85.3577 % 3 C
262 29-11-2003 00:00:00 3.545 C 80.2833 % 0.48 C
263 30-11-2003 00:00:00 5.35833 C 82.9833 % 2.71 C
264 01-12-2003 00:00:00 7.79167 C 77.0500 % 4.03 C
265 02-12-2003 00:00:00 5.15833 C 80.9417 % 2.16 C
266 03-12-2003 00:00:00 3.17273 C 88.3719 % 1.44 C
267 04-12-2003 00:00:00 4.92258 C 80.2823 % 1.82 C
268 05-12-2003 00:00:00 5.37787 C 72.3279 % 0.81 C
269 06-12-2003 00:00:00 3.05124 C 71.3223 % -1.62 C
270 07-12-2003 00:00:00 -2.40492 C 71.0820 % -6.92 C
271 08-12-2003 00:00:00 -4.28 C 78.6917 % -7.42 C
272 09-12-2003 00:00:00 -4.81083 C 76.5667 % -8.29 C
273 10-12-2003 00:00:00 -3.95583 C 77.6917 % -7.27 C
274 11-12-2003 00:00:00 1.15083 C 74.2833 % -2.9 C
275 12-12-2003 00:00:00 4.94758 C 79.1855 % 1.65 C
Sensor: Nr:Datum:Temp:Feuchte:Taupunkt:
Aussen-T/F 276 13-12-2003 00:00:00 10.35 C 78.4262 % 6.77 C
277 14-12-2003 00:00:00 7.74758 C 65.7500 % 1.75 C
278 15-12-2003 00:00:00 3.0314 C 68.9421 % -2.1 C
279 16-12-2003 00:00:00 3.83333 C 70.9917 % -0.93 C
280 17-12-2003 00:00:00 3.71417 C 75.4750 % -0.21 C
281 18-12-2003 00:00:00 -0.60917 C 84.4750 % -2.9 C
282 19-12-2003 00:00:00 2.1325 C 80.4417 % -0.87 C
283 20-12-2003 00:00:00 8.76446 C 73.6198 % 4.32 C
284 21-12-2003 00:00:00 6.09262 C 71.7705 % 1.39 C
285 22-12-2003 00:00:00 1.6822 C 71.7458 % -2.86 C
286 23-12-2003 00:00:00 -0.1781 C 74.3905 % -4.17 C
287 24-12-2003 00:00:00 1.48333 C 69.6349 % -3.45 C
288 25-12-2003 00:00:00 3.60256 C 69.7265 % -1.4 C
289 26-12-2003 00:00:00 5.71008 C 71.8739 % 1.04 C
290 27-12-2003 00:00:00 7.0438 C 69.6364 % 1.88 C
291 28-12-2003 00:00:00 7.02333 C 71.9333 % 2.32 C
292 29-12-2003 00:00:00 1.82917 C 68.9167 % -3.25 C
293 30-12-2003 00:00:00 -1.70333 C 83.5833 % -4.11 C
294 31-12-2003 00:00:00 -1.04017 C 78.5214 % -4.29 C
295 01-01-2004 00:00:00 -2.37115 C 75.9519 % -6.02 C
296 02-01-2004 00:00:00 -2.12212 C 48.7965 % -11.44 C
297 03-01-2004 00:00:00 -5.68621 C 71.0603 % -10.08 C
298 04-01-2004 00:00:00 -2.61969 C 72.4646 % -6.88 C
299 05-01-2004 00:00:00 1.15917 C 83.2833 % -1.35 C
300 06-01-2004 00:00:00 2.9925 C 86.9833 % 1.04 C
Sensor: Nr:Datum:Temp:Feuchte:Taupunkt:
Aussen-T/F 301 07-01-2004 00:00:00 5.665 C 80.7250 % 2.62 C
302 08-01-2004 00:00:00 4.4437 C 78.9496 % 1.12 C
303 09-01-2004 00:00:00 5.33898 C 80.6102 % 2.28 C
304 10-01-2004 00:00:00 4.62667 C 74.7417 % 0.54 C
305 11-01-2004 00:00:00 9.1975 C 74.0917 % 4.83 C
306 12-01-2004 00:00:00 5.775 C 72.9417 % 1.31 C
307 13-01-2004 00:00:00 7.80083 C 69.7083 % 2.62 C
308 14-01-2004 00:00:00 5.86667 C 63.7083 % -0.47 C
309 15-01-2004 00:00:00 4.12083 C 70.3750 % -0.77 C
310 16-01-2004 00:00:00 5.9575 C 65.0417 % -0.1 C
311 17-01-2004 00:00:00 4.54333 C 68.7833 % -0.68 C
312 18-01-2004 00:00:00 2.49583 C 68.9417 % -2.61 C
313 19-01-2004 00:00:00 0.56471 C 77.5966 % -2.89 C
314 20-01-2004 00:00:00 4.19833 C 74.5917 % 0.1 C
315 21-01-2004 00:00:00 0.6125 C 62.2417 % -5.76 C
316 22-01-2004 00:00:00 -0.92333 C 68.3750 % -6 C
317 23-01-2004 00:00:00 -0.45583 C 63.8417 % -6.45 C
318 24-01-2004 00:00:00 -0.8575 C 68.2083 % -5.97 C
319 25-01-2004 00:00:00 2.03167 C 81.7583 % -0.75 C
320 26-01-2004 00:00:00 1.7325 C 71.4417 % -2.87 C
321 27-01-2004 00:00:00 0.47583 C 64.6333 % -5.4 C
322 28-01-2004 00:00:00 0.665 C 66.7750 % -4.79 C
323 29-01-2004 00:00:00 0.295 C 70.8750 % -4.35 C
324 30-01-2004 00:00:00 0.67083 C 59.1083 % -6.38 C
325 31-01-2004 00:00:00 6.21597 C 59.3697 % -1.1 C
Sensor: Nr:Datum:Temp:Feuchte:Taupunkt:
Aussen-T/F 326 01-02-2004 00:00:00 11.11083 C 58.0417 % 3.18 C
327 02-02-2004 00:00:00 11.24083 C 66.9750 % 5.34 C
328 03-02-2004 00:00:00 11.46 C 62.1333 % 4.48 C
329 04-02-2004 00:00:00 12.275 C 51.2833 % 2.52 C
330 05-02-2004 00:00:00 12.8325 C 51.3917 % 3.07 C
331 06-02-2004 00:00:00 13.52417 C 50.5000 % 3.46 C
332 07-02-2004 00:00:00 9.05417 C 49.8833 % -0.83 C
333 08-02-2004 00:00:00 4.03583 C 67.1250 % -1.5 C
334 09-02-2004 00:00:00 3.1225 C 61.5000 % -3.54 C
335 10-02-2004 00:00:00 2.2525 C 64.8167 % -3.67 C
336 11-02-2004 00:00:00 5.42417 C 80.4500 % 2.34 C
337 12-02-2004 00:00:00 3.90932 C 63.4746 % -2.38 C
338 13-02-2004 00:00:00 5.5876 C 75.4545 % 1.6 C
339 14-02-2004 00:00:00 6.88083 C 73.6917 % 2.52 C
340 15-02-2004 00:00:00 6.2625 C 73.0750 % 1.8 C
341 16-02-2004 00:00:00 5.3425 C 69.5583 % 0.24 C
342 17-02-2004 00:00:00 3.33417 C 68.6667 % -1.86 C
343 18-02-2004 00:00:00 4.05167 C 64.0500 % -2.12 C
344 19-02-2004 00:00:00 1.21833 C 58.5000 % -6 C
345 20-02-2004 00:00:00 2.01417 C 48.5417 % -7.68 C
346 21-02-2004 00:00:00 1.18 C 55.1917 % -6.79 C
347 22-02-2004 00:00:00 1.965 C 59.5333 % -5.07 C
348 23-02-2004 00:00:00 0.45868 C 60.0000 % -6.38 C
349 24-02-2004 00:00:00 -0.95167 C 61.6917 % -7.37 C
350 25-02-2004 00:00:00 1.34583 C 73.6000 % -2.84 C
Sensor: Nr:Datum:Temp:Feuchte:Taupunkt:
Aussen-T/F 351 26-02-2004 00:00:00 -0.21417 C 64.6083 % -6.07 C
352 27-02-2004 00:00:00 -1.6575 C 59.8250 % -8.43 C
353 28-02-2004 00:00:00 0.15508 C 53.9237 % -8.05 C
354 29-02-2004 00:00:00 -1.085 C 58.9083 % -8.09 C
355 01-03-2004 00:00:00 -0.13417 C 54.4167 % -8.21 C
356 02-03-2004 00:00:00 3.0575 C 62.9667 % -3.29 C
357 03-03-2004 00:00:00 3.86667 C 52.7667 % -4.88 C
358 04-03-2004 00:00:00 3.09 C 56.6000 % -4.68 C
359 05-03-2004 00:00:00 3.3075 C 46.8833 % -6.94 C
360 06-03-2004 00:00:00 1.425 C 79.3167 % -1.75 C
361 07-03-2004 00:00:00 3.68583 C 73.7083 % -0.56 C
362 08-03-2004 00:00:00 4.06167 C 57.2833 % -3.61 C
363 09-03-2004 00:00:00 1.66333 C 62.8583 % -4.64 C
364 10-03-2004 00:00:00 0.88 C 75.4667 % -2.95 C
365 11-03-2004 00:00:00 1.12857 C 77.3866 % -2.38 C
366 12-03-2004 00:00:00 3.4975 C 64.3917 % -2.57 C
367 13-03-2004 00:00:00 9.25417 C 58.9083 % 1.65 C
368 14-03-2004 00:00:00 9.66417 C 53.2250 % 0.62 C
369 15-03-2004 00:00:00 11.64167 C 50.1250 % 1.62 C
370 16-03-2004 00:00:00 12.85583 C 58.2250 % 4.86 C
371 17-03-2004 00:00:00 12.58333 C 59.8917 % 5.01 C
372 18-03-2004 00:00:00 14.18 C 58.5833 % 6.19 C
373 19-03-2004 00:00:00 12.33333 C 63.7167 % 5.66 C
374 20-03-2004 00:00:00 12.1875 C 69.8333 % 6.85 C
375 21-03-2004 00:00:00 9.85583 C 63.6250 % 3.29 C
Sensor: Nr:Datum:Temp:Feuchte:Taupunkt:
Aussen-T/F 376 22-03-2004 00:00:00 6.47917 C 74.0333 % 2.2 C
377 23-03-2004 00:00:00 5.15966 C 79.9412 % 1.99 C
378 24-03-2004 00:00:00 5.735 C 67.2667 % 0.15 C
379 25-03-2004 00:00:00 4.39083 C 64.6417 % -1.67 C
380 26-03-2004 00:00:00 2.8575 C 64.0583 % -3.25 C
381 27-03-2004 00:00:00 2.76167 C 58.3750 % -4.58 C
382 28-03-2004 00:00:00 4.98174 C 53.4261 % -3.68 C
383 29-03-2004 00:00:00 7.27 C 52.3500 % -1.83 C
384 30-03-2004 00:00:00 11.1075 C 44.1333 % -0.63 C
385 31-03-2004 00:00:00 11.83 C 47.6000 % 1.07 C
386 01-04-2004 00:00:00 14.11083 C 46.6750 % 2.88 C
387 02-04-2004 00:00:00 13.71083 C 50.7167 % 3.69 C
388 03-04-2004 00:00:00 12.5275 C 63.6500 % 5.83 C
389 04-04-2004 00:00:00 12.14333 C 55.2083 % 3.44 C
390 05-04-2004 00:00:00 8.31176 C 68.9832 % 2.96 C
391 06-04-2004 00:00:00 6.33333 C 73.8167 % 2.01 C
392 07-04-2004 00:00:00 5.33417 C 77.4500 % 1.72 C
393 08-04-2004 00:00:00 6.565 C 72.1583 % 1.92 C
394 09-04-2004 00:00:00 7.14583 C 67.5833 % 1.56 C
395 10-04-2004 00:00:00 7.875 C 69.6417 % 2.68 C
396 11-04-2004 00:00:00 7.40667 C 63.5833 % 0.96 C
397 12-04-2004 00:00:00 8.5875 C 57.8583 % 0.77 C
398 13-04-2004 00:00:00 10.13917 C 62.4250 % 3.29 C
399 14-04-2004 00:00:00 11.98667 C 51.2917 % 2.26 C
400 15-04-2004 00:00:00 11.55833 C 51.2833 % 1.86 C
Sensor: Nr:Datum:Temp:Feuchte:Taupunkt:
Aussen-T/F 401 16-04-2004 00:00:00 14.20083 C 49.4833 % 3.79 C
402 17-04-2004 00:00:00 14.72521 C 48.3950 % 3.96 C
403 18-04-2004 00:00:00 12.97583 C 55.3583 % 4.25 C
404 19-04-2004 00:00:00 10.14917 C 49.3417 % 0.03 C
405 20-04-2004 00:00:00 10.01083 C 68.2333 % 4.43 C
406 21-04-2004 00:00:00 14.15667 C 65.1250 % 7.71 C
407 22-04-2004 00:00:00 16.29917 C 63.2333 % 9.3 C
408 23-04-2004 00:00:00 13.10417 C 70.9333 % 7.96 C
409 24-04-2004 00:00:00 12.5125 C 57.1583 % 4.28 C
410 25-04-2004 00:00:00 12.58083 C 58.7083 % 4.72 C
411 26-04-2004 00:00:00 14.825 C 52.0000 % 5.07 C
412 27-04-2004 00:00:00 16.15917 C 52.5583 % 6.46 C
413 28-04-2004 00:00:00 16.0125 C 64.0583 % 9.23 C
414 29-04-2004 00:00:00 16.4958 C 71.1681 % 11.26 C
415 30-04-2004 00:00:00 18.50167 C 61.2833 % 10.91 C
416 01-05-2004 00:00:00 14.56639 C 80.0420 % 11.17 C
417 02-05-2004 00:00:00 15.70083 C 62.4167 % 8.55 C
418 03-05-2004 00:00:00 14.50667 C 61.6667 % 7.24 C
419 04-05-2004 00:00:00 14.02167 C 60.7000 % 6.56 C
420 05-05-2004 00:00:00 12.41083 C 53.1750 % 3.16 C
421 06-05-2004 00:00:00 10.04167 C 73.5583 % 5.54 C
422 07-05-2004 00:00:00 8.415 C 89.6833 % 6.82 C
423 08-05-2004 00:00:00 7.58083 C 86.4750 % 5.47 C
424 09-05-2004 00:00:00 10.3025 C 76.3667 % 6.33 C
425 10-05-2004 00:00:00 12.86 C 78.7833 % 9.27 C
Sensor: Nr:Datum:Temp:Feuchte:Taupunkt:
Aussen-T/F 426 11-05-2004 00:00:00 14.43866 C 69.6975 % 8.98 C
427 12-05-2004 00:00:00 12.22583 C 60.6000 % 4.84 C
428 13-05-2004 00:00:00 11.9225 C 63.4583 % 5.22 C
429 14-05-2004 00:00:00 15.3875 C 58.7000 % 7.35 C
430 15-05-2004 00:00:00 14.34333 C 62.5750 % 7.3 C
431 16-05-2004 00:00:00 16.78167 C 57.5167 % 8.36 C
432 17-05-2004 00:00:00 17.8875 C 57.1250 % 9.29 C
433 18-05-2004 00:00:00 18.75917 C 55.0500 % 9.55 C
434 19-05-2004 00:00:00 19.56 C 54.8833 % 10.25 C
435 20-05-2004 00:00:00 19.53 C 51.2000 % 9.19 C
436 21-05-2004 00:00:00 13.19833 C 69.6667 % 7.78 C
437 22-05-2004 00:00:00 10.73083 C 51.5500 % 1.17 C
438 23-05-2004 00:00:00 11.5479 C 48.7731 % 1.15 C
439 24-05-2004 00:00:00 11.78 C 53.7250 % 2.72 C
440 25-05-2004 00:00:00 14.72583 C 52.4750 % 5.11 C
441 26-05-2004 00:00:00 14.9725 C 47.9000 % 4.04 C
442 27-05-2004 00:00:00 12.81083 C 49.9917 % 2.66 C
443 28-05-2004 00:00:00 13.97333 C 52.4583 % 4.41 C
444 29-05-2004 00:00:00 17.0438 C 47.8843 % 5.93 C
445 30-05-2004 00:00:00 18.69077 C 45.3615 % 6.64 C
446 31-05-2004 00:00:00 15.58167 C 78.2917 % 11.82 C
447 01-06-2004 00:00:00 16.40168 C 67.3193 % 10.33 C
448 02-06-2004 00:00:00 14.86303 C 77.4370 % 10.96 C
449 03-06-2004 00:00:00 16.36167 C 73.4833 % 11.61 C
450 04-06-2004 00:00:00 13.82583 C 85.2250 % 11.39 C
Sensor: Nr:Datum:Temp:Feuchte:Taupunkt:
Aussen-T/F 451 05-06-2004 00:00:00 14.33583 C 74.1833 % 9.8 C
452 06-06-2004 00:00:00 16.84667 C 64.0500 % 10.01 C
453 07-06-2004 00:00:00 20.69333 C 54.8667 % 11.3 C
454 08-06-2004 00:00:00 23.6575 C 52.2167 % 13.29 C
455 09-06-2004 00:00:00 24.735 C 57.8917 % 15.89 C
456 10-06-2004 00:00:00 21.21417 C 78.4667 % 17.32 C
457 11-06-2004 00:00:00 18.8725 C 79.4167 % 15.23 C
458 12-06-2004 00:00:00 15.64417 C 73.0083 % 10.83 C
459 13-06-2004 00:00:00 15.35042 C 70.5210 % 10.02 C
460 14-06-2004 00:00:00 17.5175 C 60.5333 % 9.8 C
461 15-06-2004 00:00:00 20.5725 C 61.3083 % 12.87 C
462 16-06-2004 00:00:00 17.205 C 51.2750 % 7.07 C
463 17-06-2004 00:00:00 18.3025 C 55.5417 % 9.26 C
464 18-06-2004 00:00:00 15.54 C 72.5167 % 10.62 C
465 19-06-2004 00:00:00 14.39167 C 66.9833 % 8.35 C
466 20-06-2004 00:00:00 14.56583 C 58.9917 % 6.65 C
467 21-06-2004 00:00:00 14.90333 C 62.9000 % 7.91 C
468 22-06-2004 00:00:00 15.64583 C 77.4250 % 11.71 C
469 23-06-2004 00:00:00 19.17083 C 64.4833 % 12.32 C
470 24-06-2004 00:00:00 16.3775 C 51.3750 % 6.33 C
471 25-06-2004 00:00:00 14.59167 C 62.3833 % 7.49 C
472 26-06-2004 00:00:00 16.39328 C 62.6387 % 9.25 C
473 27-06-2004 00:00:00 20.93475 C 63.2881 % 13.7 C
474 28-06-2004 00:00:00 19.74667 C 46.7750 % 8.05 C
475 29-06-2004 00:00:00 18.54833 C 52.3167 % 8.6 C
Sensor: Nr:Datum:Temp:Feuchte:Taupunkt:
Aussen-T/F 476 30-06-2004 00:00:00 20.9875 C 49.8333 % 10.13 C
477 01-07-2004 00:00:00 18.20084 C 52.5042 % 8.33 C
478 02-07-2004 00:00:00 15.81417 C 67.5167 % 9.82 C
479 03-07-2004 00:00:00 15.91333 C 65.5417 % 9.47 C
480 04-07-2004 00:00:00 15.28 C 72.2667 % 10.32 C
481 05-07-2004 00:00:00 18.50083 C 64.0583 % 11.58 C
482 06-07-2004 00:00:00 19.60833 C 51.6000 % 9.38 C
483 07-07-2004 00:00:00 18.90167 C 63.0917 % 11.73 C
484 08-07-2004 00:00:00 18.76833 C 74.0250 % 14.04 C
485 09-07-2004 00:00:00 15.12333 C 79.2750 % 11.56 C
486 10-07-2004 00:00:00 14.9525 C 69.0167 % 9.32 C
487 11-07-2004 00:00:00 14.95417 C 65.0917 % 8.46 C
488 12-07-2004 00:00:00 14.17 C 77.3167 % 10.26 C
489 13-07-2004 00:00:00 14.57815 C 68.4370 % 8.84 C
490 14-07-2004 00:00:00 16.24083 C 67.6583 % 10.26 C
491 15-07-2004 00:00:00 19.03167 C 78.2417 % 15.16 C
492 16-07-2004 00:00:00 22.7475 C 61.6833 % 15.01 C
493 17-07-2004 00:00:00 21.68 C 70.6750 % 16.12 C
494 18-07-2004 00:00:00 19.98843 C 80.3636 % 16.5 C
495 19-07-2004 00:00:00 21.74667 C 65.6167 % 15.03 C
496 20-07-2004 00:00:00 19.855 C 75.1583 % 15.33 C
497 21-07-2004 00:00:00 22.40083 C 67.3583 % 16.06 C
498 22-07-2004 00:00:00 24.60504 C 62.4958 % 16.97 C
499 23-07-2004 00:00:00 23.33 C 70.3000 % 17.62 C
500 24-07-2004 00:00:00 22.0075 C 55.3000 % 12.64 C
Sensor: Nr:Datum:Temp:Feuchte:Taupunkt:
Aussen-T/F 501 25-07-2004 00:00:00 18.13833 C 64.8750 % 11.43 C
502 26-07-2004 00:00:00 16.53583 C 77.3000 % 12.55 C
503 27-07-2004 00:00:00 18.38 C 63.7250 % 11.39 C
504 28-07-2004 00:00:00 20.28583 C 54.0833 % 10.7 C
505 29-07-2004 00:00:00 21.75917 C 50.1333 % 10.92 C
506 30-07-2004 00:00:00 22.845 C 51.9750 % 12.47 C
507 31-07-2004 00:00:00 23.185 C 58.1083 % 14.5 C
508 01-08-2004 00:00:00 23.30333 C 57.7000 % 14.5 C
509 02-08-2004 00:00:00 23.80917 C 51.5583 % 13.23 C
510 03-08-2004 00:00:00 24.1975 C 49.2417 % 12.89 C
511 04-08-2004 00:00:00 23.40756 C 62.0000 % 15.71 C
512 05-08-2004 00:00:00 25.28167 C 54.2750 % 15.39 C
513 06-08-2004 00:00:00 25.0625 C 52.3333 % 14.62 C
514 07-08-2004 00:00:00 24.03167 C 66.1333 % 17.32 C
515 08-08-2004 00:00:00 24.36 C 62.3167 % 16.69 C
516 09-08-2004 00:00:00 25.4775 C 46.0750 % 13.04 C
517 10-08-2004 00:00:00 22.66333 C 58.0000 % 13.98 C
518 11-08-2004 00:00:00 22.42804 C 75.3645 % 17.85 C
519 12-08-2004 00:00:00 20.15417 C 76.0000 % 15.79 C
520 13-08-2004 00:00:00 17.9625 C 74.5208 % 13.37 C
521 14-08-2004 00:00:00 18.08333 C 79.5208 % 14.49 C
522 15-08-2004 00:00:00 21.52708 C 63.1667 % 14.23 C
523 16-08-2004 00:00:00 20.10625 C 72.5000 % 15.01 C
524 17-08-2004 00:00:00 20.58958 C 77.5417 % 16.53 C
525 18-08-2004 00:00:00 22.67292 C 65.4167 % 15.86 C
Sensor: Nr:Datum:Temp:Feuchte:Taupunkt:
Aussen-T/F 526 19-08-2004 00:00:00 21.05417 C 63.5417 % 13.87 C
527 20-08-2004 00:00:00 18.89583 C 64.2292 % 12 C
528 21-08-2004 00:00:00 15.52708 C 79.5417 % 12.01 C
529 22-08-2004 00:00:00 16.41042 C 64.4792 % 9.7 C
530 23-08-2004 00:00:00 16.42708 C 72.7708 % 11.53 C
531 24-08-2004 00:00:00 17.42083 C 77.5833 % 13.46 C
532 25-08-2004 00:00:00 16.20847 C 73.5424 % 11.48 C
533 26-08-2004 00:00:00 16.76083 C 70.0000 % 11.26 C
534 27-08-2004 00:00:00 15.82269 C 69.9076 % 10.35 C
535 28-08-2004 00:00:00 17.58 C 82.4000 % 14.55 C
536 29-08-2004 00:00:00 18.84917 C 71.7750 % 13.65 C
537 30-08-2004 00:00:00 15.81333 C 77.4250 % 11.88 C
538 31-08-2004 00:00:00 14.84333 C 69.8917 % 9.41 C
539 01-09-2004 00:00:00 15.91667 C 66.9333 % 9.79 C
540 02-09-2004 00:00:00 17.21429 C 65.6639 % 10.73 C
541 03-09-2004 00:00:00 20.0275 C 67.9667 % 13.94 C
542 04-09-2004 00:00:00 21.15083 C 68.3500 % 15.09 C
543 05-09-2004 00:00:00 21.63833 C 66.2833 % 15.08 C
544 06-09-2004 00:00:00 20.35 C 61.9083 % 12.81 C
545 07-09-2004 00:00:00 21.00167 C 60.4083 % 13.05 C
546 08-09-2004 00:00:00 20.15294 C 59.9664 % 12.14 C
547 09-09-2004 00:00:00 18.48167 C 51.1250 % 8.2 C
548 10-09-2004 00:00:00 17.9825 C 53.8167 % 8.5 C
549 11-09-2004 00:00:00 20.54583 C 69.2167 % 14.71 C
550 12-09-2004 00:00:00 17.1475 C 61.9000 % 9.79 C
Sensor: Nr:Datum:Temp:Feuchte:Taupunkt:
Aussen-T/F 551 13-09-2004 00:00:00 17.07 C 61.1250 % 9.53 C
552 14-09-2004 00:00:00 17.45462 C 56.7311 % 8.78 C
553 15-09-2004 00:00:00 14.54333 C 65.4667 % 8.15 C
554 16-09-2004 00:00:00 12.64 C 65.5083 % 6.35 C
555 17-09-2004 00:00:00 13.2175 C 64.3167 % 6.64 C
556 18-09-2004 00:00:00 15.71667 C 64.6333 % 9.08 C
557 19-09-2004 00:00:00 16.38 C 73.0333 % 11.54 C
558 20-09-2004 00:00:00 13.69833 C 64.3083 % 7.09 C
559 21-09-2004 00:00:00 15.01167 C 53.8000 % 5.74 C
560 22-09-2004 00:00:00 12.50168 C 69.4370 % 7.07 C
561 23-09-2004 00:00:00 13.44917 C 89.2500 % 11.72 C
562 24-09-2004 00:00:00 12.08833 C 71.6250 % 7.12 C
563 25-09-2004 00:00:00 12.41167 C 68.9917 % 6.89 C
564 26-09-2004 00:00:00 12.71667 C 74.8833 % 8.38 C
565 27-09-2004 00:00:00 13.985 C 80.9167 % 10.76 C
566 28-09-2004 00:00:00 15.85833 C 76.8667 % 11.81 C
567 29-09-2004 00:00:00 15.4525 C 68.0417 % 9.59 C
568 30-09-2004 00:00:00 13.13583 C 74.7083 % 8.75 C
569 01-10-2004 00:00:00 15.1775 C 72.6833 % 10.31 C
570 02-10-2004 00:00:00 14.82333 C 71.5917 % 9.74 C
571 03-10-2004 00:00:00 13.56417 C 70.9417 % 8.4 C
572 04-10-2004 00:00:00 16.06303 C 71.6807 % 10.95 C
573 05-10-2004 00:00:00 19.11667 C 68.2250 % 13.13 C
574 06-10-2004 00:00:00 14.425 C 80.4500 % 11.11 C
575 07-10-2004 00:00:00 11.63417 C 73.6750 % 7.1 C
Sensor: Nr:Datum:Temp:Feuchte:Taupunkt:
Aussen-T/F 576 08-10-2004 00:00:00 9.55667 C 83.5000 % 6.9 C
577 09-10-2004 00:00:00 10.71833 C 76.3250 % 6.73 C
578 10-10-2004 00:00:00 9.49167 C 67.7083 % 3.83 C
579 11-10-2004 00:00:00 8.54167 C 60.9083 % 1.44 C
580 12-10-2004 00:00:00 8.30333 C 60.1500 % 1.04 C
581 13-10-2004 00:00:00 9.11167 C 77.2750 % 5.35 C
582 14-10-2004 00:00:00 11.28417 C 78.9417 % 7.77 C
583 15-10-2004 00:00:00 10.13917 C 79.0750 % 6.68 C
584 16-10-2004 00:00:00 7.7475 C 85.5000 % 5.47 C
585 17-10-2004 00:00:00 8.67143 C 80.5294 % 5.52 C
586 18-10-2004 00:00:00 9.92417 C 73.9417 % 5.5 C
587 19-10-2004 00:00:00 8.205 C 83.8250 % 5.64 C
588 20-10-2004 00:00:00 12.1075 C 89.2500 % 10.39 C
589 21-10-2004 00:00:00 14.14083 C 68.6500 % 8.47 C
590 22-10-2004 00:00:00 10.405 C 77.9333 % 6.73 C
591 23-10-2004 00:00:00 14.51083 C 72.1583 % 9.56 C
592 24-10-2004 00:00:00 15.26 C 78.4083 % 11.53 C
593 25-10-2004 00:00:00 14.77917 C 69.8083 % 9.33 C
594 26-10-2004 00:00:00 10.89917 C 79.1083 % 7.43 C
595 27-10-2004 00:00:00 9.63083 C 79.6500 % 6.29 C
596 28-10-2004 00:00:00 12.44833 C 79.7750 % 9.06 C
597 29-10-2004 00:00:00 12.78908 C 85.4202 % 10.41 C
598 30-10-2004 00:00:00 10.50417 C 90.2583 % 8.98 C
599 31-10-2004 00:00:00 10.9848 C 82.0720 % 8.05 C
600 01-11-2004 00:00:00 9.905 C 78.6833 % 6.38 C
Sensor: Nr:Datum:Temp:Feuchte:Taupunkt:
Aussen-T/F 601 02-11-2004 00:00:00 10.325 C 80.0667 % 7.04 C
602 03-11-2004 00:00:00 10.58917 C 88.1667 % 8.71 C
603 04-11-2004 00:00:00 10.43417 C 93.4417 % 9.42 C
604 05-11-2004 00:00:00 8.9725 C 76.3917 % 5.05 C
605 06-11-2004 00:00:00 7.45417 C 84.7250 % 5.05 C
606 07-11-2004 00:00:00 5.835 C 89.5417 % 4.25 C
607 08-11-2004 00:00:00 3.9825 C 92.0750 % 2.82 C
608 09-11-2004 00:00:00 2.1375 C 87.1083 % 0.22 C
609 10-11-2004 00:00:00 1.37667 C 93.5083 % 0.45 C
610 11-11-2004 00:00:00 3.1563 C 86.1681 % 1.07 C
611 12-11-2004 00:00:00 4.21333 C 82.0917 % 1.44 C
612 13-11-2004 00:00:00 4.75583 C 80.5083 % 1.7 C
613 14-11-2004 00:00:00 3.52333 C 80.9833 % 0.57 C
614 15-11-2004 00:00:00 2.90583 C 84.4000 % 0.54 C
615 16-11-2004 00:00:00 6.5475 C 78.0750 % 3.01 C
616 17-11-2004 00:00:00 9.91917 C 75.4000 % 5.78 C
617 18-11-2004 00:00:00 9.40583 C 79.1750 % 5.99 C
618 19-11-2004 00:00:00 3.91083 C 71.1417 % -0.83 C
619 20-11-2004 00:00:00 2.23583 C 60.8500 % -4.52 C
620 21-11-2004 00:00:00 0.33333 C 76.7833 % -3.25 C
621 22-11-2004 00:00:00 8.65583 C 79.0000 % 5.22 C
622 23-11-2004 00:00:00 7.97563 C 83.1429 % 5.3 C
623 24-11-2004 00:00:00 1.78417 C 86.8750 % -0.16 C
624 25-11-2004 00:00:00 -0.49667 C 85.4500 % -2.63 C
625 26-11-2004 00:00:00 3.6775 C 76.6000 % -0.04 C
Sensor: Nr:Datum:Temp:Feuchte:Taupunkt:
Aussen-T/F 626 27-11-2004 00:00:00 7.69167 C 78.5583 % 4.21 C
627 28-11-2004 00:00:00 8.34417 C 72.1833 % 3.64 C
628 29-11-2004 00:00:00 5.86583 C 78.1750 % 2.36 C
629 30-11-2004 00:00:00 2.81167 C 83.5917 % 0.32 C
630 01-12-2004 00:00:00 4.71167 C 77.3333 % 1.09 C
631 02-12-2004 00:00:00 4.24333 C 74.9083 % 0.2 C
632 03-12-2004 00:00:00 3.0975 C 88.2167 % 1.34 C
633 04-12-2004 00:00:00 1.99667 C 82.7417 % -0.62 C
634 05-12-2004 00:00:00 1.255 C 78.9750 % -1.98 C
635 06-12-2004 00:00:00 4.54622 C 80.5546 % 1.5 C
636 07-12-2004 00:00:00 4.37667 C 74.4250 % 0.24 C
637 08-12-2004 00:00:00 5.02833 C 73.5417 % 0.7 C
638 09-12-2004 00:00:00 -0.1025 C 80.9083 % -2.98 C
639 10-12-2004 00:00:00 -3.5675 C 86.2917 % -5.52 C
640 11-12-2004 00:00:00 -2.575 C 86.5500 % -4.5 C
641 12-12-2004 00:00:00 -1.58833 C 74.9583 % -5.44 C
642 13-12-2004 00:00:00 -1.33917 C 73.0333 % -5.54 C
643 14-12-2004 00:00:00 -2.87083 C 78.6333 % -6.06 C
644 15-12-2004 00:00:00 -3.50917 C 86.1167 % -5.49 C
645 16-12-2004 00:00:00 -0.65333 C 87.2000 % -2.51 C
646 17-12-2004 00:00:00 5.17667 C 81.4083 % 2.26 C
647 18-12-2004 00:00:00 3.6479 C 74.2605 % -0.5 C
648 19-12-2004 00:00:00 1.25083 C 80.6333 % -1.7 C
649 20-12-2004 00:00:00 -2.95667 C 82.7583 % -5.47 C
650 21-12-2004 00:00:00 -6.37167 C 79.9333 % -9.26 C
Sensor: Nr:Datum:Temp:Feuchte:Taupunkt:
Aussen-T/F 651 22-12-2004 00:00:00 -1.36667 C 78.1500 % -4.67 C
652 23-12-2004 00:00:00 5.19667 C 80.9000 % 2.19 C
653 24-12-2004 00:00:00 8.21833 C 76.9750 % 4.43 C
654 25-12-2004 00:00:00 6.31333 C 74.3000 % 2.09 C
655 26-12-2004 00:00:00 1.5975 C 85.4417 % -0.57 C
656 27-12-2004 00:00:00 1.34167 C 69.8583 % -3.54 C
657 28-12-2004 00:00:00 0.25917 C 76.1000 % -3.44 C
658 29-12-2004 00:00:00 2.37333 C 83.4250 % -0.14 C
659 30-12-2004 00:00:00 3.3325 C 76.1083 % -0.46 C
660 31-12-2004 00:00:00 6.41333 C 80.2417 % 3.26 C
661 01-01-2005 00:00:00 7.80171 C 76.6923 % 3.97 C
662 02-01-2005 00:00:00 5.9225 C 61.2917 % -0.94 C
663 03-01-2005 00:00:00 4.92521 C 68.6387 % -0.35 C
664 04-01-2005 00:00:00 5.78083 C 68.9083 % 0.53 C
665 05-01-2005 00:00:00 4.83917 C 78.0167 % 1.34 C
666 06-01-2005 00:00:00 6.5425 C 76.7333 % 2.76 C
667 07-01-2005 00:00:00 10.02917 C 65.2917 % 3.83 C
668 08-01-2005 00:00:00 9.30079 C 57.8254 % 1.43 C
669 09-01-2005 00:00:00 6.9625 C 63.9583 % 0.62 C
670 10-01-2005 00:00:00 10.83083 C 62.5833 % 3.98 C
671 11-01-2005 00:00:00 9.06807 C 66.8824 % 3.25 C
672 12-01-2005 00:00:00 8.70833 C 71.3333 % 3.82 C
673 13-01-2005 00:00:00 4.19917 C 67.5083 % -1.27 C
674 14-01-2005 00:00:00 1.69333 C 77.4417 % -1.82 C
675 15-01-2005 00:00:00 -0.22583 C 81.1000 % -3.07 C
Sensor: Nr:Datum:Temp:Feuchte:Taupunkt:
Aussen-T/F 676 16-01-2005 00:00:00 -2.78333 C 81.7083 % -5.47 C
677 17-01-2005 00:00:00 2.64583 C 78.6250 % -0.69 C
678 18-01-2005 00:00:00 4.8275 C 77.3583 % 1.21 C
679 19-01-2005 00:00:00 3.46917 C 73.5167 % -0.81 C
680 20-01-2005 00:00:00 8.7 C 71.8833 % 3.92 C
681 21-01-2005 00:00:00 6.0475 C 55.7333 % -2.12 C
682 22-01-2005 00:00:00 3.84167 C 68.3500 % -1.44 C
683 23-01-2005 00:00:00 2.245 C 76.4083 % -1.46 C
684 24-01-2005 00:00:00 -0.1275 C 69.0083 % -5.12 C
685 25-01-2005 00:00:00 -1.08333 C 61.7917 % -7.47 C
686 26-01-2005 00:00:00 -0.69496 C 54.8571 % -8.63 C
687 27-01-2005 00:00:00 -2.94167 C 67.1250 % -8.17 C
688 28-01-2005 00:00:00 -0.65417 C 72.5083 % -4.97 C
689 29-01-2005 00:00:00 -3.79333 C 69.2500 % -8.59 C
690 30-01-2005 00:00:00 -1.29083 C 69.3667 % -6.17 C
691 31-01-2005 00:00:00 3.05083 C 82.3083 % 0.34 C
692 01-02-2005 00:00:00 3.62917 C 74.6333 % -0.45 C
693 02-02-2005 00:00:00 4.28417 C 82.6250 % 1.6 C
694 03-02-2005 00:00:00 5.17 C 78.2833 % 1.71 C
695 04-02-2005 00:00:00 2.60917 C 79.2583 % -0.61 C
696 05-02-2005 00:00:00 -0.30583 C 67.3833 % -5.6 C
697 06-02-2005 00:00:00 0.64333 C 59.0917 % -6.41 C
698 07-02-2005 00:00:00 -0.38034 C 66.2137 % -5.9 C
699 08-02-2005 00:00:00 -0.04333 C 79.4917 % -3.16 C
700 09-02-2005 00:00:00 1.38333 C 79.0000 % -1.85 C
Sensor: Nr:Datum:Temp:Feuchte:Taupunkt:
Aussen-T/F 701 10-02-2005 00:00:00 5.81917 C 73.1167 % 1.39 C
702 11-02-2005 00:00:00 8.145 C 79.2250 % 4.77 C
703 12-02-2005 00:00:00 9.7825 C 74.4333 % 5.46 C
704 13-02-2005 00:00:00 3.3175 C 69.3917 % -1.74 C
705 14-02-2005 00:00:00 1.97917 C 80.3750 % -1.03 C
706 15-02-2005 00:00:00 0.3958 C 73.7731 % -3.73 C
707 16-02-2005 00:00:00 -0.49083 C 65.7250 % -6.11 C
708 17-02-2005 00:00:00 -0.4075 C 61.2333 % -6.95 C
709 18-02-2005 00:00:00 -0.81333 C 58.3083 % -7.96 C
710 19-02-2005 00:00:00 0.64583 C 79.5583 % -2.47 C
711 20-02-2005 00:00:00 1.39083 C 79.6250 % -1.74 C
712 21-02-2005 00:00:00 1.055 C 78.7250 % -2.22 C
713 22-02-2005 00:00:00 -0.25196 C 63.7353 % -6.28 C
714 23-02-2005 00:00:00 -1.68333 C 69.4722 % -6.52 C
715 24-02-2005 00:00:00 -1.31111 C 65.5972 % -6.91 C
716 25-02-2005 00:00:00 -2.17778 C 65.8750 % -7.69 C
717 26-02-2005 00:00:00 -0.5 C 73.8889 % -4.57 C
718 27-02-2005 00:00:00 -3.63472 C 60.6528 % -10.12 C
719 28-02-2005 00:00:00 -6.9625 C 55.3333 % -14.39 C
720 01-03-2005 00:00:00 -5.96528 C 43.6806 % -16.32 C
721 02-03-2005 00:00:00 -1.48056 C 40.0000 % -13.31 C
722 03-03-2005 00:00:00 -0.1375 C 45.3750 % -10.53 C
723 04-03-2005 00:00:00 -0.27982 C 55.5965 % -8.07 C
724 05-03-2005 00:00:00 -0.07014 C 66.0417 % -5.64 C
725 06-03-2005 00:00:00 -1.81042 C 53.8611 % -9.91 C
Sensor: Nr:Datum:Temp:Feuchte:Taupunkt:
Aussen-T/F 726 07-03-2005 00:00:00 1.11888 C 68.0140 % -4.11 C
727 08-03-2005 00:00:00 3.91111 C 74.5903 % -0.18 C
728 09-03-2005 00:00:00 3.77708 C 78.4028 % 0.38 C
729 10-03-2005 00:00:00 4.05347 C 63.5486 % -2.22 C
730 11-03-2005 00:00:00 2.94028 C 66.2986 % -2.71 C
731 12-03-2005 00:00:00 2.99514 C 68.1111 % -2.3 C
732 13-03-2005 00:00:00 4.81528 C 53.3264 % -3.86 C
733 14-03-2005 00:00:00 5.70208 C 49.5069 % -4.02 C
734 15-03-2005 00:00:00 7.14306 C 51.8542 % -2.07 C
735 16-03-2005 00:00:00 12.97083 C 51.4653 % 3.21 C
736 17-03-2005 00:00:00 14.52308 C 53.6783 % 5.25 C
737 18-03-2005 00:00:00 14.71528 C 59.9583 % 7.03 C
738 19-03-2005 00:00:00 13.49931 C 71.6736 % 8.49 C
739 20-03-2005 00:00:00 11.45278 C 54.7986 % 2.69 C
740 21-03-2005 00:00:00 9.87917 C 48.8819 % -0.35 C
741 22-03-2005 00:00:00 11.33056 C 50.6389 % 1.47 C
742 23-03-2005 00:00:00 14.70556 C 65.3611 % 8.28 C
743 24-03-2005 00:00:00 12.16597 C 72.2639 % 7.33 C
744 25-03-2005 00:00:00 13.2875 C 72.5556 % 8.47 C
745 26-03-2005 00:00:00 12.16515 C 71.1288 % 7.1 C
746 27-03-2005 00:00:00 12.68783 C 83.8783 % 10.04 C
747 28-03-2005 00:00:00 12.38833 C 79.1583 % 8.88 C
748 29-03-2005 00:00:00 13.05 C 72.0417 % 8.13 C
749 30-03-2005 00:00:00 11.45917 C 85.4333 % 9.1 C
750 31-03-2005 00:00:00 11.39 C 68.8250 % 5.88 C
Sensor: Nr:Datum:Temp:Feuchte:Taupunkt:
Aussen-T/F 751 01-04-2005 00:00:00 10.41583 C 46.5667 % -0.52 C
752 02-04-2005 00:00:00 10.82167 C 47.0083 % -0.02 C
753 03-04-2005 00:00:00 12.61333 C 47.7583 % 1.84 C
754 04-04-2005 00:00:00 13.35333 C 49.8917 % 3.13 C
755 05-04-2005 00:00:00 11.55833 C 62.0167 % 4.54 C
756 06-04-2005 00:00:00 10.38083 C 63.8500 % 3.84 C
757 07-04-2005 00:00:00 12.06833 C 59.4083 % 4.41 C
758 08-04-2005 00:00:00 7.8825 C 77.3417 % 4.17 C
759 09-04-2005 00:00:00 5.93277 C 58.7059 % -1.52 C
760 10-04-2005 00:00:00 7.76583 C 67.4667 % 2.13 C
761 11-04-2005 00:00:00 10.6825 C 66.2750 % 4.66 C
762 12-04-2005 00:00:00 11.34333 C 66.3167 % 5.3 C
763 13-04-2005 00:00:00 12.79833 C 60.5917 % 5.38 C
764 14-04-2005 00:00:00 13.26 C 58.4667 % 5.3 C
765 15-04-2005 00:00:00 12.42583 C 64.6167 % 5.95 C
766 16-04-2005 00:00:00 10.05167 C 81.7333 % 7.08 C
767 17-04-2005 00:00:00 11.35583 C 81.7333 % 8.35 C
768 18-04-2005 00:00:00 14.87083 C 62.1667 % 7.7 C
769 19-04-2005 00:00:00 9.63167 C 88.5667 % 7.84 C
770 20-04-2005 00:00:00 9.0325 C 79.3083 % 5.65 C
771 21-04-2005 00:00:00 8.66134 C 54.7479 % 0.08 C
772 22-04-2005 00:00:00 10.07 C 49.4583 % -0.01 C
773 23-04-2005 00:00:00 10.6975 C 61.0833 % 3.51 C
774 24-04-2005 00:00:00 14.47 C 71.4417 % 9.37 C
775 25-04-2005 00:00:00 13.27583 C 85.5000 % 10.9 C
Sensor: Nr:Datum:Temp:Feuchte:Taupunkt:
Aussen-T/F 776 26-04-2005 00:00:00 13.5575 C 70.0000 % 8.2 C
777 27-04-2005 00:00:00 13.41667 C 63.3500 % 6.6 C
778 28-04-2005 00:00:00 13.73417 C 57.6750 % 5.55 C
779 29-04-2005 00:00:00 16.11 C 71.3333 % 10.92 C
780 30-04-2005 00:00:00 20.35917 C 61.9500 % 12.83 C
781 01-05-2005 00:00:00 21.73417 C 55.5833 % 12.46 C
782 02-05-2005 00:00:00 20.5605 C 54.6555 % 11.12 C
783 03-05-2005 00:00:00 17.2475 C 66.8500 % 11.04 C
784 04-05-2005 00:00:00 12.76667 C 84.8250 % 10.28 C
785 05-05-2005 00:00:00 12.50167 C 61.8167 % 5.39 C
786 06-05-2005 00:00:00 11.26583 C 62.7917 % 4.44 C
787 07-05-2005 00:00:00 8.97167 C 75.9833 % 4.97 C
788 08-05-2005 00:00:00 7.88333 C 73.4417 % 3.44 C
789 09-05-2005 00:00:00 8.5025 C 68.2583 % 3 C
790 10-05-2005 00:00:00 9.0275 C 61.5500 % 2.05 C
791 11-05-2005 00:00:00 10.67 C 57.1500 % 2.55 C
792 12-05-2005 00:00:00 12.34917 C 54.1333 % 3.35 C
793 13-05-2005 00:00:00 13.33583 C 48.9417 % 2.84 C
794 14-05-2005 00:00:00 11.34917 C 86.9917 % 9.26 C
795 15-05-2005 00:00:00 10.61176 C 72.2689 % 5.83 C
796 16-05-2005 00:00:00 12.49 C 67.3167 % 6.61 C
797 17-05-2005 00:00:00 10.19 C 68.1000 % 4.58 C
798 18-05-2005 00:00:00 9.50333 C 59.0833 % 1.92 C
799 19-05-2005 00:00:00 13.98667 C 50.5750 % 3.9 C
800 20-05-2005 00:00:00 18.82 C 48.6167 % 7.77 C
Sensor: Nr:Datum:Temp:Feuchte:Taupunkt:
Aussen-T/F 801 21-05-2005 00:00:00 17.09333 C 72.4083 % 12.1 C
802 22-05-2005 00:00:00 16.69167 C 69.7500 % 11.14 C
803 23-05-2005 00:00:00 15.47 C 66.7750 % 9.33 C
804 24-05-2005 00:00:00 15.2125 C 57.4750 % 6.88 C
805 25-05-2005 00:00:00 20.55083 C 50.8167 % 10.02 C
806 26-05-2005 00:00:00 23.19417 C 50.7500 % 12.43 C
807 27-05-2005 00:00:00 25.4563 C 47.6723 % 13.54 C
808 28-05-2005 00:00:00 25.91333 C 48.8500 % 14.33 C
809 29-05-2005 00:00:00 24.1375 C 45.5333 % 11.64 C
810 30-05-2005 00:00:00 14.91167 C 80.5667 % 11.6 C
811 31-05-2005 00:00:00 14.53333 C 57.9500 % 6.36 C
812 01-06-2005 00:00:00 15.82667 C 53.3167 % 6.36 C
813 02-06-2005 00:00:00 18.09167 C 53.5583 % 8.53 C
814 03-06-2005 00:00:00 20.99667 C 58.9583 % 12.67 C
815 04-06-2005 00:00:00 16.485 C 61.0250 % 8.95 C
816 05-06-2005 00:00:00 14.8025 C 61.1167 % 7.39 C
817 06-06-2005 00:00:00 15.25917 C 59.7750 % 7.5 C
818 07-06-2005 00:00:00 12.26 C 46.3583 % 1.1 C
819 08-06-2005 00:00:00 13.41429 C 53.6723 % 4.22 C
820 09-06-2005 00:00:00 15.84167 C 49.5917 % 5.33 C
821 10-06-2005 00:00:00 16.15833 C 51.7500 % 6.24 C
822 11-06-2005 00:00:00 14.58 C 49.1583 % 4.05 C
823 12-06-2005 00:00:00 14.0525 C 51.8333 % 4.31 C
824 13-06-2005 00:00:00 17.27833 C 44.7333 % 5.16 C
825 14-06-2005 00:00:00 16.55583 C 60.6500 % 8.93 C
Sensor: Nr:Datum:Temp:Feuchte:Taupunkt:
Aussen-T/F 826 15-06-2005 00:00:00 20.05167 C 58.3500 % 11.63 C
827 16-06-2005 00:00:00 21.46833 C 48.2167 % 10.07 C
828 17-06-2005 00:00:00 21.405 C 64.8917 % 14.53 C
829 18-06-2005 00:00:00 25.12583 C 46.0750 % 12.72 C
830 19-06-2005 00:00:00 24.75417 C 36.1083 % 8.73 C
831 20-06-2005 00:00:00 25.94538 C 41.2857 % 11.79 C
832 21-06-2005 00:00:00 26.24583 C 44.1417 % 13.08 C
833 22-06-2005 00:00:00 24.59333 C 41.9833 % 10.83 C
834 23-06-2005 00:00:00 25.40417 C 42.0500 % 11.58 C
835 24-06-2005 00:00:00 27.67167 C 39.7417 % 12.75 C
836 25-06-2005 00:00:00 24.93083 C 53.8750 % 14.95 C
837 26-06-2005 00:00:00 23.99833 C 53.9000 % 14.09 C
838 27-06-2005 00:00:00 25.26083 C 46.1167 % 12.86 C
839 28-06-2005 00:00:00 26.35917 C 40.1000 % 11.72 C
840 29-06-2005 00:00:00 23.065 C 62.9083 % 15.62 C
841 30-06-2005 00:00:00 20.43667 C 70.3917 % 14.87 C
842 01-07-2005 00:00:00 18.08083 C 71.9750 % 12.95 C
843 02-07-2005 00:00:00 19.26807 C 74.1765 % 14.56 C
844 03-07-2005 00:00:00 24.03333 C 60.5250 % 15.93 C
845 04-07-2005 00:00:00 21.58833 C 60.0917 % 13.52 C
846 05-07-2005 00:00:00 17.17083 C 49.4250 % 6.5 C
847 06-07-2005 00:00:00 16.24167 C 66.5750 % 10.02 C
848 07-07-2005 00:00:00 14.92 C 74.1750 % 10.37 C
849 08-07-2005 00:00:00 16.17583 C 68.9333 % 10.47 C
850 09-07-2005 00:00:00 19.5375 C 58.5083 % 11.19 C
Sensor: Nr:Datum:Temp:Feuchte:Taupunkt:
Aussen-T/F 851 10-07-2005 00:00:00 22.93917 C 52.6583 % 12.75 C
852 11-07-2005 00:00:00 23.77333 C 50.4500 % 12.87 C
853 12-07-2005 00:00:00 23.70667 C 55.3750 % 14.24 C
854 13-07-2005 00:00:00 25.555 C 48.8500 % 14.01 C
855 14-07-2005 00:00:00 25.76723 C 51.5462 % 15.03 C
856 15-07-2005 00:00:00 25.0575 C 51.5417 % 14.38 C
857 16-07-2005 00:00:00 23.73917 C 53.4583 % 13.73 C
858 17-07-2005 00:00:00 23.48167 C 44.8750 % 10.83 C
859 18-07-2005 00:00:00 22.98917 C 50.5583 % 12.18 C
860 19-07-2005 00:00:00 19.165 C 61.4250 % 11.57 C
861 20-07-2005 00:00:00 17.92333 C 58.8667 % 9.77 C
862 21-07-2005 00:00:00 16.6875 C 58.3833 % 8.49 C
863 22-07-2005 00:00:00 17.13833 C 59.9250 % 9.3 C
864 23-07-2005 00:00:00 17.69 C 50.6583 % 7.34 C
865 24-07-2005 00:00:00 17.87167 C 73.8250 % 13.14 C
866 25-07-2005 00:00:00 20.895 C 64.5167 % 13.96 C
867 26-07-2005 00:00:00 20.33361 C 61.0000 % 12.57 C
868 27-07-2005 00:00:00 23.76 C 61.3083 % 15.87 C
869 28-07-2005 00:00:00 25.00583 C 63.7250 % 17.65 C
870 29-07-2005 00:00:00 23.18917 C 66.9750 % 16.72 C
871 30-07-2005 00:00:00 20.03083 C 65.7167 % 13.42 C
872 31-07-2005 00:00:00 17.3425 C 72.6917 % 12.39 C
873 01-08-2005 00:00:00 19.36167 C 66.0333 % 12.86 C
874 02-08-2005 00:00:00 19.71 C 53.9167 % 10.12 C
875 03-08-2005 00:00:00 18.86917 C 55.2500 % 9.71 C
Sensor: Nr:Datum:Temp:Feuchte:Taupunkt:
Aussen-T/F 876 04-08-2005 00:00:00 17.4025 C 58.4917 % 9.19 C
877 05-08-2005 00:00:00 16.13083 C 71.8250 % 11.05 C
878 06-08-2005 00:00:00 16.02 C 66.0083 % 9.68 C
879 07-08-2005 00:00:00 13.69412 C 68.4706 % 8 C
880 08-08-2005 00:00:00 14.66667 C 70.6500 % 9.4 C
881 09-08-2005 00:00:00 16.6775 C 60.2583 % 8.95 C
882 10-08-2005 00:00:00 16.66083 C 52.9333 % 7.03 C
883 11-08-2005 00:00:00 17.4125 C 63.9500 % 10.53 C
884 12-08-2005 00:00:00 18.20917 C 72.7750 % 13.24 C
885 13-08-2005 00:00:00 18.01833 C 57.5000 % 9.51 C
886 14-08-2005 00:00:00 15.59833 C 79.0417 % 11.98 C
887 15-08-2005 00:00:00 14.56583 C 88.2417 % 12.64 C
888 16-08-2005 00:00:00 19.1575 C 67.6917 % 13.04 C
889 17-08-2005 00:00:00 20.12333 C 61.6083 % 12.52 C
890 18-08-2005 00:00:00 22.1825 C 58.2167 % 13.59 C
891 19-08-2005 00:00:00 21.06975 C 68.0588 % 14.95 C
892 20-08-2005 00:00:00 19.5825 C 63.5417 % 12.48 C
893 21-08-2005 00:00:00 17.13083 C 77.8500 % 13.24 C
894 22-08-2005 00:00:00 18.24 C 75.6917 % 13.88 C
895 23-08-2005 00:00:00 19.4425 C 68.1167 % 13.41 C
896 24-08-2005 00:00:00 18.79417 C 64.0500 % 11.86 C
897 25-08-2005 00:00:00 16.47333 C 71.7333 % 11.36 C
898 26-08-2005 00:00:00 15.255 C 66.1000 % 8.97 C
899 27-08-2005 00:00:00 16.45083 C 64.5083 % 9.74 C
900 28-08-2005 00:00:00 17.84083 C 61.5000 % 10.35 C
Sensor: Nr:Datum:Temp:Feuchte:Taupunkt:
Aussen-T/F 901 29-08-2005 00:00:00 19.6675 C 59.4833 % 11.56 C
902 30-08-2005 00:00:00 21.65667 C 57.4083 % 12.88 C
903 31-08-2005 00:00:00 23.08403 C 55.8655 % 13.8 C
904 01-09-2005 00:00:00 22.76917 C 59.9583 % 14.59 C
905 02-09-2005 00:00:00 21.29917 C 64.1240 % 14.25 C
906 03-09-2005 00:00:00 22.07899 C 57.4622 % 13.29 C
907 04-09-2005 00:00:00 21.90417 C 55.0083 % 12.46 C
908 05-09-2005 00:00:00 21.3675 C 50.7250 % 10.74 C
909 06-09-2005 00:00:00 20.89417 C 58.8167 % 12.54 C
910 07-09-2005 00:00:00 22.66167 C 56.7417 % 13.64 C
911 08-09-2005 00:00:00 23.19833 C 58.3917 % 14.58 C
912 09-09-2005 00:00:00 21.58833 C 66.9583 % 15.19 C
913 10-09-2005 00:00:00 21.80833 C 66.0417 % 15.19 C
914 11-09-2005 00:00:00 18.13 C 89.9083 % 16.45 C
915 12-09-2005 00:00:00 16.6975 C 91.7750 % 15.35 C
916 13-09-2005 00:00:00 17.45833 C 71.4333 % 12.24 C
917 14-09-2005 00:00:00 16.755 C 70.2083 % 11.3 C
918 15-09-2005 00:00:00 20.13361 C 65.1765 % 13.39 C
919 16-09-2005 00:00:00 15.17311 C 74.6975 % 10.72 C
920 17-09-2005 00:00:00 11.81667 C 63.3083 % 5.08 C
921 18-09-2005 00:00:00 11.7875 C 64.8917 % 5.41 C
922 19-09-2005 00:00:00 12.0719 C 62.3967 % 5.11 C
923 20-09-2005 00:00:00 12.19583 C 66.2750 % 6.1 C
924 21-09-2005 00:00:00 13.40667 C 65.8333 % 7.15 C
925 22-09-2005 00:00:00 13.94833 C 67.3750 % 8.01 C
Sensor: Nr:Datum:Temp:Feuchte:Taupunkt:
Aussen-T/F 926 23-09-2005 00:00:00 14.84667 C 68.8083 % 9.18 C
927 24-09-2005 00:00:00 15.92583 C 70.7250 % 10.62 C
928 25-09-2005 00:00:00 17.7325 C 69.2917 % 12.04 C
929 26-09-2005 00:00:00 16.44083 C 67.6000 % 10.43 C
930 27-09-2005 00:00:00 17.605 C 57.1571 % 9.03 C
931 28-09-2005 00:00:00 15.42917 C 67.5417 % 9.46 C
932 29-09-2005 00:00:00 12.91254 C 70.3659 % 7.66 C
933 30-09-2005 00:00:00 12.29549 C 64.7639 % 5.86 C
934 01-10-2005 00:00:00 12.61701 C 87.6771 % 10.63 C
935 02-10-2005 00:00:00 10.70833 C 86.1250 % 8.49 C
936 03-10-2005 00:00:00 11.3875 C 83.3819 % 8.67 C
937 04-10-2005 00:00:00 14.26864 C 74.5958 % 9.82 C
938 05-10-2005 00:00:00 16.7441 C 72.6597 % 11.81 C
939 06-10-2005 00:00:00 16.68194 C 72.2708 % 11.67 C
940 07-10-2005 00:00:00 14.36563 C 76.8229 % 10.36 C
941 08-10-2005 00:00:00 13.06285 C 81.6875 % 10.01 C
942 09-10-2005 00:00:00 14.51049 C 78.2972 % 10.78 C
943 10-10-2005 00:00:00 15.84132 C 72.8993 % 10.99 C
944 11-10-2005 00:00:00 13.49444 C 78.7674 % 9.88 C
945 12-10-2005 00:00:00 13.54549 C 77.6875 % 9.73 C
946 13-10-2005 00:00:00 12.36181 C 78.1493 % 8.67 C
947 14-10-2005 00:00:00 11.9951 C 78.1469 % 8.31 C
948 15-10-2005 00:00:00 11.45174 C 79.6771 % 8.07 C
949 16-10-2005 00:00:00 10.83472 C 74.6632 % 6.52 C
950 17-10-2005 00:00:00 8.28194 C 67.9167 % 2.72 C
Sensor: Nr:Datum:Temp:Feuchte:Taupunkt:
Aussen-T/F 951 18-10-2005 00:00:00 8.65749 C 62.2822 % 1.86 C
952 19-10-2005 00:00:00 7.00417 C 82.2535 % 4.19 C
953 20-10-2005 00:00:00 11.25382 C 89.2708 % 9.55 C
954 21-10-2005 00:00:00 14.43681 C 83.5174 % 11.68 C
955 22-10-2005 00:00:00 15.54896 C 76.8021 % 11.5 C
956 23-10-2005 00:00:00 14.24321 C 74.8014 % 9.84 C
957 24-10-2005 00:00:00 12.10545 C 78.5000 % 8.48 C
958 25-10-2005 00:00:00 15.69143 C 65.7286 % 9.3 C
959 26-10-2005 00:00:00 16.07417 C 70.0667 % 10.62 C
960 27-10-2005 00:00:00 14.98583 C 78.1250 % 11.21 C
961 28-10-2005 00:00:00 16.07721 C 72.5221 % 11.14 C
962 29-10-2005 00:00:00 13.94583 C 75.9653 % 9.78 C
963 30-10-2005 00:00:00 12.71467 C 78.3867 % 9.05 C
964 31-10-2005 00:00:00 13.11667 C 71.0764 % 8 C
965 01-11-2005 00:00:00 12.41319 C 78.1181 % 8.71 C
966 02-11-2005 00:00:00 10.43819 C 87.5278 % 8.46 C
967 03-11-2005 00:00:00 14.78403 C 78.9306 % 11.17 C
968 04-11-2005 00:00:00 13.39444 C 85.8750 % 11.08 C
969 05-11-2005 00:00:00 8.99792 C 79.7361 % 5.69 C
970 06-11-2005 00:00:00 9.96224 C 78.1189 % 6.33 C
971 07-11-2005 00:00:00 8.03611 C 86.5347 % 5.93 C
972 08-11-2005 00:00:00 10.35903 C 77.0208 % 6.51 C
973 09-11-2005 00:00:00 7.83194 C 86.7222 % 5.76 C
974 10-11-2005 00:00:00 9.97639 C 76.8889 % 6.12 C
975 11-11-2005 00:00:00 9.26736 C 82.5208 % 6.45 C
Sensor: Nr:Datum:Temp:Feuchte:Taupunkt:
Aussen-T/F 976 12-11-2005 00:00:00 7.83611 C 73.2778 % 3.36 C
977 13-11-2005 00:00:00 9.98542 C 79.1181 % 6.54 C
978 14-11-2005 00:00:00 7.76458 C 80.0625 % 4.55 C
979 15-11-2005 00:00:00 6.09931 C 81.0417 % 3.1 C
980 16-11-2005 00:00:00 5.71806 C 81.8125 % 2.86 C
981 17-11-2005 00:00:00 4.69231 C 73.1049 % 0.3 C
982 18-11-2005 00:00:00 3.75903 C 75.9583 % -0.08 C
983 19-11-2005 00:00:00 1.67431 C 81.9583 % -1.07 C
984 20-11-2005 00:00:00 1.75625 C 85.0069 % -0.49 C
985 21-11-2005 00:00:00 4.09236 C 87.1319 % 2.15 C
986 22-11-2005 00:00:00 -0.87778 C 86.8194 % -2.79 C
987 23-11-2005 00:00:00 0.84861 C 80.0347 % -2.19 C
988 24-11-2005 00:00:00 2.37778 C 81.2431 % -0.5 C
989 25-11-2005 00:00:00 1.54167 C 66.6111 % -3.98 C
990 26-11-2005 00:00:00 2.46111 C 57.2569 % -5.11 C
991 27-11-2005 00:00:00 2.30979 C 77.3497 % -1.24 C
992 28-11-2005 00:00:00 1.92847 C 86.3819 % -0.1 C
993 29-11-2005 00:00:00 2.30694 C 78.1597 % -1.1 C
994 30-11-2005 00:00:00 2.00069 C 72.1736 % -2.47 C
995 01-12-2005 00:00:00 0.41875 C 70.7847 % -4.25 C
996 02-12-2005 00:00:00 0.22153 C 68.6319 % -4.85 C
997 03-12-2005 00:00:00 3.82708 C 79.6736 % 0.65 C
998 04-12-2005 00:00:00 7.05417 C 86.6528 % 4.98 C
999 05-12-2005 00:00:00 6.35208 C 77.8194 % 2.77 C
1000 06-12-2005 00:00:00 4.99583 C 75.7986 % 1.09 C
Sensor: Nr:Datum:Temp:Feuchte:Taupunkt:
Aussen-T/F 1001 07-12-2005 00:00:00 4.93706 C 82.1049 % 2.15 C
1002 08-12-2005 00:00:00 4.74653 C 77.5625 % 1.17 C
1003 09-12-2005 00:00:00 3.66458 C 81.8681 % 0.86 C
1004 10-12-2005 00:00:00 -0.92292 C 83.1944 % -3.41 C
1005 11-12-2005 00:00:00 -2.30069 C 83.9444 % -4.64 C
1006 12-12-2005 00:00:00 1.72847 C 87.2986 % -0.15 C
1007 13-12-2005 00:00:00 1.28472 C 92.7847 % 0.25 C
1008 14-12-2005 00:00:00 3.84028 C 91.8333 % 2.64 C
1009 15-12-2005 00:00:00 5.59167 C 78.3056 % 2.12 C
1010 16-12-2005 00:00:00 6.09861 C 72.6806 % 1.57 C
1011 17-12-2005 00:00:00 1.45035 C 70.9371 % -3.23 C
1012 18-12-2005 00:00:00 1.59861 C 73.3194 % -2.65 C
1013 19-12-2005 00:00:00 1.45417 C 78.4097 % -1.88 C
1014 20-12-2005 00:00:00 2.75347 C 79.2917 % -0.47 C
1015 21-12-2005 00:00:00 2.23194 C 76.9375 % -1.38 C
1016 22-12-2005 00:00:00 2.96875 C 85.4097 % 0.77 C
1017 23-12-2005 00:00:00 4.89653 C 82.7917 % 2.22 C
1018 24-12-2005 00:00:00 5.93264 C 77.0069 % 2.22 C
1019 25-12-2005 00:00:00 4.13958 C 81.0000 % 1.18 C
1020 26-12-2005 00:00:00 1.48403 C 78.4444 % -1.85 C
1021 27-12-2005 00:00:00 -1.47413 C 77.3566 % -4.91 C
1022 28-12-2005 00:00:00 -1.48681 C 77.2708 % -4.94 C
1023 29-12-2005 00:00:00 -2.85486 C 75.2569 % -6.61 C
1024 30-12-2005 00:00:00 -3.14514 C 71.5139 % -7.55 C
1025 31-12-2005 00:00:00 2.82361 C 83.9167 % 0.38 C
Sensor: Nr:Datum:Temp:Feuchte:Taupunkt:
Aussen-T/F 1026 01-01-2006 00:00:00 3.86319 C 80.7986 % 0.87 C
1027 02-01-2006 00:00:00 3.13125 C 82.2292 % 0.4 C
1028 03-01-2006 00:00:00 2.31597 C 78.1181 % -1.09 C
1029 04-01-2006 00:00:00 0.29583 C 75.4722 % -3.52 C
1030 05-01-2006 00:00:00 1.24306 C 69.3125 % -3.74 C
1031 06-01-2006 00:00:00 -0.25035 C 84.0909 % -2.61 C
1032 07-01-2006 00:00:00 2.66181 C 76.3472 % -1.07 C
1033 08-01-2006 00:00:00 2.09653 C 69.7292 % -2.84 C
1034 09-01-2006 00:00:00 -2.41736 C 79.9028 % -5.4 C
1035 10-01-2006 00:00:00 -1.51736 C 74.5139 % -5.45 C
1036 11-01-2006 00:00:00 -1.95903 C 83.9931 % -4.3 C
1037 12-01-2006 00:00:00 1.79583 C 91.4167 % 0.55 C
1038 13-01-2006 00:00:00 0.35972 C 77.1736 % -3.16 C
1039 14-01-2006 00:00:00 -3.27639 C 81.0486 % -6.06 C
1040 15-01-2006 00:00:00 -4.27153 C 71.5972 % -8.62 C
1041 16-01-2006 00:00:00 -4.78951 C 74.9231 % -8.54 C
1042 17-01-2006 00:00:00 1.90278 C 82.2778 % -0.79 C
1043 18-01-2006 00:00:00 3.8125 C 80.9097 % 0.84 C
1044 19-01-2006 00:00:00 1.43403 C 88.2847 % -0.29 C
1045 20-01-2006 00:00:00 6.2375 C 81.4514 % 3.3 C
1046 21-01-2006 00:00:00 4.58889 C 79.2153 % 1.31 C
1047 22-01-2006 00:00:00 1.08125 C 75.4792 % -2.76 C
1048 23-01-2006 00:00:00 -5.20417 C 57.7500 % -12.22 C
1049 24-01-2006 00:00:00 -5.83542 C 60.0278 % -12.33 C
1050 25-01-2006 00:00:00 -3.80833 C 70.4028 % -8.39 C
Sensor: Nr:Datum:Temp:Feuchte:Taupunkt:
Aussen-T/F 1051 26-01-2006 00:00:00 -2.11818 C 75.5804 % -5.84 C
1052 27-01-2006 00:00:00 -5.44236 C 67.7083 % -10.46 C
1053 28-01-2006 00:00:00 -6.67986 C 73.7917 % -10.57 C
1054 29-01-2006 00:00:00 -6.29792 C 75.7847 % -9.86 C
1055 30-01-2006 00:00:00 -5.95139 C 76.4583 % -9.41 C
1056 31-01-2006 00:00:00 -3.30486 C 81.0486 % -6.08 C
1057 01-02-2006 00:00:00 -5.48333 C 76.7708 % -8.91 C
1058 02-02-2006 00:00:00 -6.16667 C 77.1875 % -9.5 C
1059 03-02-2006 00:00:00 -3.79931 C 73.2639 % -7.87 C
1060 04-02-2006 00:00:00 -0.85208 C 79.0833 % -4.01 C
1061 05-02-2006 00:00:00 -0.32867 C 80.5385 % -3.26 C
1062 06-02-2006 00:00:00 1.50903 C 87.5069 % -0.33 C
1063 07-02-2006 00:00:00 3.74861 C 78.2778 % 0.33 C
1064 08-02-2006 00:00:00 3.70208 C 79.3681 % 0.47 C
1065 09-02-2006 00:00:00 2.29722 C 71.0347 % -2.4 C
1066 10-02-2006 00:00:00 2.10979 C 75.6573 % -1.73 C
1067 11-02-2006 00:00:00 1.21458 C 76.3333 % -2.48 C
1068 12-02-2006 00:00:00 1.60694 C 59.3264 % -5.45 C
1069 13-02-2006 00:00:00 2.60764 C 51.3056 % -6.41 C
1070 14-02-2006 00:00:00 4.21597 C 65.9931 % -1.56 C
1071 15-02-2006 00:00:00 6.17832 C 78.6503 % 2.75 C
1072 16-02-2006 00:00:00 7.31736 C 78.7361 % 3.88 C
1073 17-02-2006 00:00:00 6.0625 C 69.8264 % 0.98 C
1074 18-02-2006 00:00:00 5.81389 C 71.1806 % 1.01 C
1075 19-02-2006 00:00:00 7.08472 C 63.6875 % 0.68 C
Sensor: Nr:Datum:Temp:Feuchte:Taupunkt:
Aussen-T/F 1076 20-02-2006 00:00:00 4.17917 C 82.0833 % 1.4 C
1077 21-02-2006 00:00:00 3.04444 C 85.2778 % 0.82 C
1078 22-02-2006 00:00:00 2.47639 C 63.4306 % -3.74 C
1079 23-02-2006 00:00:00 1.36736 C 51.0972 % -7.61 C
1080 24-02-2006 00:00:00 2.05972 C 51.5556 % -6.86 C
1081 25-02-2006 00:00:00 0.46364 C 49.9441 % -8.74 C
1082 26-02-2006 00:00:00 -1.08472 C 54.7569 % -9.02 C
1083 27-02-2006 00:00:00 -1.57569 C 73.5556 % -5.67 C
1084 28-02-2006 00:00:00 1.56806 C 74.7222 % -2.42 C
1085 01-03-2006 00:00:00 0.10556 C 62.5347 % -6.18 C
1086 02-03-2006 00:00:00 -0.25347 C 58.0208 % -7.5 C
1087 03-03-2006 00:00:00 -0.44722 C 76.3542 % -4.09 C
1088 04-03-2006 00:00:00 -0.87361 C 76.9583 % -4.4 C
1089 05-03-2006 00:00:00 -1.41944 C 71.3958 % -5.91 C
1090 06-03-2006 00:00:00 1.2125 C 63.4028 % -4.95 C
1091 07-03-2006 00:00:00 2.11748 C 58.0559 % -5.25 C
1092 08-03-2006 00:00:00 0.99722 C 76.8681 % -2.59 C
1093 09-03-2006 00:00:00 8.02431 C 80.0278 % 4.8 C
1094 10-03-2006 00:00:00 5.79931 C 65.2292 % -0.21 C
1095 11-03-2006 00:00:00 1.7 C 78.7431 % -1.59 C
1096 12-03-2006 00:00:00 -2.45556 C 48.6389 % -11.79 C
1097 13-03-2006 00:00:00 -1.82553 C 48.5319 % -11.23 C
1098 14-03-2006 00:00:00 -0.25972 C 49.0556 % -9.65 C
1099 15-03-2006 00:00:00 1.33333 C 52.9028 % -7.2 C
1100 16-03-2006 00:00:00 2.07292 C 47.3819 % -7.93 C
Sensor: Nr:Datum:Temp:Feuchte:Taupunkt:
Aussen-T/F 1101 17-03-2006 00:00:00 2.75175 C 55.5804 % -5.23 C
1102 18-03-2006 00:00:00 3.75069 C 54.9097 % -4.46 C
1103 19-03-2006 00:00:00 4.88056 C 58.3125 % -2.6 C
1104 20-03-2006 00:00:00 4.13542 C 67.3194 % -1.37 C
1105 21-03-2006 00:00:00 3.42222 C 81.9583 % 0.64 C
1106 22-03-2006 00:00:00 4.52708 C 53.6250 % -4.05 C
1107 23-03-2006 00:00:00 4.85694 C 42.2431 % -6.88 C
1108 24-03-2006 00:00:00 5.28125 C 72.6944 % 0.79 C
1109 25-03-2006 00:00:00 12.04861 C 73.4722 % 7.46 C
1110 26-03-2006 00:00:00 15.02826 C 70.6014 % 9.73 C
1111 27-03-2006 00:00:00 14.96319 C 65.9653 % 8.66 C
1112 28-03-2006 00:00:00 11.67273 C 58.3427 % 3.78 C
1113 29-03-2006 00:00:00 9.22222 C 64.5972 % 2.91 C
1114 30-03-2006 00:00:00 11.31181 C 74.3958 % 6.93 C
1115 31-03-2006 00:00:00 12.225 C 72.0278 % 7.34 C
1116 01-04-2006 00:00:00 10.95 C 73.5000 % 6.4 C
1117 02-04-2006 00:00:00 10.30347 C 70.0139 % 5.08 C
1118 03-04-2006 00:00:00 9.04444 C 59.5694 % 1.6 C
1119 04-04-2006 00:00:00 7.89306 C 52.4444 % -1.22 C
1120 05-04-2006 00:00:00 5.38542 C 52.9722 % -3.42 C
1121 06-04-2006 00:00:00 5.62847 C 53.2986 % -3.11 C
1122 07-04-2006 00:00:00 7.78112 C 45.3077 % -3.3 C
1123 08-04-2006 00:00:00 8.88681 C 43.5556 % -2.82 C
1124 09-04-2006 00:00:00 9.54931 C 44.2083 % -2.02 C
1125 10-04-2006 00:00:00 7.99444 C 45.0903 % -3.17 C
Sensor: Nr:Datum:Temp:Feuchte:Taupunkt:
Aussen-T/F 1126 11-04-2006 00:00:00 6.56528 C 48.5486 % -3.49 C
1127 12-04-2006 00:00:00 7.39167 C 68.7431 % 2.04 C
1128 13-04-2006 00:00:00 7.97014 C 70.1458 % 2.87 C
1129 14-04-2006 00:00:00 11.28681 C 69.8889 % 6 C
1130 15-04-2006 00:00:00 12.20486 C 68.7569 % 6.64 C
1131 16-04-2006 00:00:00 12.37986 C 67.1319 % 6.46 C
1132 17-04-2006 00:00:00 11.4 C 73.4483 % 6.83 C
1133 18-04-2006 00:00:00 10.37986 C 64.7431 % 4.04 C
1134 19-04-2006 00:00:00 11.18264 C 53.6181 % 2.13 C
1135 20-04-2006 00:00:00 12.16528 C 53.8681 % 3.11 C
1136 21-04-2006 00:00:00 14.47622 C 51.1818 % 4.52 C
1137 22-04-2006 00:00:00 13.62014 C 59.7708 % 5.95 C
1138 23-04-2006 00:00:00 10.87639 C 60.5208 % 3.55 C
1139 24-04-2006 00:00:00 15.40833 C 49.6806 % 4.96 C
1140 25-04-2006 00:00:00 17.60972 C 48.4097 % 6.6 C
1141 26-04-2006 00:00:00 15.22778 C 77.2014 % 11.26 C
1142 27-04-2006 00:00:00 12.53611 C 77.8889 % 8.79 C
1143 28-04-2006 00:00:00 10.85 C 57.9861 % 2.92 C
1144 29-04-2006 00:00:00 7.53194 C 57.0208 % -0.42 C
1145 30-04-2006 00:00:00 6.51389 C 73.2361 % 2.08 C
1146 01-05-2006 00:00:00 8.32727 C 78.6224 % 4.84 C
1147 02-05-2006 00:00:00 15.08819 C 58.3333 % 6.98 C
1148 03-05-2006 00:00:00 18.44931 C 51.7500 % 8.35 C
1149 04-05-2006 00:00:00 19.40278 C 48.7500 % 8.35 C
1150 05-05-2006 00:00:00 20.21389 C 40.2639 % 6.29 C
Sensor: Nr:Datum:Temp:Feuchte:Taupunkt:
Aussen-T/F 1151 06-05-2006 00:00:00 18.90069 C 40.1528 % 5.07 C
1152 07-05-2006 00:00:00 19.45486 C 32.7431 % 2.67 C
1153 08-05-2006 00:00:00 18.61667 C 38.7639 % 4.32 C
1154 09-05-2006 00:00:00 18.27431 C 43.1111 % 5.53 C
1155 10-05-2006 00:00:00 18.83194 C 52.4583 % 8.9 C
1156 11-05-2006 00:00:00 19.10629 C 41.6573 % 5.79 C
1157 12-05-2006 00:00:00 18.74583 C 41.6250 % 5.45 C
1158 13-05-2006 00:00:00 16.36944 C 68.5000 % 10.56 C
1159 14-05-2006 00:00:00 15.00278 C 67.3889 % 9.02 C
1160 15-05-2006 00:00:00 16.62986 C 62.0417 % 9.33 C
1161 16-05-2006 00:00:00 19.50347 C 57.7083 % 10.95 C
1162 17-05-2006 00:00:00 17.91736 C 63.6319 % 10.93 C
1163 18-05-2006 00:00:00 18.00347 C 66.8125 % 11.75 C
1164 19-05-2006 00:00:00 14.40347 C 67.9306 % 8.56 C
1165 20-05-2006 00:00:00 12.56853 C 70.9510 % 7.45 C
1166 21-05-2006 00:00:00 15.07431 C 59.1181 % 7.16 C
1167 22-05-2006 00:00:00 15.73472 C 66.6875 % 9.56 C
1168 23-05-2006 00:00:00 12.35556 C 61.3403 % 5.14 C
1169 24-05-2006 00:00:00 10.91667 C 67.0833 % 5.06 C
1170 25-05-2006 00:00:00 11.81736 C 78.7292 % 8.25 C
1171 26-05-2006 00:00:00 13.58681 C 86.6736 % 11.41 C
1172 27-05-2006 00:00:00 16.75972 C 76.8194 % 12.67 C
1173 28-05-2006 00:00:00 16.35 C 61.0833 % 8.84 C
1174 29-05-2006 00:00:00 12.47431 C 65.2222 % 6.13 C
1175 30-05-2006 00:00:00 9.24792 C 72.9167 % 4.65 C
Sensor: Nr:Datum:Temp:Feuchte:Taupunkt:
Aussen-T/F 1176 31-05-2006 00:00:00 9.13776 C 73.2378 % 4.61 C
1177 01-06-2006 00:00:00 9.43819 C 72.6111 % 4.77 C
1178 02-06-2006 00:00:00 13.68056 C 57.9028 % 5.55 C
1179 03-06-2006 00:00:00 13.95278 C 62.5972 % 6.94 C
1180 04-06-2006 00:00:00 14.34514 C 56.2153 % 5.75 C
1181 05-06-2006 00:00:00 14.45764 C 48.9236 % 3.87 C
1182 06-06-2006 00:00:00 14.33472 C 52.1736 % 4.67 C
1183 07-06-2006 00:00:00 16.37431 C 50.4375 % 6.06 C
1184 08-06-2006 00:00:00 19.21736 C 47.1528 % 7.69 C
1185 09-06-2006 00:00:00 21.24306 C 44.0486 % 8.53 C
1186 10-06-2006 00:00:00 22.62098 C 44.0909 % 9.79 C
1187 11-06-2006 00:00:00 23.39653 C 41.6181 % 9.63 C
1188 12-06-2006 00:00:00 23.62431 C 39.0417 % 8.88 C
1189 13-06-2006 00:00:00 25.05625 C 41.5694 % 11.1 C
1190 14-06-2006 00:00:00 25.71667 C 45.2500 % 12.98 C
1191 15-06-2006 00:00:00 22.39653 C 65.5625 % 15.63 C
1192 16-06-2006 00:00:00 19.19792 C 55.7847 % 10.16 C
1193 17-06-2006 00:00:00 19.55139 C 51.1806 % 9.2 C
1194 18-06-2006 00:00:00 22.94931 C 53.8958 % 13.12 C
1195 19-06-2006 00:00:00 22.18819 C 69.5069 % 16.35 C
1196 20-06-2006 00:00:00 22.95524 C 61.4545 % 15.15 C
1197 21-06-2006 00:00:00 22.61597 C 50.7083 % 11.88 C
1198 22-06-2006 00:00:00 18.87222 C 48.0069 % 7.64 C
1199 23-06-2006 00:00:00 18.88681 C 46.7847 % 7.27 C
1200 24-06-2006 00:00:00 22.39792 C 44.8889 % 9.85 C
Sensor: Nr:Datum:Temp:Feuchte:Taupunkt:
Aussen-T/F 1201 25-06-2006 00:00:00 23.4375 C 59.6806 % 15.15 C
1202 26-06-2006 00:00:00 21.99097 C 62.9306 % 14.61 C
1203 27-06-2006 00:00:00 19.64028 C 68.8958 % 13.78 C
1204 28-06-2006 00:00:00 21.16111 C 56.4931 % 12.18 C
1205 29-06-2006 00:00:00 21.06319 C 61.7639 % 13.45 C
1206 30-06-2006 00:00:00 23.44545 C 54.3636 % 13.71 C
1207 01-07-2006 00:00:00 24.6875 C 45.1667 % 12.02 C
1208 02-07-2006 00:00:00 25.27986 C 40.4722 % 10.89 C
1209 03-07-2006 00:00:00 25.22083 C 37.2431 % 9.6 C
1210 04-07-2006 00:00:00 26.70278 C 40.3472 % 12.12 C
1211 05-07-2006 00:00:00 26.28681 C 50.0000 % 15.04 C
1212 06-07-2006 00:00:00 24.85278 C 53.4514 % 14.75 C
1213 07-07-2006 00:00:00 22.81528 C 60.5972 % 14.8 C
1214 08-07-2006 00:00:00 22.68958 C 64.4375 % 15.64 C
1215 09-07-2006 00:00:00 23.57778 C 54.2222 % 13.79 C
1216 10-07-2006 00:00:00 25.03147 C 46.3217 % 12.72 C
1217 11-07-2006 00:00:00 23.91181 C 60.4097 % 15.78 C
1218 12-07-2006 00:00:00 25.55625 C 56.7014 % 16.33 C
1219 13-07-2006 00:00:00 26.02986 C 53.8125 % 15.95 C
1220 14-07-2006 00:00:00 24.71389 C 39.6181 % 10.07 C
1221 15-07-2006 00:00:00 23.42431 C 36.3125 % 7.64 C
1222 16-07-2006 00:00:00 24.37639 C 36.4306 % 8.53 C
1223 17-07-2006 00:00:00 25.54792 C 32.9375 % 8.07 C
1224 18-07-2006 00:00:00 26.24722 C 36.4167 % 10.17 C
1225 19-07-2006 00:00:00 27.43125 C 34.5278 % 10.41 C
Sensor: Nr:Datum:Temp:Feuchte:Taupunkt:
Aussen-T/F 1226 20-07-2006 00:00:00 28.02797 C 34.3287 % 10.85 C
1227 21-07-2006 00:00:00 28.09306 C 42.0208 % 13.98 C
1228 22-07-2006 00:00:00 24.58125 C 56.4722 % 15.36 C
1229 23-07-2006 00:00:00 26.09375 C 53.8333 % 16.01 C
1230 24-07-2006 00:00:00 27.19236 C 42.8819 % 13.49 C
1231 25-07-2006 00:00:00 28.08194 C 39.4583 % 13.01 C
1232 26-07-2006 00:00:00 28.25208 C 43.0347 % 14.49 C
1233 27-07-2006 00:00:00 25.83403 C 58.4653 % 17.07 C
1234 28-07-2006 00:00:00 22.68264 C 71.0417 % 17.16 C
1235 29-07-2006 00:00:00 24.07431 C 61.8681 % 16.31 C
1236 30-07-2006 00:00:00 24.48392 C 54.2867 % 14.65 C
1237 31-07-2006 00:00:00 23.2375 C 49.1250 % 11.97 C
1238 01-08-2006 00:00:00 20.05625 C 59.2222 % 11.86 C
1239 02-08-2006 00:00:00 16.51667 C 70.6181 % 11.16 C
1240 03-08-2006 00:00:00 15.56111 C 74.0556 % 10.96 C
1241 04-08-2006 00:00:00 19.03056 C 63.9792 % 12.06 C
1242 05-08-2006 00:00:00 20.59514 C 59.8750 % 12.53 C
1243 06-08-2006 00:00:00 21.40694 C 57.9097 % 12.78 C
1244 07-08-2006 00:00:00 21.93056 C 52.0903 % 11.66 C
1245 08-08-2006 00:00:00 19.79583 C 57.9236 % 11.28 C
1246 09-08-2006 00:00:00 19.08322 C 56.9301 % 10.35 C
1247 10-08-2006 00:00:00 15.04792 C 75.2917 % 10.71 C
1248 11-08-2006 00:00:00 14.23611 C 79.6181 % 10.77 C
1249 12-08-2006 00:00:00 15.08958 C 67.4375 % 9.11 C
1250 13-08-2006 00:00:00 14.64514 C 73.1250 % 9.89 C
Sensor: Nr:Datum:Temp:Feuchte:Taupunkt:
Aussen-T/F 1251 14-08-2006 00:00:00 14.16319 C 79.2569 % 10.63 C
1252 15-08-2006 00:00:00 17.63333 C 68.3472 % 11.74 C
1253 16-08-2006 00:00:00 17.65 C 72.2708 % 12.6 C
1254 17-08-2006 00:00:00 20.9 C 64.7083 % 14.01 C
1255 18-08-2006 00:00:00 19.10208 C 71.6042 % 13.85 C
1256 19-08-2006 00:00:00 18.77343 C 71.1538 % 13.44 C
1257 20-08-2006 00:00:00 18.10972 C 70.0486 % 12.57 C
1258 21-08-2006 00:00:00 16.97292 C 71.1042 % 11.7 C
1259 22-08-2006 00:00:00 16.96389 C 71.2083 % 11.72 C
1260 23-08-2006 00:00:00 17.71319 C 67.9097 % 11.72 C
1261 24-08-2006 00:00:00 16.95139 C 73.1319 % 12.11 C
1262 25-08-2006 00:00:00 16.57778 C 77.9583 % 12.72 C
1263 26-08-2006 00:00:00 16.86528 C 73.5278 % 12.11 C
1264 27-08-2006 00:00:00 15.83681 C 81.0903 % 12.6 C
1265 28-08-2006 00:00:00 13.83264 C 83.5069 % 11.09 C
1266 29-08-2006 00:00:00 12.56713 C 78.3776 % 8.91 C
1267 30-08-2006 00:00:00 13.16111 C 79.2083 % 9.64 C
1268 31-08-2006 00:00:00 15.10417 C 68.2222 % 9.3 C
1269 01-09-2006 00:00:00 20.10139 C 56.7569 % 11.26 C
1270 02-09-2006 00:00:00 20.75 C 60.9375 % 12.94 C
1271 03-09-2006 00:00:00 21.75069 C 63.3472 % 14.48 C
1272 04-09-2006 00:00:00 22.06389 C 53.2778 % 12.12 C
1273 05-09-2006 00:00:00 19.96458 C 65.4931 % 13.31 C
1274 06-09-2006 00:00:00 21.68819 C 64.5556 % 14.72 C
1275 07-09-2006 00:00:00 19.05694 C 69.9861 % 13.46 C
Sensor: Nr:Datum:Temp:Feuchte:Taupunkt:
Aussen-T/F 1276 08-09-2006 00:00:00 16.55874 C 57.0420 % 8.03 C
1277 09-09-2006 00:00:00 16.56458 C 58.0556 % 8.29 C
1278 10-09-2006 00:00:00 18.675 C 57.2986 % 10.07 C
1279 11-09-2006 00:00:00 20.64722 C 62.3194 % 13.19 C
1280 12-09-2006 00:00:00 22.28889 C 61.6111 % 14.56 C
1281 13-09-2006 00:00:00 22.18819 C 60.9028 % 14.29 C
1282 14-09-2006 00:00:00 21.21806 C 60.5139 % 13.28 C
1283 15-09-2006 00:00:00 21.27273 C 55.2448 % 11.94 C
1284 16-09-2006 00:00:00 21.06759 C 63.4345 % 13.86 C
1285 17-09-2006 00:00:00 18.62986 C 79.3681 % 14.99 C
1286 18-09-2006 00:00:00 17.15903 C 84.1319 % 14.46 C
1287 19-09-2006 00:00:00 16.75278 C 74.6875 % 12.24 C
1288 20-09-2006 00:00:00 16.65139 C 67.8472 % 10.69 C
1289 21-09-2006 00:00:00 18.26806 C 66.8542 % 12.01 C
1290 22-09-2006 00:00:00 20.87413 C 58.1049 % 12.34 C
1291 23-09-2006 00:00:00 20.17361 C 65.3958 % 13.48 C
1292 24-09-2006 00:00:00 21.00903 C 62.0903 % 13.48 C
1293 25-09-2006 00:00:00 18.50486 C 70.6181 % 13.07 C
1294 26-09-2006 00:00:00 17.03056 C 78.1181 % 13.19 C
1295 27-09-2006 00:00:00 17.04444 C 70.2708 % 11.59 C
1296 28-09-2006 00:00:00 16.01042 C 71.9583 % 10.96 C
1297 29-09-2006 00:00:00 17.325 C 72.5556 % 12.35 C
1298 30-09-2006 00:00:00 17.09583 C 73.3889 % 12.3 C
1299 01-10-2006 00:00:00 17.24406 C 78.0420 % 13.38 C
1300 02-10-2006 00:00:00 15.91042 C 70.7361 % 10.61 C
Sensor: Nr:Datum:Temp:Feuchte:Taupunkt:
Aussen-T/F 1301 03-10-2006 00:00:00 13.2126 C 91.0787 % 11.79 C
1302 04-10-2006 00:00:00 13.01961 C 75.9020 % 8.87 C
1303 05-10-2006 00:00:00 12.97647 C 69.9020 % 7.62 C
1304 06-10-2006 00:00:00 15.82353 C 71.0196 % 10.58 C
1305 07-10-2006 00:00:00 14.25769 C 67.4231 % 8.31 C
1306 08-10-2006 00:00:00 11.08235 C 74.4706 % 6.72 C
1307 09-10-2006 00:00:00 12.00192 C 76.5385 % 8.01 C
1308 10-10-2006 00:00:00 15.38824 C 74.9020 % 10.96 C
1309 11-10-2006 00:00:00 14.37885 C 78.2692 % 10.65 C
1310 12-10-2006 00:00:00 15.54118 C 79.4314 % 12 C
1311 13-10-2006 00:00:00 16.11765 C 81.6863 % 12.99 C
1312 14-10-2006 00:00:00 14.12115 C 74.8654 % 9.73 C
1313 15-10-2006 00:00:00 12.41569 C 74.7255 % 8.06 C
1314 16-10-2006 00:00:00 9.56154 C 77.7500 % 5.87 C
1315 17-10-2006 00:00:00 9.22745 C 79.4510 % 5.86 C
1316 18-10-2006 00:00:00 11.90769 C 76.0000 % 7.82 C
1317 19-10-2006 00:00:00 13.41961 C 81.9608 % 10.4 C
1318 20-10-2006 00:00:00 15.83725 C 73.4706 % 11.11 C
1319 21-10-2006 00:00:00 14.08553 C 83.7763 % 11.39 C
1320 22-10-2006 00:00:00 15.405 C 72.5583 % 10.5 C
1321 23-10-2006 00:00:00 17.22 C 75.0667 % 12.77 C
1322 24-10-2006 00:00:00 14.19167 C 78.3917 % 10.49 C
1323 25-10-2006 00:00:00 12.59167 C 76.4167 % 8.56 C
1324 26-10-2006 00:00:00 16.50583 C 67.1000 % 10.39 C
1325 27-10-2006 00:00:00 17.075 C 71.8000 % 11.95 C
Sensor: Nr:Datum:Temp:Feuchte:Taupunkt:
Aussen-T/F 1326 28-10-2006 00:00:00 15.02083 C 78.7583 % 11.36 C
1327 29-10-2006 00:00:00 15.9896 C 64.5200 % 9.31 C
1328 30-10-2006 00:00:00 12.1575 C 72.2500 % 7.32 C
1329 31-10-2006 00:00:00 10.23529 C 75.0084 % 6.01 C
1330 01-11-2006 00:00:00 7.77167 C 60.1417 % 0.54 C
1331 02-11-2006 00:00:00 3.03 C 84.9667 % 0.76 C
1332 03-11-2006 00:00:00 5.84333 C 82.5583 % 3.11 C
1333 04-11-2006 00:00:00 8.15833 C 76.7250 % 4.32 C
1334 05-11-2006 00:00:00 9.14833 C 69.3500 % 3.84 C
1335 06-11-2006 00:00:00 9.06833 C 72.1083 % 4.32 C
1336 07-11-2006 00:00:00 7.04083 C 78.7083 % 3.6 C
1337 08-11-2006 00:00:00 7.96417 C 78.6750 % 4.49 C
1338 09-11-2006 00:00:00 9.81917 C 71.2583 % 4.87 C
1339 10-11-2006 00:00:00 5.04917 C 82.0000 % 2.24 C
1340 11-11-2006 00:00:00 6.26667 C 81.6333 % 3.36 C
1341 12-11-2006 00:00:00 7.62353 C 71.2689 % 2.76 C
1342 13-11-2006 00:00:00 8.9025 C 80.9667 % 5.82 C
1343 14-11-2006 00:00:00 12.84083 C 80.6667 % 9.6 C
1344 15-11-2006 00:00:00 12.90167 C 71.9083 % 7.96 C
1345 16-11-2006 00:00:00 13.12 C 68.9333 % 7.55 C
1346 17-11-2006 00:00:00 12.54333 C 73.7833 % 8 C
1347 18-11-2006 00:00:00 9.73917 C 74.8750 % 5.5 C
1348 19-11-2006 00:00:00 7.74083 C 90.8417 % 6.34 C
1349 20-11-2006 00:00:00 6.5725 C 73.3000 % 2.15 C
1350 21-11-2006 00:00:00 8.63583 C 75.3667 % 4.53 C
Sensor: Nr:Datum:Temp:Feuchte:Taupunkt:
Aussen-T/F 1351 22-11-2006 00:00:00 6.01833 C 73.1000 % 1.57 C
1352 23-11-2006 00:00:00 9.36083 C 85.5500 % 7.07 C
1353 24-11-2006 00:00:00 10.1775 C 85.9250 % 7.93 C
1354 25-11-2006 00:00:00 14.79583 C 59.9083 % 7.09 C
1355 26-11-2006 00:00:00 10.72917 C 75.8000 % 6.64 C
1356 27-11-2006 00:00:00 8.08083 C 88.9417 % 6.37 C
1357 28-11-2006 00:00:00 7.2775 C 87.7083 % 5.38 C
1358 29-11-2006 00:00:00 7.40583 C 93.7250 % 6.46 C
1359 30-11-2006 00:00:00 6.29167 C 86.6333 % 4.23 C
1360 01-12-2006 00:00:00 5.935 C 88.5667 % 4.19 C
1361 02-12-2006 00:00:00 4.37083 C 94.4917 % 3.57 C
1362 03-12-2006 00:00:00 10.00583 C 74.0833 % 5.61 C
1363 04-12-2006 00:00:00 10.05042 C 67.0252 % 4.22 C
1364 05-12-2006 00:00:00 14.25917 C 61.2333 % 6.91 C
1365 06-12-2006 00:00:00 10.42667 C 63.2417 % 3.75 C
1366 07-12-2006 00:00:00 8.7025 C 61.2917 % 1.68 C
1367 08-12-2006 00:00:00 10.0975 C 64.9750 % 3.82 C
1368 09-12-2006 00:00:00 7.6075 C 60.8583 % 0.55 C
1369 10-12-2006 00:00:00 5.27833 C 69.8167 % 0.23 C
1370 11-12-2006 00:00:00 5.05583 C 69.5083 % -0.05 C
1371 12-12-2006 00:00:00 6.37333 C 71.1083 % 1.53 C
1372 13-12-2006 00:00:00 6.9775 C 70.3000 % 1.95 C
1373 14-12-2006 00:00:00 7.83083 C 66.0500 % 1.9 C
1374 15-12-2006 00:00:00 3.2075 C 77.6417 % -0.31 C
1375 16-12-2006 00:00:00 4.14333 C 81.4000 % 1.25 C
Sensor: Nr:Datum:Temp:Feuchte:Taupunkt:
Aussen-T/F 1376 17-12-2006 00:00:00 3.69333 C 80.4833 % 0.66 C
1377 18-12-2006 00:00:00 3.37917 C 88.2417 % 1.62 C
1378 19-12-2006 00:00:00 3.70083 C 66.5750 % -1.93 C
1379 20-12-2006 00:00:00 2.3425 C 72.1750 % -2.14 C
1380 21-12-2006 00:00:00 4.7375 C 78.9667 % 1.41 C
1381 22-12-2006 00:00:00 1.65 C 85.3750 % -0.53 C
1382 23-12-2006 00:00:00 3.19244 C 74.2437 % -0.94 C
1383 24-12-2006 00:00:00 0.1725 C 87.6417 % -1.63 C
1384 25-12-2006 00:00:00 0.51583 C 82.6333 % -2.09 C
1385 26-12-2006 00:00:00 0.8425 C 76.5833 % -2.79 C
1386 27-12-2006 00:00:00 -1.28667 C 78.6167 % -4.52 C
1387 28-12-2006 00:00:00 0.405 C 77.8667 % -3 C
1388 29-12-2006 00:00:00 1.22333 C 87.1833 % -0.67 C
1389 30-12-2006 00:00:00 3.5575 C 82.8833 % 0.93 C
1390 31-12-2006 00:00:00 10.37107 C 53.7521 % 1.41 C
1391 01-01-2007 00:00:00 7.99664 C 65.7647 % 1.99 C
1392 02-01-2007 00:00:00 4.33083 C 73.7417 % 0.07 C
1393 03-01-2007 00:00:00 5.63417 C 74.5750 % 1.48 C
1394 04-01-2007 00:00:00 7.7525 C 65.5417 % 1.71 C
1395 05-01-2007 00:00:00 8.08667 C 68.4750 % 2.65 C
1396 06-01-2007 00:00:00 10.50333 C 74.0333 % 6.08 C
1397 07-01-2007 00:00:00 8.5725 C 60.7083 % 1.42 C
1398 08-01-2007 00:00:00 9.32667 C 63.8583 % 2.84 C
1399 09-01-2007 00:00:00 13.04333 C 62.1750 % 5.98 C
1400 10-01-2007 00:00:00 11.54333 C 54.4917 % 2.7 C
Sensor: Nr:Datum:Temp:Feuchte:Taupunkt:
Aussen-T/F 1401 11-01-2007 00:00:00 7.61933 C 57.5210 % -0.22 C
1402 12-01-2007 00:00:00 9.0325 C 55.6833 % 0.66 C
1403 13-01-2007 00:00:00 11.8175 C 58.2833 % 3.9 C
1404 14-01-2007 00:00:00 7.55833 C 57.9083 % -0.18 C
1405 15-01-2007 00:00:00 0.8725 C 84.4250 % -1.45 C
1406 16-01-2007 00:00:00 5.06583 C 71.8000 % 0.41 C
1407 17-01-2007 00:00:00 10.18333 C 63.6917 % 3.62 C
1408 18-01-2007 00:00:00 12.41833 C 66.3917 % 6.34 C
1409 19-01-2007 00:00:00 10.36667 C 64.5917 % 3.99 C
1410 20-01-2007 00:00:00 11.68917 C 61.5333 % 4.55 C
1411 21-01-2007 00:00:00 6.88167 C 50.7667 % -2.6 C
1412 22-01-2007 00:00:00 4.26167 C 58.4417 % -3.15 C
1413 23-01-2007 00:00:00 -1.075 C 26.8500 % -17.75 C
1414 24-01-2007 00:00:00 -2.97 C 47.0250 % -12.68 C
1415 25-01-2007 00:00:00 -3.4521 C 59.1176 % -10.27 C
1416 26-01-2007 00:00:00 -3.23083 C 57.8750 % -10.33 C
1417 27-01-2007 00:00:00 2.77 C 66.9667 % -2.74 C
1418 28-01-2007 00:00:00 4.49917 C 64.0417 % -1.7 C
1419 29-01-2007 00:00:00 7.0175 C 67.6667 % 1.46 C
1420 30-01-2007 00:00:00 6.84917 C 67.8167 % 1.33 C
1421 31-01-2007 00:00:00 6.82583 C 54.6000 % -1.67 C
1422 01-02-2007 00:00:00 7.76667 C 69.7000 % 2.59 C
1423 02-02-2007 00:00:00 8.26583 C 81.2917 % 5.26 C
1424 03-02-2007 00:00:00 6.285 C 63.1833 % -0.19 C
1425 04-02-2007 00:00:00 5.90667 C 65.6500 % -0.02 C
Sensor: Nr:Datum:Temp:Feuchte:Taupunkt:
Aussen-T/F 1426 05-02-2007 00:00:00 2.19664 C 75.8319 % -1.61 C
1427 06-02-2007 00:00:00 3.33417 C 66.7250 % -2.25 C
1428 07-02-2007 00:00:00 1.63417 C 76.0667 % -2.12 C
1429 08-02-2007 00:00:00 2.62167 C 73.0167 % -1.72 C
1430 09-02-2007 00:00:00 5.79167 C 53.6250 % -2.87 C
1431 10-02-2007 00:00:00 5.48667 C 76.0500 % 1.61 C
1432 11-02-2007 00:00:00 7.70667 C 70.3417 % 2.66 C
1433 12-02-2007 00:00:00 8.33083 C 66.5000 % 2.47 C
1434 13-02-2007 00:00:00 7.8175 C 58.6833 % 0.24 C
1435 14-02-2007 00:00:00 5.82083 C 71.6417 % 1.1 C
1436 15-02-2007 00:00:00 7.37917 C 55.4500 % -0.94 C
1437 16-02-2007 00:00:00 4.61583 C 63.8750 % -1.62 C
1438 17-02-2007 00:00:00 4.92083 C 57.6250 % -2.72 C
1439 18-02-2007 00:00:00 3.4775 C 70.3083 % -1.41 C
1440 19-02-2007 00:00:00 5.4675 C 61.9583 % -1.23 C
1441 20-02-2007 00:00:00 7.09583 C 59.4417 % -0.26 C
1442 21-02-2007 00:00:00 5.63083 C 70.3250 % 0.66 C
1443 22-02-2007 00:00:00 7.10583 C 66.5833 % 1.32 C
1444 23-02-2007 00:00:00 9.02333 C 62.6750 % 2.29 C
1445 24-02-2007 00:00:00 8.47917 C 77.3583 % 4.75 C
1446 25-02-2007 00:00:00 7.975 C 67.1917 % 2.27 C
1447 26-02-2007 00:00:00 6.53667 C 72.2833 % 1.92 C
1448 27-02-2007 00:00:00 6.38333 C 66.7083 % 0.65 C
1449 28-02-2007 00:00:00 10.44667 C 55.3583 % 1.9 C
1450 01-03-2007 00:00:00 9.04667 C 57.7667 % 1.18 C
Sensor: Nr:Datum:Temp:Feuchte:Taupunkt:
Aussen-T/F 1451 02-03-2007 00:00:00 6.77917 C 48.5750 % -3.28 C
1452 03-03-2007 00:00:00 6.66639 C 64.3950 % 0.44 C
1453 04-03-2007 00:00:00 7.69833 C 59.5167 % 0.33 C
1454 05-03-2007 00:00:00 10.24667 C 43.8750 % -1.49 C
1455 06-03-2007 00:00:00 9.76083 C 44.7583 % -1.66 C
1456 07-03-2007 00:00:00 9.16417 C 55.6583 % 0.77 C
1457 08-03-2007 00:00:00 7.035 C 58.5083 % -0.53 C
1458 09-03-2007 00:00:00 6.3175 C 65.3333 % 0.3 C
1459 10-03-2007 00:00:00 7.155 C 55.8417 % -1.06 C
1460 11-03-2007 00:00:00 7.3175 C 56.2167 % -0.81 C
1461 12-03-2007 00:00:00 8.52833 C 55.5500 % 0.15 C
1462 13-03-2007 00:00:00 9.0475 C 61.0417 % 1.95 C
1463 14-03-2007 00:00:00 10.57395 C 59.3109 % 2.98 C
1464 15-03-2007 00:00:00 8.44333 C 60.8833 % 1.34 C
1465 16-03-2007 00:00:00 7.8175 C 63.4417 % 1.32 C
1466 17-03-2007 00:00:00 8.70833 C 73.7500 % 4.29 C
1467 18-03-2007 00:00:00 7.715 C 67.8583 % 2.16 C
1468 19-03-2007 00:00:00 4.56333 C 60.6500 % -2.37 C
1469 20-03-2007 00:00:00 4.1325 C 69.6417 % -0.91 C
1470 21-03-2007 00:00:00 4.47417 C 69.0250 % -0.7 C
1471 22-03-2007 00:00:00 2.25667 C 91.4333 % 1.01 C
1472 23-03-2007 00:00:00 3.37333 C 87.0833 % 1.43 C
1473 24-03-2007 00:00:00 5.37333 C 89.9750 % 3.86 C
1474 25-03-2007 00:00:00 9.58345 C 60.0504 % 2.22 C
1475 26-03-2007 00:00:00 12.12049 C 48.4757 % 1.59 C
Sensor: Nr:Datum:Temp:Feuchte:Taupunkt:
Aussen-T/F 1476 27-03-2007 00:00:00 11.65 C 45.0139 % 0.14 C
1477 28-03-2007 00:00:00 11.65313 C 40.3368 % -1.36 C
1478 29-03-2007 00:00:00 9.75 C 59.7361 % 2.31 C
1479 30-03-2007 00:00:00 10.73785 C 67.5660 % 4.99 C
1480 31-03-2007 00:00:00 10.49618 C 62.8993 % 3.74 C
1481 01-04-2007 00:00:00 13.71707 C 38.0383 % -0.31 C
1482 02-04-2007 00:00:00 13.59583 C 38.9965 % -0.08 C
1483 03-04-2007 00:00:00 8.94861 C 54.7222 % 0.34 C
1484 04-04-2007 00:00:00 9.66076 C 41.8576 % -2.65 C
1485 05-04-2007 00:00:00 8.81528 C 48.7014 % -1.38 C
1486 06-04-2007 00:00:00 12.12431 C 57.7500 % 4.06 C
1487 07-04-2007 00:00:00 9.61533 C 58.8711 % 1.98 C
1488 08-04-2007 00:00:00 9.79306 C 57.8681 % 1.9 C
1489 09-04-2007 00:00:00 11.52465 C 52.8854 % 2.26 C
1490 10-04-2007 00:00:00 11.94688 C 58.9063 % 4.17 C
1491 11-04-2007 00:00:00 10.93697 C 68.9455 % 5.47 C
1492 12-04-2007 00:00:00 16.75 C 50.8021 % 6.51 C
1493 13-04-2007 00:00:00 19.17708 C 48.5625 % 8.08 C
1494 14-04-2007 00:00:00 21.16042 C 42.0417 % 7.77 C
1495 15-04-2007 00:00:00 20.80833 C 40.1354 % 6.77 C
1496 16-04-2007 00:00:00 19.4375 C 39.6042 % 5.36 C
1497 17-04-2007 00:00:00 14.74271 C 52.0417 % 5.01 C
1498 18-04-2007 00:00:00 11.07188 C 47.3542 % 0.31 C
1499 19-04-2007 00:00:00 11.67188 C 50.3021 % 1.69 C
1500 20-04-2007 00:00:00 12.26458 C 45.3438 % 0.8 C
Sensor: Nr:Datum:Temp:Feuchte:Taupunkt:
Aussen-T/F 1501 21-04-2007 00:00:00 11.89271 C 42.5313 % -0.42 C
1502 22-04-2007 00:00:00 15.65729 C 41.4792 % 2.63 C
1503 23-04-2007 00:00:00 17.48021 C 43.5104 % 4.95 C
1504 24-04-2007 00:00:00 20.85102 C 44.6939 % 8.39 C
1505 25-04-2007 00:00:00 22.135 C 44.3917 % 9.45 C
1506 26-04-2007 00:00:00 21.16 C 42.2333 % 7.83 C
1507 27-04-2007 00:00:00 20.46303 C 41.7815 % 7.05 C
1508 28-04-2007 00:00:00 20.92083 C 42.3000 % 7.64 C
1509 29-04-2007 00:00:00 19.75583 C 41.7000 % 6.39 C
1510 30-04-2007 00:00:00 16.78917 C 29.4833 % -1.1 C
1511 01-05-2007 00:00:00 16.47083 C 33.2250 % 0.26 C
1512 02-05-2007 00:00:00 16.09167 C 27.7833 % -2.5 C
1513 03-05-2007 00:00:00 17.355 C 34.8500 % 1.7 C
1514 04-05-2007 00:00:00 18.835 C 36.9750 % 3.84 C
1515 05-05-2007 00:00:00 17.5975 C 41.2167 % 4.28 C
1516 06-05-2007 00:00:00 16.51167 C 52.7083 % 6.83 C
1517 07-05-2007 00:00:00 15.5625 C 65.1083 % 9.04 C
1518 08-05-2007 00:00:00 14.1825 C 63.3750 % 7.34 C
1519 09-05-2007 00:00:00 12.76917 C 79.3667 % 9.29 C
1520 10-05-2007 00:00:00 17.70667 C 56.4917 % 8.96 C
1521 11-05-2007 00:00:00 15.535 C 49.5583 % 5.04 C
1522 12-05-2007 00:00:00 15.02689 C 61.9748 % 7.81 C
1523 13-05-2007 00:00:00 17.04333 C 61.9250 % 9.7 C
1524 14-05-2007 00:00:00 15.98917 C 57.3750 % 7.58 C
1525 15-05-2007 00:00:00 13.36917 C 64.2667 % 6.77 C
Sensor: Nr:Datum:Temp:Feuchte:Taupunkt:
Aussen-T/F 1526 16-05-2007 00:00:00 12.17917 C 70.4833 % 6.98 C
1527 17-05-2007 00:00:00 10.8525 C 80.3333 % 7.6 C
1528 18-05-2007 00:00:00 14.6325 C 65.6667 % 8.28 C
1529 19-05-2007 00:00:00 18.53583 C 65.5583 % 11.97 C
1530 20-05-2007 00:00:00 21.92667 C 50.3333 % 11.14 C
1531 21-05-2007 00:00:00 22.61667 C 56.9000 % 13.64 C
1532 22-05-2007 00:00:00 22.86667 C 57.7333 % 14.1 C
1533 23-05-2007 00:00:00 20.8675 C 62.2750 % 13.39 C
1534 24-05-2007 00:00:00 23.91417 C 52.7667 % 13.69 C
1535 25-05-2007 00:00:00 24.57059 C 52.4370 % 14.2 C
1536 26-05-2007 00:00:00 21.745 C 66.4500 % 15.22 C
1537 27-05-2007 00:00:00 17.5125 C 66.0083 % 11.1 C
1538 28-05-2007 00:00:00 12.24917 C 78.6250 % 8.65 C
1539 29-05-2007 00:00:00 11.033 C 79.0400 % 7.54 C
1540 30-05-2007 00:00:00 13.67465 C 53.2113 % 4.34 C
1541 31-05-2007 00:00:00 16.05139 C 60.5694 % 8.43 C
1542 01-06-2007 00:00:00 15.42361 C 72.7222 % 10.55 C
1543 02-06-2007 00:00:00 18.53611 C 61.9028 % 11.1 C
1544 03-06-2007 00:00:00 20.87083 C 55.5278 % 11.64 C
1545 04-06-2007 00:00:00 22.02361 C 54.5139 % 12.44 C
1546 05-06-2007 00:00:00 21.66389 C 53.7639 % 11.89 C
1547 06-06-2007 00:00:00 22.53889 C 52.9167 % 12.46 C
1548 07-06-2007 00:00:00 25.42222 C 48.2083 % 13.68 C
1549 08-06-2007 00:00:00 26.47639 C 45.6806 % 13.81 C
1550 09-06-2007 00:00:00 23.12917 C 59.2917 % 14.76 C
Sensor: Nr:Datum:Temp:Feuchte:Taupunkt:
Aussen-T/F 1551 10-06-2007 00:00:00 21.28889 C 67.3889 % 15.01 C
1552 11-06-2007 00:00:00 21.88068 C 61.7500 % 14.21 C
1553 12-06-2007 00:00:00 20.17167 C 67.6167 % 13.99 C
1554 13-06-2007 00:00:00 21.51176 C 55.0084 % 12.1 C
1555 14-06-2007 00:00:00 22.15833 C 61.9500 % 14.52 C
1556 15-06-2007 00:00:00 19.84667 C 67.7083 % 13.7 C
1557 16-06-2007 00:00:00 18.0125 C 60.5083 % 10.26 C
1558 17-06-2007 00:00:00 20.0125 C 55.6583 % 10.88 C
1559 18-06-2007 00:00:00 20.92583 C 61.5917 % 13.27 C
1560 19-06-2007 00:00:00 23.70833 C 52.2333 % 13.34 C
1561 20-06-2007 00:00:00 23.68667 C 56.3250 % 14.48 C
1562 21-06-2007 00:00:00 18.30167 C 79.4500 % 14.69 C
1563 22-06-2007 00:00:00 16.06417 C 80.0667 % 12.63 C
1564 23-06-2007 00:00:00 16.04167 C 77.3417 % 12.08 C
1565 24-06-2007 00:00:00 19.31667 C 60.3667 % 11.45 C
1566 25-06-2007 00:00:00 18.13667 C 70.1417 % 12.61 C
1567 26-06-2007 00:00:00 13.90667 C 69.6583 % 8.46 C
1568 27-06-2007 00:00:00 14.2225 C 54.2417 % 5.12 C
1569 28-06-2007 00:00:00 15.82833 C 55.1417 % 6.85 C
1570 29-06-2007 00:00:00 16.88417 C 57.8917 % 8.55 C
1571 30-06-2007 00:00:00 18.675 C 60.6167 % 10.91 C
1572 01-07-2007 00:00:00 20.8525 C 58.6250 % 12.45 C
1573 02-07-2007 00:00:00 19.54917 C 61.9417 % 12.06 C
1574 03-07-2007 00:00:00 15.42583 C 74.8000 % 10.98 C
1575 04-07-2007 00:00:00 15.17417 C 68.8833 % 9.51 C
Sensor: Nr:Datum:Temp:Feuchte:Taupunkt:
Aussen-T/F 1576 05-07-2007 00:00:00 15.1325 C 73.8417 % 10.5 C
1577 06-07-2007 00:00:00 17.63613 C 54.9244 % 8.47 C
1578 07-07-2007 00:00:00 18.55167 C 44.9917 % 6.4 C
1579 08-07-2007 00:00:00 19.8175 C 48.6833 % 8.71 C
1580 09-07-2007 00:00:00 17.15583 C 64.2500 % 10.35 C
1581 10-07-2007 00:00:00 14.66583 C 74.5750 % 10.2 C
1582 11-07-2007 00:00:00 14.37833 C 76.4917 % 10.3 C
1583 12-07-2007 00:00:00 17.7 C 64.0500 % 10.82 C
1584 13-07-2007 00:00:00 22.43167 C 59.7333 % 14.22 C
1585 14-07-2007 00:00:00 25.05 C 50.6250 % 14.09 C
1586 15-07-2007 00:00:00 27.2075 C 43.9583 % 13.88 C
1587 16-07-2007 00:00:00 26.8025 C 35.0833 % 10.1 C
1588 17-07-2007 00:00:00 25.11167 C 36.9417 % 9.38 C
1589 18-07-2007 00:00:00 22.78 C 45.3500 % 10.35 C
1590 19-07-2007 00:00:00 20.29333 C 62.6917 % 12.95 C
1591 20-07-2007 00:00:00 22.04917 C 62.3583 % 14.52 C
1592 21-07-2007 00:00:00 19.74917 C 56.9250 % 10.97 C
1593 22-07-2007 00:00:00 19.89917 C 48.4667 % 8.72 C
1594 23-07-2007 00:00:00 16.33333 C 72.9083 % 11.47 C
1595 24-07-2007 00:00:00 16.72667 C 66.6167 % 10.49 C
1596 25-07-2007 00:00:00 19.68571 C 51.9832 % 9.56 C
1597 26-07-2007 00:00:00 21.75583 C 49.0083 % 10.58 C
1598 27-07-2007 00:00:00 22.4675 C 41.3750 % 8.71 C
1599 28-07-2007 00:00:00 21.095 C 55.3500 % 11.8 C
1600 29-07-2007 00:00:00 17.3075 C 64.5750 % 10.57 C
Sensor: Nr:Datum:Temp:Feuchte:Taupunkt:
Aussen-T/F 1601 30-07-2007 00:00:00 14.66167 C 55.2500 % 5.79 C
1602 31-07-2007 00:00:00 15.68167 C 50.1833 % 5.35 C
1603 01-08-2007 00:00:00 18.53833 C 47.1417 % 7.07 C
1604 02-08-2007 00:00:00 18.3275 C 60.9417 % 10.67 C
1605 03-08-2007 00:00:00 19.78083 C 52.2667 % 9.73 C
1606 04-08-2007 00:00:00 21.05 C 48.1750 % 9.68 C
1607 05-08-2007 00:00:00 23.69833 C 42.6583 % 10.27 C
1608 06-08-2007 00:00:00 24.23417 C 42.2667 % 10.61 C
1609 07-08-2007 00:00:00 18.36167 C 80.4833 % 14.94 C
1610 08-08-2007 00:00:00 16.0175 C 80.7583 % 12.71 C
1611 09-08-2007 00:00:00 14.26667 C 94.1833 % 13.34 C
1612 10-08-2007 00:00:00 17.82833 C 88.8083 % 15.96 C
1613 11-08-2007 00:00:00 19.64083 C 65.4417 % 12.99 C
1614 12-08-2007 00:00:00 20.07417 C 58.1167 % 11.59 C
1615 13-08-2007 00:00:00 20.9175 C 55.5833 % 11.7 C
1616 14-08-2007 00:00:00 20.9275 C 52.8667 % 10.96 C
1617 15-08-2007 00:00:00 23.49917 C 61.0750 % 15.56 C
1618 16-08-2007 00:00:00 18.74667 C 65.4750 % 12.15 C
1619 17-08-2007 00:00:00 17.27833 C 54.9417 % 8.15 C
1620 18-08-2007 00:00:00 17.40917 C 54.1667 % 8.06 C
1621 19-08-2007 00:00:00 17.24583 C 67.4583 % 11.17 C
1622 20-08-2007 00:00:00 17.315 C 65.7667 % 10.85 C
1623 21-08-2007 00:00:00 15.4225 C 78.3500 % 11.68 C
1624 22-08-2007 00:00:00 15.95593 C 87.1610 % 13.82 C
1625 23-08-2007 00:00:00 17.7575 C 79.1333 % 14.1 C
Sensor: Nr:Datum:Temp:Feuchte:Taupunkt:
Aussen-T/F 1626 24-08-2007 00:00:00 19.43833 C 69.1250 % 13.63 C
1627 25-08-2007 00:00:00 21.42 C 63.4750 % 14.2 C
1628 26-08-2007 00:00:00 21.99167 C 62.3583 % 14.47 C
1629 27-08-2007 00:00:00 19.53583 C 52.5417 % 9.58 C
1630 28-08-2007 00:00:00 16.42167 C 57.9583 % 8.13 C
1631 29-08-2007 00:00:00 17.285 C 45.6083 % 5.45 C
1632 30-08-2007 00:00:00 15.3675 C 53.4750 % 5.98 C
1633 31-08-2007 00:00:00 17.5825 C 66.0167 % 11.17 C
1634 01-09-2007 00:00:00 17.1975 C 68.3833 % 11.33 C
1635 02-09-2007 00:00:00 17.35583 C 60.9167 % 9.75 C
1636 03-09-2007 00:00:00 15.74917 C 67.6750 % 9.79 C
1637 04-09-2007 00:00:00 12.88417 C 62.5250 % 5.91 C
1638 05-09-2007 00:00:00 12.6395 C 62.3950 % 5.65 C
1639 06-09-2007 00:00:00 15.00917 C 73.4667 % 10.31 C
1640 07-09-2007 00:00:00 15.9325 C 67.9750 % 10.03 C
1641 08-09-2007 00:00:00 15.13667 C 77.7000 % 11.27 C
1642 09-09-2007 00:00:00 15.125 C 70.9333 % 9.9 C
1643 10-09-2007 00:00:00 12.4075 C 79.3917 % 8.94 C
1644 11-09-2007 00:00:00 14.36833 C 69.7833 % 8.93 C
1645 12-09-2007 00:00:00 14.94417 C 66.8167 % 8.84 C
1646 13-09-2007 00:00:00 14.5175 C 68.1667 % 8.72 C
1647 14-09-2007 00:00:00 15.68417 C 64.4583 % 9.01 C
1648 15-09-2007 00:00:00 16.86917 C 57.4250 % 8.42 C
1649 16-09-2007 00:00:00 15.27 C 63.0583 % 8.29 C
1650 17-09-2007 00:00:00 16.68833 C 71.1500 % 11.44 C
Sensor: Nr:Datum:Temp:Feuchte:Taupunkt:
Aussen-T/F 1651 18-09-2007 00:00:00 11.46833 C 80.1833 % 8.18 C
1652 19-09-2007 00:00:00 10.3275 C 66.7750 % 4.43 C
1653 20-09-2007 00:00:00 13.68083 C 59.4000 % 5.92 C
1654 21-09-2007 00:00:00 14.35833 C 62.5417 % 7.31 C
1655 22-09-2007 00:00:00 15.97583 C 64.2333 % 9.23 C
1656 23-09-2007 00:00:00 17.80333 C 62.5500 % 10.56 C
1657 24-09-2007 00:00:00 16.95833 C 65.7167 % 10.5 C
1658 25-09-2007 00:00:00 12.91917 C 68.3417 % 7.24 C
1659 26-09-2007 00:00:00 12.2675 C 72.5750 % 7.49 C
1660 27-09-2007 00:00:00 10.19083 C 93.0333 % 9.12 C
1661 28-09-2007 00:00:00 12.50168 C 79.2353 % 9.01 C
1662 29-09-2007 00:00:00 13.54444 C 73.2882 % 8.86 C
1663 30-09-2007 00:00:00 14.59687 C 72.8646 % 9.79 C
1664 01-10-2007 00:00:00 14.70313 C 77.1127 % 10.74 C
1665 02-10-2007 00:00:00 17.235 C 78.2854 % 13.42 C
1666 03-10-2007 00:00:00 17.39188 C 77.4125 % 13.4 C
1667 04-10-2007 00:00:00 17.33653 C 78.0647 % 13.48 C
1668 05-10-2007 00:00:00 15.50646 C 65.9313 % 9.17 C
1669 06-10-2007 00:00:00 12.34042 C 69.6938 % 6.97 C
1670 07-10-2007 00:00:00 11.60813 C 73.9667 % 7.13 C
1671 08-10-2007 00:00:00 10.74021 C 76.4542 % 6.77 C
1672 09-10-2007 00:00:00 12.05052 C 75.7808 % 7.91 C
1673 10-10-2007 00:00:00 14.53875 C 64.5167 % 7.93 C
1674 11-10-2007 00:00:00 11.52958 C 70.9146 % 6.44 C
1675 12-10-2007 00:00:00 12.23271 C 76.1958 % 8.17 C
Sensor: Nr:Datum:Temp:Feuchte:Taupunkt:
Aussen-T/F 1676 13-10-2007 00:00:00 13.96146 C 64.9563 % 7.49 C
1677 14-10-2007 00:00:00 9.94958 C 69.0396 % 4.54 C
1678 15-10-2007 00:00:00 10.725 C 74.7021 % 6.42 C
1679 16-10-2007 00:00:00 13.70417 C 70.5188 % 8.45 C
1680 17-10-2007 00:00:00 11.78601 C 79.8121 % 8.42 C
1681 18-10-2007 00:00:00 9.70042 C 69.9708 % 4.5 C
1682 19-10-2007 00:00:00 7.65667 C 76.3000 % 3.76 C
1683 20-10-2007 00:00:00 3.38583 C 90.8083 % 2.03 C
1684 24-10-2007 00:00:00 7.63803 C 70.4507 % 2.62 C
1685 25-10-2007 00:00:00 8.51042 C 73.2958 % 4.01 C
1686 26-10-2007 00:00:00 8.8712 C 68.9307 % 3.49 C
1687 27-10-2007 00:00:00 8.5725 C 68.2250 % 3.06 C
1688 28-10-2007 00:00:00 9.1632 C 66.2080 % 3.2 C
1689 29-10-2007 00:00:00 8.77833 C 81.3167 % 5.76 C
1690 30-10-2007 00:00:00 8.70333 C 84.3583 % 6.22 C
1691 31-10-2007 00:00:00 6.43333 C 86.2250 % 4.3 C
1692 01-11-2007 00:00:00 5.77833 C 84.4417 % 3.36 C
1693 02-11-2007 00:00:00 10.20333 C 89.5583 % 8.57 C
1694 03-11-2007 00:00:00 11.76723 C 91.7479 % 10.47 C
1695 04-11-2007 00:00:00 10.35 C 71.2250 % 5.37 C
1696 05-11-2007 00:00:00 8.61333 C 62.5167 % 1.87 C
1697 06-11-2007 00:00:00 8.1225 C 70.6167 % 3.11 C
1698 07-11-2007 00:00:00 8.495 C 71.8667 % 3.72 C
1699 08-11-2007 00:00:00 9.85667 C 77.3833 % 6.09 C
1700 09-11-2007 00:00:00 5.16167 C 74.4417 % 1 C
Sensor: Nr:Datum:Temp:Feuchte:Taupunkt:
Aussen-T/F 1701 10-11-2007 00:00:00 6.29083 C 79.9917 % 3.1 C
1702 11-11-2007 00:00:00 7.75917 C 81.9167 % 4.87 C
1703 12-11-2007 00:00:00 5.1475 C 69.7917 % 0.1 C
1704 13-11-2007 00:00:00 3.98167 C 80.9417 % 1.01 C
1705 14-11-2007 00:00:00 2.72417 C 74.8917 % -1.27 C
1706 15-11-2007 00:00:00 1.3425 C 71.9000 % -3.16 C
1707 16-11-2007 00:00:00 -0.59167 C 82.5667 % -3.19 C
1708 17-11-2007 00:00:00 3.35714 C 76.7983 % -0.32 C
1709 18-11-2007 00:00:00 3.3825 C 80.4167 % 0.34 C
1710 19-11-2007 00:00:00 2.57333 C 75.1333 % -1.37 C
1711 20-11-2007 00:00:00 5.33 C 66.0333 % -0.49 C
1712 21-11-2007 00:00:00 6.755 C 74.2750 % 2.51 C
1713 22-11-2007 00:00:00 7.93917 C 80.7167 % 4.84 C
1714 23-11-2007 00:00:00 6.7275 C 89.4750 % 5.12 C
1715 24-11-2007 00:00:00 2.76833 C 82.3250 % 0.06 C
1716 25-11-2007 00:00:00 4.25167 C 81.8417 % 1.43 C
1717 26-11-2007 00:00:00 3.9725 C 73.4750 % -0.33 C
1718 27-11-2007 00:00:00 4.23833 C 72.4417 % -0.27 C
1719 28-11-2007 00:00:00 0.0625 C 88.7167 % -1.57 C
1720 29-11-2007 00:00:00 1.3325 C 86.4167 % -0.68 C
1721 30-11-2007 00:00:00 5.76 C 79.7333 % 2.54 C
1722 01-12-2007 00:00:00 8.51345 C 68.1513 % 2.99 C
1723 02-12-2007 00:00:00 9.13667 C 70.5167 % 4.07 C
1724 03-12-2007 00:00:00 7.21167 C 63.3250 % 0.72 C
1725 04-12-2007 00:00:00 5.77583 C 78.4500 % 2.33 C
Sensor: Nr:Datum:Temp:Feuchte:Taupunkt:
Aussen-T/F 1726 05-12-2007 00:00:00 10.11667 C 76.0500 % 6.09 C
1727 06-12-2007 00:00:00 9.85667 C 71.6000 % 4.98 C
1728 07-12-2007 00:00:00 10.3625 C 63.3000 % 3.7 C
1729 08-12-2007 00:00:00 5.77917 C 65.6250 % -0.15 C
1730 09-12-2007 00:00:00 7.00333 C 74.2083 % 2.73 C
1731 10-12-2007 00:00:00 6.24167 C 83.5250 % 3.66 C
1732 11-12-2007 00:00:00 5.6775 C 75.9167 % 1.77 C
1733 12-12-2007 00:00:00 4.92417 C 74.0250 % 0.69 C
1734 13-12-2007 00:00:00 5.2125 C 63.2583 % -1.19 C
1735 14-12-2007 00:00:00 2.35798 C 51.9412 % -6.48 C
1736 15-12-2007 00:00:00 0.0325 C 58.8000 % -7.05 C
1737 16-12-2007 00:00:00 -2.92417 C 75.4000 % -6.65 C
1738 17-12-2007 00:00:00 -1.06 C 63.2333 % -7.15 C
1739 18-12-2007 00:00:00 -2.50833 C 77.1417 % -5.95 C
1740 19-12-2007 00:00:00 -3.8675 C 83.6667 % -6.22 C
1741 20-12-2007 00:00:00 -5.26417 C 86.8167 % -7.11 C
1742 21-12-2007 00:00:00 -5.9625 C 85.7917 % -7.95 C
1743 22-12-2007 00:00:00 -7.21833 C 83.9667 % -9.46 C
1744 23-12-2007 00:00:00 -5.47333 C 85.5417 % -7.51 C
1745 24-12-2007 00:00:00 -1.28333 C 90.4833 % -2.64 C
1746 25-12-2007 00:00:00 -3.13917 C 82.2500 % -5.73 C
1747 26-12-2007 00:00:00 -1.31513 C 86.6639 % -3.25 C
1748 27-12-2007 00:00:00 2.63917 C 82.9333 % 0.04 C
1749 28-12-2007 00:00:00 4.575 C 79.7167 % 1.38 C
1750 29-12-2007 00:00:00 3.32667 C 79.5917 % 0.14 C
Sensor: Nr:Datum:Temp:Feuchte:Taupunkt:
Aussen-T/F 1751 30-12-2007 00:00:00 4.99167 C 77.1417 % 1.33 C
1752 31-12-2007 00:00:00 3.21667 C 86.0250 % 1.11 C
1753 01-01-2008 00:00:00 1.85083 C 82.1417 % -0.86 C
1754 02-01-2008 00:00:00 -1.72 C 74.6417 % -5.62 C
1755 03-01-2008 00:00:00 -0.05667 C 59.5500 % -6.98 C
1756 04-01-2008 00:00:00 0.27167 C 67.6750 % -4.99 C
1757 05-01-2008 00:00:00 5.0775 C 82.4667 % 2.35 C
1758 06-01-2008 00:00:00 3.95167 C 82.4583 % 1.24 C
1759 07-01-2008 00:00:00 5.63583 C 74.8583 % 1.54 C
1760 08-01-2008 00:00:00 4.45546 C 82.7731 % 1.79 C
1761 09-01-2008 00:00:00 4.03167 C 84.5667 % 1.67 C
1762 10-01-2008 00:00:00 6.32083 C 73.8750 % 2.01 C
1763 11-01-2008 00:00:00 9.6175 C 63.9667 % 3.14 C
1764 12-01-2008 00:00:00 6.39 C 67.3417 % 0.79 C
1765 13-01-2008 00:00:00 0.58167 C 84.5167 % -1.72 C
1766 14-01-2008 00:00:00 3.80833 C 78.1083 % 0.35 C
1767 15-01-2008 00:00:00 8.28833 C 60.8250 % 1.18 C
1768 16-01-2008 00:00:00 8.28667 C 63.4917 % 1.78 C
1769 17-01-2008 00:00:00 7.21833 C 70.1750 % 2.16 C
1770 18-01-2008 00:00:00 9.17667 C 70.7167 % 4.15 C
1771 19-01-2008 00:00:00 12.72353 C 66.6975 % 6.69 C
1772 20-01-2008 00:00:00 12.27333 C 63.6250 % 5.58 C
1773 21-01-2008 00:00:00 10.16471 C 61.0719 % 3.01 C
1774 22-01-2008 00:00:00 4.58605 C 60.6163 % -2.36 C
1775 23-01-2008 00:00:00 2.9125 C 66.2750 % -2.74 C
Sensor: Nr:Datum:Temp:Feuchte:Taupunkt:
Aussen-T/F 1776 24-01-2008 00:00:00 6.355 C 62.6167 % -0.24 C
1777 25-01-2008 00:00:00 3.72583 C 69.4750 % -1.33 C
1778 26-01-2008 00:00:00 5.43583 C 60.9667 % -1.48 C
1779 27-01-2008 00:00:00 5.64333 C 60.4833 % -1.39 C
1780 28-01-2008 00:00:00 7.44 C 65.0667 % 1.32 C
1781 29-01-2008 00:00:00 5.72167 C 60.1583 % -1.39 C
1782 30-01-2008 00:00:00 2.05833 C 84.3833 % -0.29 C
1783 31-01-2008 00:00:00 2.0958 C 68.2353 % -3.13 C
1784 01-02-2008 00:00:00 4.10167 C 75.4000 % 0.15 C
1785 02-02-2008 00:00:00 2.155 C 64.7500 % -3.78 C
1786 03-02-2008 00:00:00 0.64917 C 63.2500 % -5.52 C
1787 04-02-2008 00:00:00 4.5125 C 64.6417 % -1.56 C
1788 05-02-2008 00:00:00 6.43917 C 68.3583 % 1.05 C
1789 06-02-2008 00:00:00 8.675 C 66.2917 % 2.75 C
1790 07-02-2008 00:00:00 3.96333 C 66.9167 % -1.61 C
1791 08-02-2008 00:00:00 2.41167 C 67.6667 % -2.94 C
1792 09-02-2008 00:00:00 2.61833 C 62.3083 % -3.85 C
1793 10-02-2008 00:00:00 2.41333 C 65.4500 % -3.39 C
1794 11-02-2008 00:00:00 3.10083 C 73.4750 % -1.17 C
1795 12-02-2008 00:00:00 2.92667 C 75.8833 % -0.9 C
1796 13-02-2008 00:00:00 2.03193 C 77.7647 % -1.43 C
1797 14-02-2008 00:00:00 0.96667 C 84.9667 % -1.27 C
1798 15-02-2008 00:00:00 2.4125 C 54.7917 % -5.74 C
1799 16-02-2008 00:00:00 -0.75333 C 44.0750 % -11.45 C
1800 17-02-2008 00:00:00 -1.21667 C 46.0750 % -11.32 C
Sensor: Nr:Datum:Temp:Feuchte:Taupunkt:
Aussen-T/F 1801 18-02-2008 00:00:00 -0.28333 C 44.7917 % -10.82 C
1802 19-02-2008 00:00:00 0.85417 C 49.4000 % -8.52 C
1803 20-02-2008 00:00:00 1.65 C 82.7500 % -0.96 C
1804 21-02-2008 00:00:00 6.5725 C 76.4667 % 2.74 C
1805 22-02-2008 00:00:00 9.70667 C 63.8083 % 3.19 C
1806 23-02-2008 00:00:00 9.48833 C 61.5667 % 2.48 C
1807 24-02-2008 00:00:00 6.65583 C 74.7167 % 2.5 C
1808 25-02-2008 00:00:00 9.93833 C 64.7333 % 3.62 C
1809 26-02-2008 00:00:00 11.1075 C 64.3583 % 4.64 C
1810 27-02-2008 00:00:00 7.70168 C 54.7479 % -0.82 C
1811 28-02-2008 00:00:00 7.6125 C 60.6917 % 0.52 C
1812 29-02-2008 00:00:00 8.7625 C 82.4500 % 5.94 C
1813 01-03-2008 00:00:00 9.4675 C 53.3417 % 0.47 C
1814 02-03-2008 00:00:00 11.1725 C 52.6833 % 1.88 C
1815 03-03-2008 00:00:00 7.56583 C 50.7667 % -1.97 C
1816 04-03-2008 00:00:00 2.7525 C 69.4083 % -2.27 C
1817 05-03-2008 00:00:00 1.71 C 55.6000 % -6.2 C
1818 06-03-2008 00:00:00 2.81917 C 50.9583 % -6.31 C
1819 07-03-2008 00:00:00 6.93833 C 61.2000 % -0.01 C
1820 08-03-2008 00:00:00 6.94667 C 58.2333 % -0.68 C
1821 09-03-2008 00:00:00 8.06667 C 49.4750 % -1.85 C
1822 10-03-2008 00:00:00 8.22941 C 51.4538 % -1.17 C
1823 11-03-2008 00:00:00 8.355 C 62.7667 % 1.68 C
1824 12-03-2008 00:00:00 9.11833 C 47.2750 % -1.5 C
1825 13-03-2008 00:00:00 7.62667 C 50.3083 % -2.03 C
Sensor: Nr:Datum:Temp:Feuchte:Taupunkt:
Aussen-T/F 1826 14-03-2008 00:00:00 9.14417 C 64.8417 % 2.89 C
1827 15-03-2008 00:00:00 9.33 C 60.1750 % 2.01 C
1828 16-03-2008 00:00:00 9.8675 C 71.7417 % 5.01 C
1829 17-03-2008 00:00:00 5.94583 C 55.1250 % -2.36 C
1830 18-03-2008 00:00:00 4.26083 C 47.4667 % -5.9 C
1831 19-03-2008 00:00:00 3.37083 C 64.0500 % -2.77 C
1832 20-03-2008 00:00:00 3.89083 C 64.4750 % -2.18 C
1833 21-03-2008 00:00:00 3.9975 C 66.4250 % -1.68 C
1834 22-03-2008 00:00:00 2.82917 C 80.2000 % -0.24 C
1835 23-03-2008 00:00:00 1.56639 C 42.7899 % -9.7 C
1836 24-03-2008 00:00:00 -0.00917 C 66.0500 % -5.58 C
1837 25-03-2008 00:00:00 1.51333 C 57.5000 % -5.95 C
1838 26-03-2008 00:00:00 2.39667 C 75.1083 % -1.55 C
1839 27-03-2008 00:00:00 5.29417 C 78.4500 % 1.86 C
1840 28-03-2008 00:00:00 8.15333 C 49.6167 % -1.74 C
1841 29-03-2008 00:00:00 9.55083 C 43.2917 % -2.3 C
1842 30-03-2008 00:00:00 13.03217 C 35.2696 % -1.95 C
1843 31-03-2008 00:00:00 11.98333 C 52.5750 % 2.6 C
1844 01-04-2008 00:00:00 10.06833 C 56.8833 % 1.92 C
1845 02-04-2008 00:00:00 9.77417 C 59.6083 % 2.3 C
1846 03-04-2008 00:00:00 7.48 C 71.9167 % 2.75 C
1847 04-04-2008 00:00:00 9.15583 C 65.0667 % 2.95 C
1848 05-04-2008 00:00:00 7.49076 C 84.1429 % 4.99 C
1849 06-04-2008 00:00:00 3.825 C 89.8083 % 2.31 C
1850 07-04-2008 00:00:00 1.36917 C 91.5917 % 0.15 C
Sensor: Nr:Datum:Temp:Feuchte:Taupunkt:
Aussen-T/F 1851 08-04-2008 00:00:00 3.57833 C 76.3667 % -0.18 C
1852 09-04-2008 00:00:00 5.82833 C 76.6250 % 2.05 C
1853 10-04-2008 00:00:00 8.76917 C 66.0500 % 2.79 C
1854 11-04-2008 00:00:00 8.235 C 75.5667 % 4.18 C
1855 12-04-2008 00:00:00 8.02 C 65.3333 % 1.92 C
1856 13-04-2008 00:00:00 9.70833 C 71.0833 % 4.73 C
1857 14-04-2008 00:00:00 7.63083 C 85.5083 % 5.36 C
1858 15-04-2008 00:00:00 6.56083 C 79.5167 % 3.28 C
1859 16-04-2008 00:00:00 6.30083 C 64.5917 % 0.13 C
1860 17-04-2008 00:00:00 6.47227 C 53.9076 % -2.17 C
1861 18-04-2008 00:00:00 9.94 C 48.9500 % -0.28 C
1862 19-04-2008 00:00:00 8.41667 C 72.7333 % 3.81 C
1863 20-04-2008 00:00:00 12.42417 C 65.2917 % 6.1 C
1864 21-04-2008 00:00:00 12.98833 C 55.5417 % 4.31 C
1865 22-04-2008 00:00:00 12.95917 C 52.8667 % 3.58 C
1866 23-04-2008 00:00:00 13.95083 C 52.1167 % 4.3 C
1867 24-04-2008 00:00:00 15.095 C 55.3500 % 6.22 C
1868 25-04-2008 00:00:00 12.67583 C 55.1000 % 3.91 C
1869 26-04-2008 00:00:00 14.51833 C 49.4333 % 4.07 C
1870 27-04-2008 00:00:00 15.87667 C 42.8000 % 3.26 C
1871 28-04-2008 00:00:00 13.4125 C 69.9500 % 8.05 C
1872 29-04-2008 00:00:00 13.07667 C 56.1167 % 4.54 C
1873 30-04-2008 00:00:00 13.76639 C 44.8571 % 2.01 C
1874 01-05-2008 00:00:00 11.62583 C 55.7167 % 3.09 C
1875 02-05-2008 00:00:00 12.97583 C 55.4667 % 4.28 C
Sensor: Nr:Datum:Temp:Feuchte:Taupunkt:
Aussen-T/F 1876 03-05-2008 00:00:00 14.47667 C 52.3000 % 4.83 C
1877 04-05-2008 00:00:00 17.15667 C 40.4417 % 3.61 C
1878 05-05-2008 00:00:00 16.51 C 39.2167 % 2.6 C
1879 06-05-2008 00:00:00 18.36833 C 48.8750 % 7.44 C
1880 07-05-2008 00:00:00 19.48083 C 41.7500 % 6.16 C
1881 08-05-2008 00:00:00 19.40583 C 41.8417 % 6.12 C
1882 09-05-2008 00:00:00 20.20083 C 40.3083 % 6.29 C
1883 10-05-2008 00:00:00 21.22917 C 38.5667 % 6.57 C
1884 11-05-2008 00:00:00 21.15714 C 34.7563 % 5.01 C
1885 12-05-2008 00:00:00 21.02017 C 36.7395 % 5.68 C
1886 13-05-2008 00:00:00 21.3175 C 37.9750 % 6.43 C
1887 14-05-2008 00:00:00 21.27167 C 41.8667 % 7.81 C
1888 15-05-2008 00:00:00 18.93333 C 54.9333 % 9.68 C
1889 16-05-2008 00:00:00 18.3725 C 61.7000 % 10.9 C
1890 17-05-2008 00:00:00 17.11167 C 68.8833 % 11.36 C
1891 18-05-2008 00:00:00 14.09583 C 69.0917 % 8.52 C
1892 19-05-2008 00:00:00 14.61833 C 44.8000 % 2.77 C
1893 20-05-2008 00:00:00 15.59417 C 37.0333 % 0.99 C
1894 21-05-2008 00:00:00 16.93833 C 32.8833 % 0.53 C
1895 22-05-2008 00:00:00 18.32417 C 35.0333 % 2.63 C
1896 23-05-2008 00:00:00 19.045 C 39.5417 % 4.98 C
1897 24-05-2008 00:00:00 18.23 C 50.2500 % 7.72 C
1898 25-05-2008 00:00:00 21.65462 C 49.3277 % 10.59 C
1899 26-05-2008 00:00:00 21.2775 C 60.5417 % 13.34 C
1900 27-05-2008 00:00:00 22.17167 C 62.5917 % 14.7 C
Sensor: Nr:Datum:Temp:Feuchte:Taupunkt:
Aussen-T/F 1901 28-05-2008 00:00:00 23.79417 C 47.5500 % 11.99 C
1902 29-05-2008 00:00:00 23.08917 C 55.5083 % 13.7 C
1903 30-05-2008 00:00:00 20.37 C 75.4333 % 15.88 C
1904 31-05-2008 00:00:00 17.68917 C 79.9333 % 14.18 C
1905 01-06-2008 00:00:00 21.38917 C 62.1000 % 13.84 C
1906 02-06-2008 00:00:00 23.66833 C 59.5583 % 15.33 C
1907 03-06-2008 00:00:00 21.2825 C 59.5833 % 13.1 C
1908 04-06-2008 00:00:00 19.19833 C 69.6500 % 13.52 C
1909 05-06-2008 00:00:00 20.67731 C 69.8992 % 14.99 C
1910 06-06-2008 00:00:00 21.07333 C 59.3167 % 12.84 C
1911 07-06-2008 00:00:00 19.84417 C 61.3833 % 12.2 C
1912 08-06-2008 00:00:00 20.63167 C 58.6667 % 12.26 C
1913 09-06-2008 00:00:00 22.875 C 49.0667 % 11.62 C
1914 10-06-2008 00:00:00 23.51583 C 43.6000 % 10.43 C
1915 11-06-2008 00:00:00 18.4725 C 45.7917 % 6.58 C
1916 12-06-2008 00:00:00 12.7425 C 68.8750 % 7.18 C
1917 13-06-2008 00:00:00 13.67167 C 59.9500 % 6.05 C
1918 14-06-2008 00:00:00 13.75917 C 60.5833 % 6.28 C
1919 15-06-2008 00:00:00 13.75333 C 69.6250 % 8.31 C
1920 16-06-2008 00:00:00 16.2275 C 55.7417 % 7.38 C
1921 17-06-2008 00:00:00 17.34333 C 49.3500 % 6.64 C
1922 18-06-2008 00:00:00 20.30583 C 44.8250 % 7.94 C
1923 19-06-2008 00:00:00 20.67417 C 44.7833 % 8.26 C
1924 20-06-2008 00:00:00 18.32 C 55.1333 % 9.17 C
1925 21-06-2008 00:00:00 23.24706 C 43.6807 % 10.21 C
Sensor: Nr:Datum:Temp:Feuchte:Taupunkt:
Aussen-T/F 1926 22-06-2008 00:00:00 24.30833 C 53.1000 % 14.15 C
1927 23-06-2008 00:00:00 22.40417 C 42.3417 % 8.99 C
1928 24-06-2008 00:00:00 23.6325 C 39.0917 % 8.91 C
1929 25-06-2008 00:00:00 22.66833 C 60.0500 % 14.52 C
1930 26-06-2008 00:00:00 20.39833 C 47.7000 % 8.94 C
1931 27-06-2008 00:00:00 18.72167 C 54.0750 % 9.25 C
1932 28-06-2008 00:00:00 21.21 C 53.5750 % 11.42 C
1933 29-06-2008 00:00:00 22.68667 C 48.7750 % 11.36 C
1934 30-06-2008 00:00:00 22.95083 C 42.5833 % 9.57 C
1935 01-07-2008 00:00:00 24.35583 C 41.4250 % 10.42 C
1936 02-07-2008 00:00:00 26.47583 C 41.5750 % 12.37 C
1937 03-07-2008 00:00:00 20.18992 C 73.0840 % 15.21 C
1938 04-07-2008 00:00:00 19.38083 C 55.3000 % 10.2 C
1939 05-07-2008 00:00:00 21.0575 C 48.2750 % 9.72 C
1940 06-07-2008 00:00:00 21.2225 C 48.4250 % 9.91 C
1941 07-07-2008 00:00:00 18.24917 C 52.1417 % 8.28 C
1942 08-07-2008 00:00:00 17.2125 C 59.3250 % 9.22 C
1943 09-07-2008 00:00:00 17.0525 C 60.8500 % 9.44 C
1944 10-07-2008 00:00:00 22.32833 C 54.4667 % 12.7 C
1945 11-07-2008 00:00:00 20.48167 C 62.8583 % 13.17 C
1946 12-07-2008 00:00:00 17.645 C 65.9833 % 11.22 C
1947 13-07-2008 00:00:00 17.8375 C 52.7167 % 8.06 C
1948 14-07-2008 00:00:00 18.38 C 49.4000 % 7.6 C
1949 15-07-2008 00:00:00 19.61978 C 49.3407 % 8.72 C
1950 16-07-2008 00:00:00 20.38298 C 61.2128 % 12.67 C
Sensor: Nr:Datum:Temp:Feuchte:Taupunkt:
Aussen-T/F 1951 17-07-2008 00:00:00 17.22917 C 60.9375 % 9.63 C
1952 18-07-2008 00:00:00 16.58125 C 69.0208 % 10.88 C
1953 19-07-2008 00:00:00 19.61667 C 58.8333 % 11.35 C
1954 20-07-2008 00:00:00 15.48542 C 69.1250 % 9.86 C
1955 21-07-2008 00:00:00 12.62917 C 75.8542 % 8.49 C
1956 22-07-2008 00:00:00 14.56042 C 75.3125 % 10.25 C
1957 23-07-2008 00:00:00 18.94375 C 58.9167 % 10.74 C
1958 24-07-2008 00:00:00 22.13958 C 47.5833 % 10.49 C
1959 25-07-2008 00:00:00 24.55625 C 42.5625 % 11 C
1960 26-07-2008 00:00:00 23.54792 C 58.5625 % 14.96 C
1961 27-07-2008 00:00:00 23.20625 C 66.9375 % 16.72 C
1962 28-07-2008 00:00:00 25.10833 C 53.7708 % 15.08 C
1963 29-07-2008 00:00:00 24.49792 C 54.0833 % 14.61 C
1964 30-07-2008 00:00:00 23.67292 C 59.6458 % 15.36 C
1965 31-07-2008 00:00:00 24.69792 C 59.1250 % 16.18 C
1966 01-08-2008 00:00:00 24.97917 C 47.0833 % 12.92 C
1967 02-08-2008 00:00:00 21.29792 C 50.6042 % 10.64 C
1968 03-08-2008 00:00:00 23.42561 C 52.0732 % 13.03 C
1969 04-08-2008 00:00:00 21.85083 C 52.0083 % 11.56 C
1970 05-08-2008 00:00:00 20.3125 C 49.5333 % 9.42 C
1971 06-08-2008 00:00:00 24.05417 C 46.8000 % 11.98 C
1972 07-08-2008 00:00:00 24.29583 C 50.2500 % 13.29 C
1973 08-08-2008 00:00:00 18.50948 C 74.4397 % 13.88 C
1974 09-08-2008 00:00:00 19.32 C 54.5417 % 9.93 C
1975 10-08-2008 00:00:00 20.1 C 54.1583 % 10.55 C
Sensor: Nr:Datum:Temp:Feuchte:Taupunkt:
Aussen-T/F 1976 11-08-2008 00:00:00 20.59748 C 52.7731 % 10.62 C
1977 12-08-2008 00:00:00 18.91833 C 77.3000 % 14.86 C
1978 13-08-2008 00:00:00 18.3525 C 55.7250 % 9.35 C
1979 14-08-2008 00:00:00 19.14917 C 47.3583 % 7.69 C
1980 15-08-2008 00:00:00 18.3625 C 52.1583 % 8.39 C
1981 16-08-2008 00:00:00 18.89 C 52.1083 % 8.86 C
1982 17-08-2008 00:00:00 19.10252 C 51.2353 % 8.81 C
1983 18-08-2008 00:00:00 21.21 C 57.7250 % 12.55 C
1984 19-08-2008 00:00:00 20.7925 C 53.4333 % 10.99 C
1985 20-08-2008 00:00:00 18.82 C 58.1333 % 10.42 C
1986 21-08-2008 00:00:00 19.6375 C 53.1167 % 9.83 C
1987 22-08-2008 00:00:00 18.45333 C 70.3250 % 12.96 C
1988 23-08-2008 00:00:00 14.95083 C 71.5750 % 9.86 C
1989 24-08-2008 00:00:00 16.59333 C 61.3833 % 9.14 C
1990 25-08-2008 00:00:00 17.43583 C 73.5750 % 12.67 C
1991 26-08-2008 00:00:00 19.2725 C 61.1500 % 11.61 C
1992 27-08-2008 00:00:00 19.89833 C 61.8250 % 12.36 C
1993 28-08-2008 00:00:00 20.35417 C 53.0917 % 10.49 C
1994 29-08-2008 00:00:00 20.84454 C 53.6639 % 11.1 C
1995 30-08-2008 00:00:00 21.35167 C 58.5333 % 12.89 C
1996 31-08-2008 00:00:00 22.25917 C 53.2500 % 12.3 C
1997 01-09-2008 00:00:00 20.93917 C 56.7667 % 12.04 C
1998 02-09-2008 00:00:00 19.11333 C 56.7417 % 10.33 C
1999 03-09-2008 00:00:00 15.21083 C 80.2000 % 11.82 C
2000 04-09-2008 00:00:00 13.7025 C 67.0500 % 7.7 C
Sensor: Nr:Datum:Temp:Feuchte:Taupunkt:
Aussen-T/F 2001 05-09-2008 00:00:00 16.9775 C 72.6750 % 12.04 C
2002 06-09-2008 00:00:00 17.5625 C 76.0500 % 13.3 C
2003 07-09-2008 00:00:00 16.83583 C 65.1583 % 10.26 C
2004 08-09-2008 00:00:00 17.9741 C 54.9699 % 8.8 C
2005 09-09-2008 00:00:00 18.12014 C 58.4063 % 9.84 C
2006 10-09-2008 00:00:00 21.10243 C 58.1563 % 12.56 C
2007 11-09-2008 00:00:00 19.94479 C 72.7049 % 14.9 C
2008 12-09-2008 00:00:00 16.69236 C 90.9167 % 15.2 C
2009 13-09-2008 00:00:00 12.63937 C 90.7596 % 11.17 C
2010 14-09-2008 00:00:00 11.66215 C 59.3056 % 4 C
2011 15-09-2008 00:00:00 10.27153 C 74.0764 % 5.86 C
2012 16-09-2008 00:00:00 11.32014 C 69.6597 % 5.98 C
2013 17-09-2008 00:00:00 11.34948 C 56.4111 % 3 C
2014 18-09-2008 00:00:00 10.63264 C 54.1493 % 1.76 C
2015 19-09-2008 00:00:00 10.48333 C 63.4132 % 3.84 C
2016 20-09-2008 00:00:00 11.00556 C 62.4722 % 4.12 C
2017 21-09-2008 00:00:00 11.67222 C 66.0313 % 5.55 C
2018 22-09-2008 00:00:00 12.57108 C 68.2648 % 6.89 C
2019 23-09-2008 00:00:00 12.21111 C 77.3160 % 8.36 C
2020 24-09-2008 00:00:00 13.30799 C 80.5972 % 10.05 C
2021 25-09-2008 00:00:00 12.56736 C 70.3333 % 7.32 C
2022 26-09-2008 00:00:00 12.00521 C 66.5035 % 5.97 C
2023 27-09-2008 00:00:00 11.93693 C 67.3798 % 6.09 C
2024 28-09-2008 00:00:00 11.96493 C 67.7569 % 6.2 C
2025 29-09-2008 00:00:00 11.47396 C 71.0382 % 6.41 C
Sensor: Nr:Datum:Temp:Feuchte:Taupunkt:
Aussen-T/F 2026 30-09-2008 00:00:00 10.38611 C 79.6111 % 7.02 C
2027 01-10-2008 00:00:00 13.07222 C 73.9931 % 8.55 C
2028 02-10-2008 00:00:00 10.70244 C 65.2056 % 4.45 C
2029 03-10-2008 00:00:00 8.94063 C 68.8021 % 3.53 C
2030 04-10-2008 00:00:00 9.76632 C 61.1146 % 2.64 C
2031 05-10-2008 00:00:00 11.69062 C 58.3819 % 3.81 C
2032 06-10-2008 00:00:00 14.79306 C 80.2569 % 11.43 C
2033 07-10-2008 00:00:00 15.17875 C 78.9686 % 11.56 C
2034 08-10-2008 00:00:00 13.26389 C 91.9132 % 11.98 C
2035 09-10-2008 00:00:00 13.20937 C 76.8056 % 9.23 C
2036 10-10-2008 00:00:00 13.01806 C 76.3056 % 8.95 C
2037 11-10-2008 00:00:00 13.2125 C 78.3229 % 9.53 C
2038 12-10-2008 00:00:00 15.40729 C 73.6181 % 10.72 C
2039 13-10-2008 00:00:00 14.40976 C 76.5784 % 10.35 C
2040 14-10-2008 00:00:00 15.63438 C 70.1944 % 10.23 C
2041 15-10-2008 00:00:00 13.57361 C 75.5764 % 9.35 C
2042 16-10-2008 00:00:00 11.59444 C 81.1736 % 8.48 C
2043 17-10-2008 00:00:00 8.00313 C 74.4028 % 3.74 C
2044 18-10-2008 00:00:00 7.10488 C 75.9408 % 3.16 C
2045 19-10-2008 00:00:00 8.10521 C 75.0938 % 3.97 C
2046 20-10-2008 00:00:00 9.83646 C 77.4965 % 6.09 C
2047 21-10-2008 00:00:00 13.12986 C 81.4965 % 10.04 C
2048 22-10-2008 00:00:00 9.36528 C 82.9722 % 6.62 C
2049 23-10-2008 00:00:00 9.2115 C 72.7247 % 4.58 C
2050 24-10-2008 00:00:00 7.4434 C 76.1250 % 3.52 C
Sensor: Nr:Datum:Temp:Feuchte:Taupunkt:
Aussen-T/F 2051 25-10-2008 00:00:00 10.48151 C 76.3219 % 6.5 C
2052 26-10-2008 00:00:00 10.725 C 66.5333 % 4.76 C
2053 27-10-2008 00:00:00 10.21724 C 83.8103 % 7.6 C
2054 28-10-2008 00:00:00 6.92456 C 81.5439 % 3.99 C
2055 29-10-2008 00:00:00 5.45 C 80.3621 % 2.35 C
2056 30-10-2008 00:00:00 4.78947 C 89.5789 % 3.23 C
2057 31-10-2008 00:00:00 5.97414 C 87.4310 % 4.05 C
2058 01-11-2008 00:00:00 7.97414 C 86.6897 % 5.9 C
2059 02-11-2008 00:00:00 9.98772 C 83.7018 % 7.36 C
2060 03-11-2008 00:00:00 9.82241 C 84.2586 % 7.3 C
2061 04-11-2008 00:00:00 9.00351 C 88.7193 % 7.24 C
2062 05-11-2008 00:00:00 9.79828 C 82.7759 % 7.01 C
2063 06-11-2008 00:00:00 10.54483 C 75.7241 % 6.45 C
2064 07-11-2008 00:00:00 10.79123 C 73.0526 % 6.16 C
2065 08-11-2008 00:00:00 8.24828 C 80.5690 % 5.11 C
2066 09-11-2008 00:00:00 8.89583 C 83.4250 % 6.24 C
2067 10-11-2008 00:00:00 13.98833 C 65.6333 % 7.66 C
2068 11-11-2008 00:00:00 12.73917 C 57.8750 % 4.67 C
2069 12-11-2008 00:00:00 8.5175 C 76.7417 % 4.68 C
2070 13-11-2008 00:00:00 6.40667 C 81.3417 % 3.45 C
2071 14-11-2008 00:00:00 5.60833 C 77.3667 % 1.97 C
2072 15-11-2008 00:00:00 9.82083 C 75.7750 % 5.76 C
2073 16-11-2008 00:00:00 9.9375 C 83.6167 % 7.3 C
2074 17-11-2008 00:00:00 4.03167 C 85.6500 % 1.85 C
2075 18-11-2008 00:00:00 4.76417 C 83.5917 % 2.23 C
Sensor: Nr:Datum:Temp:Feuchte:Taupunkt:
Aussen-T/F 2076 19-11-2008 00:00:00 7.7775 C 74.7250 % 3.58 C
2077 20-11-2008 00:00:00 9.54 C 72.1083 % 4.77 C
2078 21-11-2008 00:00:00 5.21083 C 75.7083 % 1.28 C
2079 22-11-2008 00:00:00 1.08571 C 72.9328 % -3.21 C
2080 23-11-2008 00:00:00 0.81333 C 80.2500 % -2.19 C
2081 24-11-2008 00:00:00 1.92667 C 84.5083 % -0.4 C
2082 25-11-2008 00:00:00 0.79667 C 88.1250 % -0.94 C
2083 26-11-2008 00:00:00 2.38333 C 86.0750 % 0.3 C
2084 27-11-2008 00:00:00 3.435 C 74.8000 % -0.6 C
2085 28-11-2008 00:00:00 0.47667 C 75.5917 % -3.32 C
2086 29-11-2008 00:00:00 0.98 C 79.6833 % -2.13 C
2087 30-11-2008 00:00:00 1.12 C 90.1583 % -0.31 C
2088 01-12-2008 00:00:00 0.30417 C 91.8167 % -0.87 C
2089 02-12-2008 00:00:00 2.80917 C 84.7583 % 0.51 C
2090 03-12-2008 00:00:00 1.785 C 89.7417 % 0.28 C
2091 04-12-2008 00:00:00 1.92353 C 91.2689 % 0.65 C
2092 05-12-2008 00:00:00 5.36 C 86.4250 % 3.28 C
2093 06-12-2008 00:00:00 4.73 C 88.2917 % 2.96 C
2094 07-12-2008 00:00:00 3.85333 C 91.7750 % 2.64 C
2095 08-12-2008 00:00:00 0.26917 C 92.6917 % -0.77 C
2096 09-12-2008 00:00:00 0.56667 C 86.5667 % -1.41 C
2097 10-12-2008 00:00:00 1.97667 C 93.1250 % 0.99 C
2098 11-12-2008 00:00:00 1.4775 C 84.6750 % -0.81 C
2099 12-12-2008 00:00:00 -0.23583 C 79.6833 % -3.31 C
2100 13-12-2008 00:00:00 -0.26167 C 74.8500 % -4.17 C
Sensor: Nr:Datum:Temp:Feuchte:Taupunkt:
Aussen-T/F 2101 14-12-2008 00:00:00 0.28083 C 85.7917 % -1.81 C
2102 15-12-2008 00:00:00 -0.1075 C 94.2750 % -0.91 C
2103 16-12-2008 00:00:00 0.42521 C 91.9328 % -0.73 C
2104 17-12-2008 00:00:00 -0.0375 C 89.1000 % -1.61 C
2105 18-12-2008 00:00:00 2.15083 C 89.2667 % 0.57 C
2106 19-12-2008 00:00:00 4.22333 C 81.0000 % 1.26 C
2107 20-12-2008 00:00:00 6.45667 C 86.6583 % 4.4 C
2108 21-12-2008 00:00:00 7.94917 C 82.6583 % 5.19 C
2109 22-12-2008 00:00:00 8.47167 C 78.5667 % 4.97 C
2110 23-12-2008 00:00:00 6.21417 C 79.6333 % 2.96 C
2111 24-12-2008 00:00:00 4.55833 C 85.2000 % 2.29 C
2112 25-12-2008 00:00:00 4.40252 C 69.7815 % -0.62 C
2113 26-12-2008 00:00:00 -1.1875 C 58.2917 % -8.32 C
2114 27-12-2008 00:00:00 -1.85667 C 60.0583 % -8.57 C
2115 28-12-2008 00:00:00 -3.02917 C 64.5667 % -8.75 C
2116 29-12-2008 00:00:00 -5.49833 C 79.2667 % -8.51 C
2117 30-12-2008 00:00:00 -6.21833 C 81.1167 % -8.92 C
2118 31-12-2008 00:00:00 -4.32583 C 81.8000 % -6.96 C
2119 01-01-2009 00:00:00 -3.46417 C 77.9083 % -6.75 C
2120 02-01-2009 00:00:00 -2.03917 C 80.6500 % -4.91 C
2121 03-01-2009 00:00:00 -3.57 C 78.4417 % -6.77 C
2122 04-01-2009 00:00:00 -1.06833 C 65.8500 % -6.63 C
2123 05-01-2009 00:00:00 -1.23866 C 73.6639 % -5.33 C
2124 06-01-2009 00:00:00 -6.97 C 42.8583 % -17.47 C
2125 07-01-2009 00:00:00 -10.99167 C 63.6167 % -16.52 C
Sensor: Nr:Datum:Temp:Feuchte:Taupunkt:
Aussen-T/F 2126 08-01-2009 00:00:00 -6.02083 C 71.7750 % -10.28 C
2127 09-01-2009 00:00:00 -11.165 C 71.4000 % -15.3 C
2128 10-01-2009 00:00:00 -11.3175 C 71.8000 % -15.38 C
2129 11-01-2009 00:00:00 -8.9975 C 75.6250 % -12.5 C
2130 12-01-2009 00:00:00 -7.30417 C 74.5667 % -11.04 C
2131 13-01-2009 00:00:00 -0.17833 C 68.6583 % -5.23 C
2132 14-01-2009 00:00:00 -0.15917 C 84.5417 % -2.44 C
2133 15-01-2009 00:00:00 0.77417 C 83.7250 % -1.66 C
2134 16-01-2009 00:00:00 0.69833 C 76.7917 % -2.9 C
2135 17-01-2009 00:00:00 2.97833 C 82.4917 % 0.3 C
2136 18-01-2009 00:00:00 4.50924 C 77.6134 % 0.95 C
2137 19-01-2009 00:00:00 5.4575 C 74.3750 % 1.27 C
2138 20-01-2009 00:00:00 3.6475 C 67.4583 % -1.8 C
2139 21-01-2009 00:00:00 0.32 C 82.9000 % -2.24 C
2140 22-01-2009 00:00:00 2.825 C 68.4250 % -2.4 C
2141 23-01-2009 00:00:00 4.345 C 81.3083 % 1.43 C
2142 24-01-2009 00:00:00 3.13 C 71.4583 % -1.52 C
2143 25-01-2009 00:00:00 0.15167 C 83.3750 % -2.32 C
2144 26-01-2009 00:00:00 -2.16917 C 88.5583 % -3.8 C
2145 27-01-2009 00:00:00 -0.93167 C 86.5917 % -2.88 C
2146 28-01-2009 00:00:00 0.50833 C 80.0250 % -2.53 C
2147 29-01-2009 00:00:00 1.15667 C 59.5000 % -5.84 C
2148 30-01-2009 00:00:00 -1.50917 C 70.1917 % -6.22 C
2149 31-01-2009 00:00:00 0.06303 C 53.3109 % -8.28 C
2150 01-02-2009 00:00:00 -0.11167 C 46.5667 % -10.18 C
Sensor: Nr:Datum:Temp:Feuchte:Taupunkt:
Aussen-T/F 2151 02-02-2009 00:00:00 1.085 C 54.3250 % -7.09 C
2152 03-02-2009 00:00:00 0.63833 C 75.1583 % -3.24 C
2153 04-02-2009 00:00:00 3.0025 C 77.5667 % -0.52 C
2154 05-02-2009 00:00:00 3.2325 C 77.6917 % -0.28 C
2155 06-02-2009 00:00:00 4.3 C 77.6083 % 0.74 C
2156 07-02-2009 00:00:00 4.03417 C 82.7167 % 1.37 C
2157 08-02-2009 00:00:00 2.6525 C 56.8750 % -5.02 C
2158 09-02-2009 00:00:00 2.3775 C 66.4917 % -3.21 C
2159 10-02-2009 00:00:00 4.155 C 80.4667 % 1.1 C
2160 11-02-2009 00:00:00 2.90333 C 61.2250 % -3.81 C
2161 12-02-2009 00:00:00 0.68908 C 76.7059 % -2.92 C
2162 13-02-2009 00:00:00 0.51333 C 80.7750 % -2.4 C
2163 14-02-2009 00:00:00 0.46083 C 68.2667 % -4.69 C
2164 15-02-2009 00:00:00 -1.63583 C 65.2583 % -7.29 C
2165 16-02-2009 00:00:00 1.96417 C 84.4833 % -0.37 C
2166 17-02-2009 00:00:00 3.77167 C 81.8500 % 0.96 C
2167 18-02-2009 00:00:00 -1.62667 C 55.2583 % -9.41 C
2168 19-02-2009 00:00:00 1.01417 C 51.9417 % -7.73 C
2169 20-02-2009 00:00:00 3.41917 C 81.8667 % 0.62 C
2170 21-02-2009 00:00:00 4.72083 C 73.0250 % 0.31 C
2171 22-02-2009 00:00:00 5.24667 C 83.4417 % 2.68 C
2172 23-02-2009 00:00:00 5.50083 C 67.2583 % -0.07 C
2173 24-02-2009 00:00:00 4.8325 C 61.0583 % -2.03 C
2174 25-02-2009 00:00:00 3.34286 C 65.7731 % -2.44 C
2175 26-02-2009 00:00:00 6.73 C 56.4333 % -1.31 C
Sensor: Nr:Datum:Temp:Feuchte:Taupunkt:
Aussen-T/F 2176 27-02-2009 00:00:00 7.10417 C 70.5083 % 2.11 C
2177 28-02-2009 00:00:00 10.0375 C 62.5667 % 3.23 C
2178 01-03-2009 00:00:00 9.95 C 61.5333 % 2.91 C
2179 02-03-2009 00:00:00 7.98 C 70.8667 % 3.03 C
2180 03-03-2009 00:00:00 5.05583 C 57.7750 % -2.56 C
2181 04-03-2009 00:00:00 7.27917 C 50.1417 % -2.4 C
2182 05-03-2009 00:00:00 4.42917 C 81.7833 % 1.6 C
2183 06-03-2009 00:00:00 3.82417 C 85.1833 % 1.57 C
2184 07-03-2009 00:00:00 5.72167 C 54.0000 % -2.85 C
2185 08-03-2009 00:00:00 7.50833 C 68.5583 % 2.11 C
2186 09-03-2009 00:00:00 5.1521 C 60.8067 % -1.78 C
2187 10-03-2009 00:00:00 5.4275 C 68.9500 % 0.2 C
2188 11-03-2009 00:00:00 5.60417 C 61.5750 % -1.18 C
2189 12-03-2009 00:00:00 5.67083 C 72.2250 % 1.07 C
2190 13-03-2009 00:00:00 8.68167 C 65.2333 % 2.53 C
2191 14-03-2009 00:00:00 8.925 C 64.7833 % 2.67 C
2192 15-03-2009 00:00:00 9.41667 C 54.2417 % 0.65 C
2193 16-03-2009 00:00:00 8.23417 C 69.4750 % 2.99 C
2194 17-03-2009 00:00:00 7.73833 C 63.3083 % 1.22 C
2195 18-03-2009 00:00:00 5.82417 C 54.7250 % -2.57 C
2196 19-03-2009 00:00:00 5.41917 C 43.4667 % -6 C
2197 20-03-2009 00:00:00 4.59917 C 40.6417 % -7.61 C
2198 21-03-2009 00:00:00 5.07 C 41.1250 % -7.03 C
2199 22-03-2009 00:00:00 5.16639 C 55.2269 % -3.06 C
2200 23-03-2009 00:00:00 7.82917 C 60.0417 % 0.57 C
Sensor: Nr:Datum:Temp:Feuchte:Taupunkt:
Aussen-T/F 2201 24-03-2009 00:00:00 3.67333 C 68.1250 % -1.65 C
2202 25-03-2009 00:00:00 3.18417 C 77.9833 % -0.27 C
2203 26-03-2009 00:00:00 6.40083 C 73.5750 % 2.03 C
2204 27-03-2009 00:00:00 7.28333 C 67.2667 % 1.63 C
2205 28-03-2009 00:00:00 6.97583 C 69.7250 % 1.84 C
2206 29-03-2009 00:00:00 6.18435 C 67.4957 % 0.63 C
2207 30-03-2009 00:00:00 6.41833 C 64.1417 % 0.15 C
2208 31-03-2009 00:00:00 8.3325 C 53.1833 % -0.62 C
2209 01-04-2009 00:00:00 10.89833 C 45.9750 % -0.26 C
2210 02-04-2009 00:00:00 15.335 C 39.5667 % 1.68 C
2211 03-04-2009 00:00:00 15.87143 C 49.6639 % 5.38 C
2212 04-04-2009 00:00:00 16.68333 C 51.5667 % 6.67 C
2213 05-04-2009 00:00:00 14.9675 C 54.1167 % 5.78 C
2214 06-04-2009 00:00:00 14.72833 C 55.3167 % 5.87 C
2215 07-04-2009 00:00:00 14.57333 C 59.3250 % 6.74 C
2216 08-04-2009 00:00:00 14.20167 C 49.7000 % 3.85 C
2217 09-04-2009 00:00:00 16.28067 C 54.0420 % 6.98 C
2218 10-04-2009 00:00:00 18.55372 C 46.9669 % 7.03 C
2219 11-04-2009 00:00:00 17.3525 C 49.3083 % 6.63 C
2220 12-04-2009 00:00:00 16.79 C 58.7167 % 8.67 C
2221 13-04-2009 00:00:00 15.65167 C 69.0750 % 10 C
2222 14-04-2009 00:00:00 16.16167 C 60.1167 % 8.43 C
2223 15-04-2009 00:00:00 16.94202 C 48.6218 % 6.06 C
2224 16-04-2009 00:00:00 14.94583 C 53.1417 % 5.5 C
2225 17-04-2009 00:00:00 10.0825 C 92.0333 % 8.85 C
Sensor: Nr:Datum:Temp:Feuchte:Taupunkt:
Aussen-T/F 2226 18-04-2009 00:00:00 9.84 C 91.7417 % 8.56 C
2227 19-04-2009 00:00:00 14.95667 C 59.5000 % 7.14 C
2228 20-04-2009 00:00:00 15.16917 C 55.7917 % 6.41 C
2229 21-04-2009 00:00:00 15.74583 C 47.3250 % 4.57 C
2230 22-04-2009 00:00:00 13.68833 C 46.2833 % 2.38 C
2231 23-04-2009 00:00:00 11.645 C 49.5000 % 1.45 C
2232 24-04-2009 00:00:00 14.11333 C 49.0667 % 3.59 C
2233 25-04-2009 00:00:00 14.64833 C 57.0583 % 6.25 C
2234 26-04-2009 00:00:00 18.35 C 52.2083 % 8.39 C
2235 27-04-2009 00:00:00 14.89496 C 57.0756 % 6.48 C
2236 28-04-2009 00:00:00 11.07833 C 79.6417 % 7.7 C
2237 29-04-2009 00:00:00 11.9025 C 67.4083 % 6.07 C
2238 30-04-2009 00:00:00 12.85833 C 66.9667 % 6.88 C
2239 01-05-2009 00:00:00 16.25583 C 58.4500 % 8.1 C
2240 02-05-2009 00:00:00 17.60167 C 51.3167 % 7.45 C
2241 03-05-2009 00:00:00 14.58333 C 56.9750 % 6.16 C
2242 04-05-2009 00:00:00 11.88333 C 42.8250 % -0.34 C
2243 05-05-2009 00:00:00 10.50917 C 68.7917 % 5.03 C
2244 06-05-2009 00:00:00 13.85625 C 60.5982 % 6.38 C
2245 07-05-2009 00:00:00 16.47708 C 53.0208 % 6.88 C
2246 08-05-2009 00:00:00 16.58021 C 59.9688 % 8.78 C
2247 09-05-2009 00:00:00 14.3875 C 64.8854 % 7.87 C
2248 10-05-2009 00:00:00 17.72083 C 64.3750 % 10.92 C
2249 11-05-2009 00:00:00 13.57188 C 94.1667 % 12.65 C
2250 12-05-2009 00:00:00 11.83333 C 86.9688 % 9.74 C
Sensor: Nr:Datum:Temp:Feuchte:Taupunkt:
Aussen-T/F 2251 13-05-2009 00:00:00 15.51771 C 67.7396 % 9.59 C
2252 14-05-2009 00:00:00 16.00104 C 69.2708 % 10.38 C
2253 15-05-2009 00:00:00 15.12255 C 80.0294 % 11.71 C
2254 16-05-2009 00:00:00 13.80333 C 61.9667 % 6.65 C
2255 17-05-2009 00:00:00 17.02083 C 54.6583 % 7.83 C
2256 18-05-2009 00:00:00 16.95083 C 45.9833 % 5.26 C
2257 19-05-2009 00:00:00 16.49333 C 55.9500 % 7.68 C
2258 20-05-2009 00:00:00 18.70167 C 59.6583 % 10.7 C
2259 21-05-2009 00:00:00 19.21167 C 64.9917 % 12.47 C
2260 22-05-2009 00:00:00 17.97917 C 48.5500 % 6.98 C
2261 23-05-2009 00:00:00 18.72083 C 46.1750 % 6.93 C
2262 24-05-2009 00:00:00 22.53417 C 45.4500 % 10.16 C
2263 25-05-2009 00:00:00 23.49833 C 50.1500 % 12.53 C
2264 26-05-2009 00:00:00 19.86583 C 58.1250 % 11.4 C
2265 27-05-2009 00:00:00 14.4425 C 49.8833 % 4.13 C
2266 28-05-2009 00:00:00 15.5325 C 61.9750 % 8.28 C
2267 29-05-2009 00:00:00 17.81765 C 44.4874 % 5.57 C
2268 30-05-2009 00:00:00 18.43417 C 40.9083 % 4.92 C
2269 31-05-2009 00:00:00 20.3075 C 42.9000 % 7.3 C
2270 01-06-2009 00:00:00 19.37167 C 54.6583 % 10.01 C
2271 02-06-2009 00:00:00 19.91917 C 47.4333 % 8.42 C
2272 03-06-2009 00:00:00 16.3775 C 38.0667 % 2.07 C
2273 04-06-2009 00:00:00 13.435 C 39.4250 % -0.07 C
2274 05-06-2009 00:00:00 13.4075 C 42.9917 % 1.1 C
2275 06-06-2009 00:00:00 9.18333 C 83.0333 % 6.46 C
Sensor: Nr:Datum:Temp:Feuchte:Taupunkt:
Aussen-T/F 2276 07-06-2009 00:00:00 13.71083 C 71.1667 % 8.59 C
2277 08-06-2009 00:00:00 16.58667 C 52.2917 % 6.78 C
2278 09-06-2009 00:00:00 17.9275 C 61.2917 % 10.38 C
2279 10-06-2009 00:00:00 17.24454 C 61.2017 % 9.71 C
2280 11-06-2009 00:00:00 14.60417 C 73.9917 % 10.02 C
2281 12-06-2009 00:00:00 15.915 C 53.7417 % 6.56 C
2282 13-06-2009 00:00:00 18.29417 C 48.8833 % 7.37 C
2283 14-06-2009 00:00:00 20.3875 C 57.6667 % 11.77 C
2284 15-06-2009 00:00:00 16.76083 C 89.1000 % 14.96 C
2285 16-06-2009 00:00:00 16.58083 C 68.6500 % 10.8 C
2286 17-06-2009 00:00:00 19.89 C 54.6000 % 10.48 C
2287 18-06-2009 00:00:00 19.45417 C 61.5583 % 11.88 C
2288 19-06-2009 00:00:00 18.45583 C 50.4250 % 7.98 C
2289 20-06-2009 00:00:00 13.84583 C 66.0250 % 7.61 C
2290 21-06-2009 00:00:00 13.40167 C 74.0583 % 8.88 C
2291 22-06-2009 00:00:00 15.23697 C 58.5546 % 7.17 C
2292 23-06-2009 00:00:00 18.58583 C 49.8333 % 7.92 C
2293 24-06-2009 00:00:00 22.29167 C 39.7583 % 7.96 C
2294 25-06-2009 00:00:00 24.10583 C 44.1750 % 11.16 C
2295 26-06-2009 00:00:00 24.31083 C 48.3250 % 12.7 C
2296 27-06-2009 00:00:00 22.1625 C 64.0333 % 15.04 C
2297 28-06-2009 00:00:00 25.04417 C 51.0333 % 14.21 C
2298 29-06-2009 00:00:00 24.71583 C 52.9667 % 14.49 C
2299 30-06-2009 00:00:00 22.55083 C 69.7750 % 16.75 C
2300 01-07-2009 00:00:00 23.6175 C 64.4750 % 16.52 C
Sensor: Nr:Datum:Temp:Feuchte:Taupunkt:
Aussen-T/F 2301 02-07-2009 00:00:00 25.95917 C 52.9750 % 15.64 C
2302 03-07-2009 00:00:00 23.36083 C 65.3750 % 16.5 C
2303 04-07-2009 00:00:00 24.17479 C 53.8235 % 14.23 C
2304 05-07-2009 00:00:00 23.89917 C 51.1667 % 13.2 C
2305 06-07-2009 00:00:00 21.82333 C 62.3417 % 14.31 C
2306 07-07-2009 00:00:00 18.7625 C 62.9417 % 11.56 C
2307 08-07-2009 00:00:00 16.39 C 68.9083 % 10.67 C
2308 09-07-2009 00:00:00 16.38583 C 61.5333 % 8.98 C
2309 10-07-2009 00:00:00 15.17083 C 60.0083 % 7.47 C
2310 11-07-2009 00:00:00 17.55667 C 54.8167 % 8.37 C
2311 12-07-2009 00:00:00 19.3525 C 63.5500 % 12.27 C
2312 13-07-2009 00:00:00 21.76917 C 63.8667 % 14.63 C
2313 14-07-2009 00:00:00 23.4 C 64.0083 % 16.2 C
2314 15-07-2009 00:00:00 24.0475 C 46.7750 % 11.97 C
2315 16-07-2009 00:00:00 23.37479 C 47.5378 % 11.6 C
2316 17-07-2009 00:00:00 20.90917 C 53.6583 % 11.16 C
2317 18-07-2009 00:00:00 17.575 C 56.4917 % 8.83 C
2318 19-07-2009 00:00:00 17.92167 C 56.9833 % 9.28 C
2319 20-07-2009 00:00:00 19.82583 C 46.0000 % 7.88 C
2320 21-07-2009 00:00:00 23.22833 C 52.9833 % 13.12 C
2321 22-07-2009 00:00:00 25.10583 C 51.8333 % 14.51 C
2322 23-07-2009 00:00:00 22.65417 C 61.1000 % 14.78 C
2323 24-07-2009 00:00:00 20.33167 C 56.1333 % 11.31 C
2324 25-07-2009 00:00:00 18.03083 C 59.8667 % 10.12 C
2325 26-07-2009 00:00:00 19.94833 C 56.6000 % 11.07 C
Sensor: Nr:Datum:Temp:Feuchte:Taupunkt:
Aussen-T/F 2326 27-07-2009 00:00:00 20.60667 C 58.0750 % 12.08 C
2327 28-07-2009 00:00:00 20.41513 C 47.8992 % 9.01 C
2328 29-07-2009 00:00:00 21.77833 C 48.0167 % 10.29 C
2329 30-07-2009 00:00:00 21.10583 C 47.3083 % 9.46 C
2330 31-07-2009 00:00:00 20.32583 C 42.6417 % 7.22 C
2331 01-08-2009 00:00:00 22.455 C 43.5250 % 9.45 C
2332 02-08-2009 00:00:00 20.47167 C 61.4417 % 12.81 C
2333 03-08-2009 00:00:00 19.3075 C 57.0000 % 10.58 C
2334 04-08-2009 00:00:00 20.48917 C 50.3583 % 9.82 C
2335 05-08-2009 00:00:00 22.0275 C 42.0333 % 8.54 C
2336 06-08-2009 00:00:00 24.19667 C 43.2167 % 10.91 C
2337 07-08-2009 00:00:00 25.2075 C 43.4333 % 11.9 C
2338 08-08-2009 00:00:00 21.22583 C 66.1417 % 14.66 C
2339 09-08-2009 00:00:00 22.82101 C 59.6975 % 14.57 C
2340 10-08-2009 00:00:00 21.7025 C 61.8167 % 14.06 C
2341 11-08-2009 00:00:00 20.44 C 65.4917 % 13.76 C
2342 12-08-2009 00:00:00 20.9725 C 61.3833 % 13.27 C
2343 13-08-2009 00:00:00 18.55917 C 80.7583 % 15.19 C
2344 14-08-2009 00:00:00 19.44083 C 64.8500 % 12.66 C
2345 15-08-2009 00:00:00 21.37917 C 56.0917 % 12.27 C
2346 16-08-2009 00:00:00 23.84583 C 51.0000 % 13.1 C
2347 17-08-2009 00:00:00 23.615 C 52.9250 % 13.46 C
2348 18-08-2009 00:00:00 22.105 C 48.4000 % 10.71 C
2349 19-08-2009 00:00:00 23.76 C 47.2250 % 11.85 C
2350 20-08-2009 00:00:00 26.03167 C 46.7167 % 13.75 C
Sensor: Nr:Datum:Temp:Feuchte:Taupunkt:
Aussen-T/F 2351 21-08-2009 00:00:00 20.32185 C 60.7227 % 12.49 C
2352 22-08-2009 00:00:00 19.745 C 53.6417 % 10.08 C
2353 23-08-2009 00:00:00 20.0375 C 48.0000 % 8.7 C
2354 24-08-2009 00:00:00 22.19667 C 47.2333 % 10.43 C
2355 25-08-2009 00:00:00 23.11917 C 51.5583 % 12.6 C
2356 26-08-2009 00:00:00 21.68417 C 51.2750 % 11.19 C
2357 27-08-2009 00:00:00 23.10167 C 50.6833 % 12.32 C
2358 28-08-2009 00:00:00 21.60583 C 44.5167 % 9.01 C
2359 29-08-2009 00:00:00 16.21167 C 47.9917 % 5.2 C
2360 30-08-2009 00:00:00 16.655 C 48.9833 % 5.9 C
2361 31-08-2009 00:00:00 19.54667 C 45.1583 % 7.36 C
2362 01-09-2009 00:00:00 19.93167 C 59.1917 % 11.73 C
2363 02-09-2009 00:00:00 18.765 C 58.3500 % 10.43 C
2364 03-09-2009 00:00:00 17.39328 C 58.5546 % 9.19 C
2365 04-09-2009 00:00:00 14.56333 C 65.8333 % 8.25 C
2366 05-09-2009 00:00:00 15.10833 C 58.8417 % 7.12 C
2367 06-09-2009 00:00:00 14.74583 C 65.4917 % 8.35 C
2368 07-09-2009 00:00:00 17.63417 C 59.2667 % 9.6 C
2369 08-09-2009 00:00:00 19.88167 C 55.6000 % 10.74 C
2370 09-09-2009 00:00:00 19.7475 C 55.6250 % 10.63 C
2371 10-09-2009 00:00:00 18.43917 C 65.5417 % 11.87 C
2372 11-09-2009 00:00:00 17.6725 C 48.9250 % 6.81 C
2373 12-09-2009 00:00:00 16.99083 C 50.4917 % 6.65 C
2374 13-09-2009 00:00:00 14.23 C 70.4250 % 8.93 C
2375 14-09-2009 00:00:00 12.17417 C 93.7250 % 11.19 C
Sensor: Nr:Datum:Temp:Feuchte:Taupunkt:
Aussen-T/F 2376 15-09-2009 00:00:00 13.7563 C 90.4790 % 12.23 C
2377 16-09-2009 00:00:00 16.725 C 80.7417 % 13.4 C
2378 17-09-2009 00:00:00 18.47583 C 63.0583 % 11.32 C
2379 18-09-2009 00:00:00 18.26083 C 63.1333 % 11.14 C
2380 19-09-2009 00:00:00 20.78583 C 61.2500 % 13.06 C
2381 20-09-2009 00:00:00 19.92833 C 69.1167 % 14.1 C
2382 21-09-2009 00:00:00 18.85833 C 66.5250 % 12.49 C
2383 22-09-2009 00:00:00 17.215 C 64.9583 % 10.57 C
2384 23-09-2009 00:00:00 17.4225 C 65.4750 % 10.89 C
2385 24-09-2009 00:00:00 17.19 C 71.3833 % 11.97 C
2386 25-09-2009 00:00:00 15.16083 C 67.2333 % 9.13 C
2387 26-09-2009 00:00:00 14.56333 C 65.6083 % 8.2 C
2388 27-09-2009 00:00:00 14.64 C 65.5500 % 8.26 C
2389 28-09-2009 00:00:00 14.21583 C 69.3333 % 8.69 C
2390 29-09-2009 00:00:00 15.88319 C 64.1513 % 9.12 C
2391 30-09-2009 00:00:00 16.535 C 70.9500 % 11.25 C
2392 01-10-2009 00:00:00 14.71583 C 70.4750 % 9.41 C
2393 02-10-2009 00:00:00 11.32167 C 64.4833 % 4.88 C
2394 03-10-2009 00:00:00 11.72333 C 64.5500 % 5.27 C
2395 04-10-2009 00:00:00 13.54167 C 67.7083 % 7.69 C
2396 05-10-2009 00:00:00 12.4075 C 91.3500 % 11.04 C
2397 06-10-2009 00:00:00 16.13417 C 87.9333 % 14.13 C
2398 07-10-2009 00:00:00 19.57083 C 76.5667 % 15.34 C
2399 08-10-2009 00:00:00 16.41167 C 71.5083 % 11.25 C
2400 09-10-2009 00:00:00 11.88417 C 71.4583 % 6.89 C
Sensor: Nr:Datum:Temp:Feuchte:Taupunkt:
Aussen-T/F 2401 10-10-2009 00:00:00 13.34667 C 83.3667 % 10.59 C
2402 11-10-2009 00:00:00 12.35042 C 81.0420 % 9.19 C
2403 12-10-2009 00:00:00 10.9275 C 64.5583 % 4.52 C
2404 13-10-2009 00:00:00 9.24333 C 70.8833 % 4.24 C
2405 14-10-2009 00:00:00 4.27333 C 67.6167 % -1.17 C
2406 15-10-2009 00:00:00 3.45583 C 68.1750 % -1.84 C
2407 16-10-2009 00:00:00 6.41083 C 77.8417 % 2.83 C
2408 17-10-2009 00:00:00 8.52083 C 65.8417 % 2.51 C
2409 18-10-2009 00:00:00 7.3775 C 67.8000 % 1.83 C
2410 19-10-2009 00:00:00 4.59 C 71.1667 % -0.17 C
2411 20-10-2009 00:00:00 5.17083 C 70.1250 % 0.18 C
2412 21-10-2009 00:00:00 8.07333 C 60.4667 % 0.9 C
2413 22-10-2009 00:00:00 9.4 C 65.3833 % 3.25 C
2414 23-10-2009 00:00:00 8.34 C 83.1083 % 5.65 C
2415 24-10-2009 00:00:00 10.5084 C 80.4958 % 7.3 C
2416 25-10-2009 00:00:00 12.6096 C 75.8400 % 8.46 C
2417 26-10-2009 00:00:00 11.8875 C 71.4000 % 6.89 C
2418 27-10-2009 00:00:00 11.82417 C 72.3750 % 7.02 C
2419 28-10-2009 00:00:00 8.37917 C 83.3000 % 5.72 C
2420 29-10-2009 00:00:00 8.69333 C 86.5333 % 6.58 C
2421 30-10-2009 00:00:00 10.54083 C 78.0750 % 6.89 C
2422 31-10-2009 00:00:00 7.03083 C 74.9917 % 2.91 C
2423 01-11-2009 00:00:00 9.17333 C 75.6500 % 5.1 C
2424 02-11-2009 00:00:00 10.32333 C 86.4250 % 8.16 C
2425 03-11-2009 00:00:00 8.06167 C 74.6333 % 3.84 C
Sensor: Nr:Datum:Temp:Feuchte:Taupunkt:
Aussen-T/F 2426 04-11-2009 00:00:00 8.75 C 80.8000 % 5.64 C
2427 05-11-2009 00:00:00 9.29748 C 68.9916 % 3.91 C
2428 06-11-2009 00:00:00 9.43333 C 69.3000 % 4.1 C
2429 07-11-2009 00:00:00 8.11583 C 71.3500 % 3.25 C
2430 08-11-2009 00:00:00 6.9 C 82.2833 % 4.09 C
2431 09-11-2009 00:00:00 6.21167 C 85.0833 % 3.9 C
2432 10-11-2009 00:00:00 6.03 C 93.3833 % 5.04 C
2433 11-11-2009 00:00:00 6.2525 C 83.7333 % 3.71 C
2434 12-11-2009 00:00:00 4.66 C 91.2500 % 3.36 C
2435 13-11-2009 00:00:00 11.27583 C 81.1833 % 8.17 C
2436 14-11-2009 00:00:00 11.7125 C 75.2250 % 7.48 C
2437 15-11-2009 00:00:00 11.2125 C 67.9167 % 5.52 C
2438 16-11-2009 00:00:00 10.92667 C 85.6250 % 8.61 C
2439 17-11-2009 00:00:00 10.88235 C 85.3697 % 8.53 C
2440 18-11-2009 00:00:00 10.245 C 65.3583 % 4.04 C
2441 19-11-2009 00:00:00 9.77667 C 70.9667 % 4.77 C
2442 20-11-2009 00:00:00 7.87917 C 83.2417 % 5.22 C
2443 21-11-2009 00:00:00 11.67333 C 74.7417 % 7.35 C
2444 22-11-2009 00:00:00 11.84167 C 61.4167 % 4.67 C
2445 23-11-2009 00:00:00 10.33417 C 72.1583 % 5.55 C
2446 24-11-2009 00:00:00 11.89833 C 68.9917 % 6.4 C
2447 25-11-2009 00:00:00 12.0875 C 59.3750 % 4.42 C
2448 26-11-2009 00:00:00 9.98917 C 60.9833 % 2.82 C
2449 27-11-2009 00:00:00 9.0425 C 63.1500 % 2.42 C
2450 28-11-2009 00:00:00 8.79 C 68.4583 % 3.31 C
Sensor: Nr:Datum:Temp:Feuchte:Taupunkt:
Aussen-T/F 2451 29-11-2009 00:00:00 9.41597 C 67.3361 % 3.68 C
2452 30-11-2009 00:00:00 6.46 C 84.5500 % 4.05 C
2453 01-12-2009 00:00:00 5.65583 C 83.5583 % 3.1 C
2454 02-12-2009 00:00:00 5.96 C 72.1333 % 1.33 C
2455 03-12-2009 00:00:00 8.53667 C 70.9333 % 3.57 C
2456 04-12-2009 00:00:00 4.73917 C 65.4500 % -1.17 C
2457 05-12-2009 00:00:00 5.3975 C 73.5583 % 1.06 C
2458 06-12-2009 00:00:00 9.83 C 80.9583 % 6.72 C
2459 07-12-2009 00:00:00 5.59917 C 85.0833 % 3.3 C
2460 08-12-2009 00:00:00 6.95833 C 81.1250 % 3.95 C
2461 09-12-2009 00:00:00 7.2525 C 78.5917 % 3.79 C
2462 10-12-2009 00:00:00 8.78583 C 80.4000 % 5.6 C
2463 11-12-2009 00:00:00 6.665 C 81.1917 % 3.68 C
2464 12-12-2009 00:00:00 3.47833 C 86.1750 % 1.39 C
2465 13-12-2009 00:00:00 1.50924 C 65.8487 % -4.17 C
2466 14-12-2009 00:00:00 -0.80667 C 58.3583 % -7.95 C
2467 15-12-2009 00:00:00 -0.50083 C 61.5917 % -6.96 C
2468 16-12-2009 00:00:00 -1.19917 C 62.6167 % -7.41 C
2469 17-12-2009 00:00:00 -4.445 C 73.9500 % -8.38 C
2470 18-12-2009 00:00:00 -5.04417 C 68.9417 % -9.85 C
2471 19-12-2009 00:00:00 -12.79 C 58.7000 % -19.18 C
2472 20-12-2009 00:00:00 -8.03917 C 68.5500 % -12.79 C
2473 21-12-2009 00:00:00 -2.18417 C 78.2000 % -5.46 C
2474 22-12-2009 00:00:00 2.7175 C 87.1750 % 0.8 C
2475 23-12-2009 00:00:00 0.49333 C 93.2833 % -0.46 C
Sensor: Nr:Datum:Temp:Feuchte:Taupunkt:
Aussen-T/F 2476 24-12-2009 00:00:00 2.31333 C 90.7833 % 0.97 C
2477 25-12-2009 00:00:00 4.38824 C 77.7983 % 0.86 C
2478 26-12-2009 00:00:00 2.04583 C 79.8417 % -1.06 C
2479 27-12-2009 00:00:00 0.5475 C 87.0417 % -1.35 C
2480 28-12-2009 00:00:00 3.1425 C 74.7333 % -0.9 C
2481 29-12-2009 00:00:00 0.4625 C 92.0917 % -0.67 C
2482 30-12-2009 00:00:00 7.05667 C 93.4917 % 6.08 C
2483 31-12-2009 00:00:00 5.32667 C 94.8417 % 4.57 C
2484 01-01-2010 00:00:00 -0.1725 C 91.5333 % -1.38 C
2485 02-01-2010 00:00:00 -1.51083 C 76.5417 % -5.09 C
2486 03-01-2010 00:00:00 -1.79667 C 80.7750 % -4.66 C
2487 04-01-2010 00:00:00 -5.24083 C 72.0250 % -9.48 C
2488 05-01-2010 00:00:00 -8.00083 C 81.2667 % -10.64 C
2489 06-01-2010 00:00:00 -6.88917 C 75.9167 % -10.41 C
2490 07-01-2010 00:00:00 -3.75966 C 75.0084 % -7.53 C
2491 08-01-2010 00:00:00 -4.82167 C 73.6333 % -8.8 C
2492 09-01-2010 00:00:00 -2.655 C 75.7333 % -6.34 C
2493 10-01-2010 00:00:00 -1.87083 C 76.9583 % -5.37 C
2494 11-01-2010 00:00:00 -1.42833 C 82.4667 % -4.02 C
2495 12-01-2010 00:00:00 -1.65833 C 78.7583 % -4.85 C
2496 13-01-2010 00:00:00 -2.2325 C 72.0917 % -6.57 C
2497 14-01-2010 00:00:00 0.35417 C 80.1083 % -2.66 C
2498 15-01-2010 00:00:00 0.87333 C 79.1833 % -2.31 C
2499 16-01-2010 00:00:00 -0.11833 C 78.0000 % -3.48 C
2500 17-01-2010 00:00:00 2.09667 C 91.1500 % 0.81 C
Sensor: Nr:Datum:Temp:Feuchte:Taupunkt:
Aussen-T/F 2501 18-01-2010 00:00:00 3.38333 C 83.1500 % 0.8 C
2502 19-01-2010 00:00:00 2.24583 C 90.2833 % 0.82 C
2503 20-01-2010 00:00:00 1.97417 C 83.9417 % -0.45 C
2504 21-01-2010 00:00:00 2.45126 C 70.1933 % -2.41 C
2505 22-01-2010 00:00:00 2.93667 C 71.6750 % -1.66 C
2506 23-01-2010 00:00:00 -0.41333 C 71.4167 % -4.94 C
2507 24-01-2010 00:00:00 0.27167 C 82.1667 % -2.4 C
2508 25-01-2010 00:00:00 0.01667 C 86.3167 % -1.99 C
2509 26-01-2010 00:00:00 -3.325 C 73.0333 % -7.46 C
2510 27-01-2010 00:00:00 -5.54083 C 66.7000 % -10.74 C
2511 28-01-2010 00:00:00 1.20667 C 76.7750 % -2.41 C
2512 29-01-2010 00:00:00 1.39083 C 84.4333 % -0.94 C
2513 30-01-2010 00:00:00 -1.54583 C 77.9250 % -4.89 C
2514 31-01-2010 00:00:00 -1.62333 C 73.9000 % -5.66 C
2515 01-02-2010 00:00:00 0.20167 C 75.0083 % -3.69 C
2516 02-02-2010 00:00:00 0.69916 C 78.5798 % -2.59 C
2517 03-02-2010 00:00:00 2.28899 C 89.1468 % 0.69 C
2518 04-02-2010 00:00:00 4.17018 C 86.3684 % 2.1 C
2519 05-02-2010 00:00:00 3.29649 C 80.7719 % 0.32 C
2520 06-02-2010 00:00:00 4.55172 C 82.9483 % 1.91 C
2521 07-02-2010 00:00:00 4.17018 C 78.0526 % 0.7 C
2522 08-02-2010 00:00:00 -0.75 C 62.0517 % -7.1 C
2523 09-02-2010 00:00:00 -3.74483 C 58.3621 % -10.71 C
2524 10-02-2010 00:00:00 -4.8 C 67.0702 % -9.96 C
2525 11-02-2010 00:00:00 -3.79828 C 70.5345 % -8.36 C
Sensor: Nr:Datum:Temp:Feuchte:Taupunkt:
Aussen-T/F 2526 12-02-2010 00:00:00 -2.14737 C 70.6140 % -6.76 C
2527 13-02-2010 00:00:00 -2.57414 C 69.6724 % -7.34 C
2528 14-02-2010 00:00:00 -2.13621 C 74.1379 % -6.11 C
2529 15-02-2010 00:00:00 -1.12632 C 71.6491 % -5.58 C
2530 16-02-2010 00:00:00 -1.16379 C 67.5690 % -6.39 C
2531 17-02-2010 00:00:00 -1.61754 C 73.4912 % -5.73 C
2532 18-02-2010 00:00:00 3.2569 C 75.4138 % -0.66 C
2533 19-02-2010 00:00:00 3.59375 C 66.6094 % -2.03 C
2534 20-02-2010 00:00:00 1.69333 C 64.8167 % -4.2 C
2535 21-02-2010 00:00:00 2.87833 C 72.0500 % -1.65 C
2536 22-02-2010 00:00:00 6.76417 C 68.6833 % 1.42 C
2537 23-02-2010 00:00:00 9.7875 C 76.2667 % 5.82 C
2538 24-02-2010 00:00:00 9.55 C 71.2250 % 4.61 C
2539 25-02-2010 00:00:00 9.58 C 64.7500 % 3.28 C
2540 26-02-2010 00:00:00 8.62667 C 61.8917 % 1.74 C
2541 27-02-2010 00:00:00 8.4025 C 48.0000 % -1.95 C
2542 28-02-2010 00:00:00 8.30667 C 65.2417 % 2.18 C
2543 01-03-2010 00:00:00 5.40917 C 55.1833 % -2.85 C
2544 02-03-2010 00:00:00 3.135 C 64.5000 % -2.9 C
2545 03-03-2010 00:00:00 2.9925 C 56.0000 % -4.91 C
2546 04-03-2010 00:00:00 2.47395 C 46.4538 % -7.82 C
2547 05-03-2010 00:00:00 0.77667 C 47.2000 % -9.17 C
2548 06-03-2010 00:00:00 -0.47083 C 72.0000 % -4.89 C
2549 07-03-2010 00:00:00 -1.6825 C 52.6417 % -10.08 C
2550 08-03-2010 00:00:00 -1.21083 C 43.0500 % -12.16 C
Sensor: Nr:Datum:Temp:Feuchte:Taupunkt:
Aussen-T/F 2551 09-03-2010 00:00:00 -0.87167 C 38.6333 % -13.19 C
2552 10-03-2010 00:00:00 1.41667 C 32.7750 % -13.15 C
2553 11-03-2010 00:00:00 0.40167 C 51.3333 % -8.45 C
2554 12-03-2010 00:00:00 1.61167 C 71.3417 % -3 C
2555 13-03-2010 00:00:00 4.36583 C 64.8667 % -1.65 C
2556 14-03-2010 00:00:00 5.79833 C 56.7083 % -2.12 C
2557 15-03-2010 00:00:00 6.445 C 67.4417 % 0.87 C
2558 16-03-2010 00:00:00 6.08067 C 77.1933 % 2.4 C
2559 17-03-2010 00:00:00 6.69417 C 58.9167 % -0.76 C
2560 18-03-2010 00:00:00 10.12333 C 47.9167 % -0.4 C
2561 19-03-2010 00:00:00 15.0225 C 36.2750 % 0.19 C
2562 20-03-2010 00:00:00 14.37667 C 68.5333 % 8.67 C
2563 21-03-2010 00:00:00 11.23667 C 85.1833 % 8.84 C
2564 22-03-2010 00:00:00 9.7575 C 75.9583 % 5.73 C
2565 23-03-2010 00:00:00 8.94 C 69.7083 % 3.71 C
2566 24-03-2010 00:00:00 11.9975 C 58.5500 % 4.14 C
2567 25-03-2010 00:00:00 14.27083 C 53.1750 % 4.88 C
2568 26-03-2010 00:00:00 10.0325 C 74.5250 % 5.72 C
2569 27-03-2010 00:00:00 9.34333 C 63.2500 % 2.73 C
2570 28-03-2010 00:00:00 9.93478 C 66.1043 % 3.91 C
2571 29-03-2010 00:00:00 11.88167 C 76.0000 % 7.79 C
2572 30-03-2010 00:00:00 12.70672 C 57.7479 % 4.6 C
2573 31-03-2010 00:00:00 8.18667 C 53.2250 % -0.75 C
2574 01-04-2010 00:00:00 5.84333 C 52.3000 % -3.16 C
2575 02-04-2010 00:00:00 6.48583 C 58.2667 % -1.1 C
Sensor: Nr:Datum:Temp:Feuchte:Taupunkt:
Aussen-T/F 2576 03-04-2010 00:00:00 9.73667 C 59.2250 % 2.17 C
2577 04-04-2010 00:00:00 8.98833 C 59.6417 % 1.57 C
2578 05-04-2010 00:00:00 9.15083 C 51.2500 % -0.37 C
2579 06-04-2010 00:00:00 10.38167 C 45.7750 % -0.79 C
2580 07-04-2010 00:00:00 13.61167 C 43.0667 % 1.3 C
2581 08-04-2010 00:00:00 12.375 C 63.8000 % 5.72 C
2582 09-04-2010 00:00:00 11.49917 C 57.1917 % 3.34 C
2583 10-04-2010 00:00:00 11.3575 C 45.4833 % 0.01 C
2584 11-04-2010 00:00:00 7.86667 C 53.1250 % -1.07 C
2585 12-04-2010 00:00:00 7.44958 C 67.1176 % 1.76 C
2586 13-04-2010 00:00:00 11.85583 C 58.3000 % 3.94 C
2587 14-04-2010 00:00:00 11.76417 C 44.4000 % 0.05 C
2588 15-04-2010 00:00:00 11.8575 C 47.2917 % 1.01 C
2589 16-04-2010 00:00:00 9.71583 C 46.7750 % -1.1 C
2590 17-04-2010 00:00:00 11.1225 C 45.0083 % -0.34 C
2591 18-04-2010 00:00:00 13.27917 C 39.1333 % -0.32 C
2592 19-04-2010 00:00:00 11.18333 C 50.5667 % 1.32 C
2593 20-04-2010 00:00:00 11.13833 C 50.6583 % 1.3 C
2594 21-04-2010 00:00:00 7.34417 C 48.4667 % -2.8 C
2595 22-04-2010 00:00:00 8.35333 C 45.1250 % -2.83 C
2596 23-04-2010 00:00:00 11.44917 C 39.7500 % -1.74 C
2597 24-04-2010 00:00:00 14.91167 C 35.7417 % -0.11 C

Maximal/Minimal-Werte vom 23.02.2003 - 24.04.2010

Sensor Min Max Avg
Temp
(Aussen-T/F)
-16.4 °C
20-12-2009  01:30:01
36.2 °C
08-08-2003  16:43:01
11.54 °C
Feuchte
(Aussen-T/F)
20 %
13-03-2003  15:27:13
95 %
27-03-2003  04:17:17
66.21 %
Taupunkt
(Aussen-T/F)
-19.18 C
19-12-2009  00:00:00
17.85 C
11-08-2004  00:00:00
5 C

Die Daten stammen von einer Davis Vantage Pro 2 Wetter-Station und werden unter Linux mit der Software wview2wettercgi und aufbereitet. Alle Angaben erfolgen ohne Gewähr für ihre Vollständigkeit oder Richtigkeit.
Kontakt: Rainer Krienke krienke@uni-koblenz.de . Meine Webseiten an der Uni Koblenz oder privat.
Version: $Revision: 0.78 $